<?xml version="1.0" encoding="UTF-8" standalone="no" ?>
<gpx xmlns="http://www.topografix.com/GPX/1/1" xmlns:xsi="http://www.w3.org/2001/XMLSchema-instance" xsi:schemaLocation="http://www.topografix.com/GPX/1/1 http://www.topografix.com/GPX/1/1/gpx.xsd" version="1.1" creator="VisuGPX - https://www.visugpx.com">
  <metadata>
    <name>boucle Marignieu </name>
    <desc><![CDATA[Dans les coteaux Bugiste. au départ du cimetière ]]></desc>
  </metadata>
  <trk>
    <name><![CDATA[boucle Marignieu _1]]></name>
    <trkseg>
      <trkpt lat="45.79953" lon="5.72421">
        <ele>218.9</ele>
        <time>2015-10-11T13:10:59Z</time>
      </trkpt>
      <trkpt lat="45.79952" lon="5.72409">
        <ele>185.88024368061</ele>
        <time>2015-10-11T13:11:04Z</time>
      </trkpt>
      <trkpt lat="45.79951" lon="5.72398">
        <ele>152.86048736122</ele>
        <time>2015-10-11T13:11:14Z</time>
      </trkpt>
      <trkpt lat="45.7995" lon="5.72389">
        <ele>119.84073104183</ele>
        <time>2015-10-11T13:11:19Z</time>
      </trkpt>
      <trkpt lat="45.79944" lon="5.72315">
        <ele>86.820974722444</ele>
        <time>2015-10-11T13:11:29Z</time>
      </trkpt>
      <trkpt lat="45.79946" lon="5.72316">
        <ele>86.820974722444</ele>
        <time>2015-10-11T13:11:34Z</time>
      </trkpt>
      <trkpt lat="45.79956" lon="5.72343">
        <ele>109.85522826159</ele>
        <time>2015-10-11T13:11:44Z</time>
      </trkpt>
      <trkpt lat="45.79967" lon="5.72357">
        <ele>132.88948180074</ele>
        <time>2015-10-11T13:11:49Z</time>
      </trkpt>
      <trkpt lat="45.79988" lon="5.72377">
        <ele>155.92373533989</ele>
        <time>2015-10-11T13:11:59Z</time>
      </trkpt>
      <trkpt lat="45.79999" lon="5.72384">
        <ele>187.08453711469</ele>
        <time>2015-10-11T13:12:04Z</time>
      </trkpt>
      <trkpt lat="45.8003" lon="5.72408">
        <ele>217.94693075579</ele>
        <time>2015-10-11T13:12:19Z</time>
      </trkpt>
      <trkpt lat="45.8004" lon="5.72414">
        <ele>240.79037993254</ele>
        <time>2015-10-11T13:12:24Z</time>
      </trkpt>
      <trkpt lat="45.80055" lon="5.72421">
        <ele>262.84213436929</ele>
        <time>2015-10-11T13:12:34Z</time>
      </trkpt>
      <trkpt lat="45.80065" lon="5.72427">
        <ele>283.17890764989</ele>
        <time>2015-10-11T13:12:39Z</time>
      </trkpt>
      <trkpt lat="45.80082" lon="5.7243">
        <ele>302.27623817854</ele>
        <time>2015-10-11T13:12:49Z</time>
      </trkpt>
      <trkpt lat="45.8009" lon="5.72432">
        <ele>302.27623817854</ele>
        <time>2015-10-11T13:12:54Z</time>
      </trkpt>
      <trkpt lat="45.80103" lon="5.7243">
        <ele>321.79204370618</ele>
        <time>2015-10-11T13:13:04Z</time>
      </trkpt>
      <trkpt lat="45.80113" lon="5.72426">
        <ele>339.56710782915</ele>
        <time>2015-10-11T13:13:09Z</time>
      </trkpt>
      <trkpt lat="45.80125" lon="5.7242">
        <ele>355.77807621202</ele>
        <time>2015-10-11T13:13:19Z</time>
      </trkpt>
      <trkpt lat="45.80133" lon="5.72416">
        <ele>355.77807621202</ele>
        <time>2015-10-11T13:13:24Z</time>
      </trkpt>
      <trkpt lat="45.80148" lon="5.72408">
        <ele>371.96393057177</ele>
        <time>2015-10-11T13:13:34Z</time>
      </trkpt>
      <trkpt lat="45.80155" lon="5.72401">
        <ele>371.96393057177</ele>
        <time>2015-10-11T13:13:39Z</time>
      </trkpt>
      <trkpt lat="45.8016" lon="5.72385">
        <ele>386.53843697061</ele>
        <time>2015-10-11T13:13:49Z</time>
      </trkpt>
      <trkpt lat="45.80168" lon="5.72382">
        <ele>386.53843697061</ele>
        <time>2015-10-11T13:13:54Z</time>
      </trkpt>
      <trkpt lat="45.80183" lon="5.72377">
        <ele>401.14128273306</ele>
        <time>2015-10-11T13:14:04Z</time>
      </trkpt>
      <trkpt lat="45.80188" lon="5.72379">
        <ele>401.14128273306</ele>
        <time>2015-10-11T13:14:09Z</time>
      </trkpt>
      <trkpt lat="45.80209" lon="5.72383">
        <ele>412.80590066951</ele>
        <time>2015-10-11T13:14:24Z</time>
      </trkpt>
      <trkpt lat="45.80216" lon="5.72386">
        <ele>412.80590066951</ele>
        <time>2015-10-11T13:14:29Z</time>
      </trkpt>
      <trkpt lat="45.80229" lon="5.72386">
        <ele>422.86085399492</ele>
        <time>2015-10-11T13:14:39Z</time>
      </trkpt>
      <trkpt lat="45.80236" lon="5.72387">
        <ele>422.86085399492</ele>
        <time>2015-10-11T13:14:44Z</time>
      </trkpt>
      <trkpt lat="45.8025" lon="5.72385">
        <ele>430.77799247262</ele>
        <time>2015-10-11T13:14:54Z</time>
      </trkpt>
      <trkpt lat="45.80255" lon="5.72385">
        <ele>430.77799247262</ele>
        <time>2015-10-11T13:14:59Z</time>
      </trkpt>
      <trkpt lat="45.80266" lon="5.72386">
        <ele>436.74751545225</ele>
        <time>2015-10-11T13:15:09Z</time>
      </trkpt>
      <trkpt lat="45.80271" lon="5.72389">
        <ele>436.74751545225</ele>
        <time>2015-10-11T13:15:14Z</time>
      </trkpt>
      <trkpt lat="45.80282" lon="5.72398">
        <ele>441.76809639871</ele>
        <time>2015-10-11T13:15:24Z</time>
      </trkpt>
      <trkpt lat="45.80287" lon="5.72401">
        <ele>441.76809639871</ele>
        <time>2015-10-11T13:15:29Z</time>
      </trkpt>
      <trkpt lat="45.803" lon="5.72412">
        <ele>445.24238805823</ele>
        <time>2015-10-11T13:15:39Z</time>
      </trkpt>
      <trkpt lat="45.80306" lon="5.72416">
        <ele>445.24238805823</ele>
        <time>2015-10-11T13:15:44Z</time>
      </trkpt>
      <trkpt lat="45.80317" lon="5.72421">
        <ele>447.10126005053</ele>
        <time>2015-10-11T13:15:54Z</time>
      </trkpt>
      <trkpt lat="45.80322" lon="5.72424">
        <ele>447.10126005053</ele>
        <time>2015-10-11T13:15:59Z</time>
      </trkpt>
      <trkpt lat="45.80343" lon="5.72435">
        <ele>448.41127651597</ele>
        <time>2015-10-11T13:16:14Z</time>
      </trkpt>
      <trkpt lat="45.80347" lon="5.7244">
        <ele>448.41127651597</ele>
        <time>2015-10-11T13:16:19Z</time>
      </trkpt>
      <trkpt lat="45.80358" lon="5.7245">
        <ele>448.83781353927</ele>
        <time>2015-10-11T13:16:29Z</time>
      </trkpt>
      <trkpt lat="45.80366" lon="5.72459">
        <ele>448.73309637718</ele>
        <time>2015-10-11T13:16:34Z</time>
      </trkpt>
      <trkpt lat="45.80375" lon="5.72469">
        <ele>447.61323666709</ele>
        <time>2015-10-11T13:16:44Z</time>
      </trkpt>
      <trkpt lat="45.80381" lon="5.72473">
        <ele>447.61323666709</ele>
        <time>2015-10-11T13:16:49Z</time>
      </trkpt>
      <trkpt lat="45.80391" lon="5.7248">
        <ele>445.65090378846</ele>
        <time>2015-10-11T13:16:59Z</time>
      </trkpt>
      <trkpt lat="45.80397" lon="5.72483">
        <ele>445.65090378846</ele>
        <time>2015-10-11T13:17:04Z</time>
      </trkpt>
      <trkpt lat="45.80408" lon="5.7249">
        <ele>442.97910241783</ele>
        <time>2015-10-11T13:17:14Z</time>
      </trkpt>
      <trkpt lat="45.80414" lon="5.72495">
        <ele>442.97910241783</ele>
        <time>2015-10-11T13:17:19Z</time>
      </trkpt>
      <trkpt lat="45.80436" lon="5.72511">
        <ele>440.48799362693</ele>
        <time>2015-10-11T13:17:34Z</time>
      </trkpt>
      <trkpt lat="45.80443" lon="5.72512">
        <ele>440.48799362693</ele>
        <time>2015-10-11T13:17:39Z</time>
      </trkpt>
      <trkpt lat="45.80457" lon="5.72515">
        <ele>437.9665608323</ele>
        <time>2015-10-11T13:17:49Z</time>
      </trkpt>
      <trkpt lat="45.80464" lon="5.72516">
        <ele>437.9665608323</ele>
        <time>2015-10-11T13:17:54Z</time>
      </trkpt>
      <trkpt lat="45.80477" lon="5.72517">
        <ele>435.3638766548</ele>
        <time>2015-10-11T13:18:04Z</time>
      </trkpt>
      <trkpt lat="45.80484" lon="5.72518">
        <ele>435.3638766548</ele>
        <time>2015-10-11T13:18:09Z</time>
      </trkpt>
      <trkpt lat="45.80497" lon="5.72518">
        <ele>432.59298527962</ele>
        <time>2015-10-11T13:18:19Z</time>
      </trkpt>
      <trkpt lat="45.80504" lon="5.72519">
        <ele>432.59298527962</ele>
        <time>2015-10-11T13:18:24Z</time>
      </trkpt>
      <trkpt lat="45.80518" lon="5.72518">
        <ele>429.67284627729</ele>
        <time>2015-10-11T13:18:34Z</time>
      </trkpt>
      <trkpt lat="45.80523" lon="5.72512">
        <ele>429.67284627729</ele>
        <time>2015-10-11T13:18:39Z</time>
      </trkpt>
      <trkpt lat="45.80527" lon="5.72497">
        <ele>426.77591105352</ele>
        <time>2015-10-11T13:18:49Z</time>
      </trkpt>
      <trkpt lat="45.8053" lon="5.72492">
        <ele>426.77591105352</ele>
        <time>2015-10-11T13:18:54Z</time>
      </trkpt>
      <trkpt lat="45.80536" lon="5.72479">
        <ele>424.14915515214</ele>
        <time>2015-10-11T13:19:04Z</time>
      </trkpt>
      <trkpt lat="45.80541" lon="5.72475">
        <ele>424.14915515214</ele>
        <time>2015-10-11T13:19:09Z</time>
      </trkpt>
      <trkpt lat="45.80555" lon="5.7247">
        <ele>422.06925901368</ele>
        <time>2015-10-11T13:19:19Z</time>
      </trkpt>
      <trkpt lat="45.80563" lon="5.72466">
        <ele>422.06925901368</ele>
        <time>2015-10-11T13:19:24Z</time>
      </trkpt>
      <trkpt lat="45.80576" lon="5.72453">
        <ele>419.6227507597</ele>
        <time>2015-10-11T13:19:34Z</time>
      </trkpt>
      <trkpt lat="45.80581" lon="5.72448">
        <ele>419.6227507597</ele>
        <time>2015-10-11T13:19:39Z</time>
      </trkpt>
      <trkpt lat="45.80588" lon="5.72436">
        <ele>417.07738802158</ele>
        <time>2015-10-11T13:19:49Z</time>
      </trkpt>
      <trkpt lat="45.80594" lon="5.72432">
        <ele>417.07738802158</ele>
        <time>2015-10-11T13:19:54Z</time>
      </trkpt>
      <trkpt lat="45.8061" lon="5.72422">
        <ele>414.74512341483</ele>
        <time>2015-10-11T13:20:09Z</time>
      </trkpt>
      <trkpt lat="45.80611" lon="5.72422">
        <ele>414.74512341483</ele>
        <time>2015-10-11T13:20:14Z</time>
      </trkpt>
      <trkpt lat="45.80614" lon="5.72419">
        <ele>414.74512341483</ele>
        <time>2015-10-11T13:20:24Z</time>
      </trkpt>
      <trkpt lat="45.80622" lon="5.72413">
        <ele>413.09415843146</ele>
        <time>2015-10-11T13:20:29Z</time>
      </trkpt>
      <trkpt lat="45.80636" lon="5.72403">
        <ele>411.44707885414</ele>
        <time>2015-10-11T13:20:39Z</time>
      </trkpt>
      <trkpt lat="45.80642" lon="5.72399">
        <ele>411.44707885414</ele>
        <time>2015-10-11T13:20:44Z</time>
      </trkpt>
      <trkpt lat="45.80652" lon="5.72389">
        <ele>410.25979379056</ele>
        <time>2015-10-11T13:20:54Z</time>
      </trkpt>
      <trkpt lat="45.80656" lon="5.72382">
        <ele>410.25979379056</ele>
        <time>2015-10-11T13:20:59Z</time>
      </trkpt>
      <trkpt lat="45.80666" lon="5.72369">
        <ele>409.23440126057</ele>
        <time>2015-10-11T13:21:09Z</time>
      </trkpt>
      <trkpt lat="45.80671" lon="5.72366">
        <ele>409.23440126057</ele>
        <time>2015-10-11T13:21:14Z</time>
      </trkpt>
      <trkpt lat="45.8068" lon="5.72357">
        <ele>409.11278706601</ele>
        <time>2015-10-11T13:21:24Z</time>
      </trkpt>
      <trkpt lat="45.80686" lon="5.72353">
        <ele>409.11278706601</ele>
        <time>2015-10-11T13:21:29Z</time>
      </trkpt>
      <trkpt lat="45.80695" lon="5.72342">
        <ele>409.24949903605</ele>
        <time>2015-10-11T13:21:39Z</time>
      </trkpt>
      <trkpt lat="45.807" lon="5.72336">
        <ele>409.24949903605</ele>
        <time>2015-10-11T13:21:44Z</time>
      </trkpt>
      <trkpt lat="45.80713" lon="5.72317">
        <ele>409.04615418325</ele>
        <time>2015-10-11T13:21:59Z</time>
      </trkpt>
      <trkpt lat="45.80718" lon="5.7231">
        <ele>409.04615418325</ele>
        <time>2015-10-11T13:22:04Z</time>
      </trkpt>
      <trkpt lat="45.80729" lon="5.72302">
        <ele>409.4588556032</ele>
        <time>2015-10-11T13:22:14Z</time>
      </trkpt>
      <trkpt lat="45.80729" lon="5.72304">
        <ele>409.4588556032</ele>
        <time>2015-10-11T13:22:19Z</time>
      </trkpt>
      <trkpt lat="45.8073" lon="5.72304">
        <ele>409.4588556032</ele>
        <time>2015-10-11T13:22:29Z</time>
      </trkpt>
      <trkpt lat="45.8073" lon="5.72305">
        <ele>409.4588556032</ele>
        <time>2015-10-11T13:22:34Z</time>
      </trkpt>
      <trkpt lat="45.8073" lon="5.72304">
        <ele>409.4588556032</ele>
        <time>2015-10-11T13:22:44Z</time>
      </trkpt>
      <trkpt lat="45.8073" lon="5.72304">
        <ele>409.4588556032</ele>
        <time>2015-10-11T13:22:49Z</time>
      </trkpt>
      <trkpt lat="45.80732" lon="5.72304">
        <ele>409.4588556032</ele>
        <time>2015-10-11T13:22:59Z</time>
      </trkpt>
      <trkpt lat="45.80733" lon="5.72302">
        <ele>409.4588556032</ele>
        <time>2015-10-11T13:23:04Z</time>
      </trkpt>
      <trkpt lat="45.80735" lon="5.72302">
        <ele>409.4588556032</ele>
        <time>2015-10-11T13:23:14Z</time>
      </trkpt>
      <trkpt lat="45.8074" lon="5.72297">
        <ele>411.54650102618</ele>
        <time>2015-10-11T13:23:19Z</time>
      </trkpt>
      <trkpt lat="45.8075" lon="5.7229">
        <ele>413.45443920494</ele>
        <time>2015-10-11T13:23:29Z</time>
      </trkpt>
      <trkpt lat="45.80758" lon="5.7228">
        <ele>414.83263675235</ele>
        <time>2015-10-11T13:23:34Z</time>
      </trkpt>
      <trkpt lat="45.80767" lon="5.72268">
        <ele>416.38249777723</ele>
        <time>2015-10-11T13:23:44Z</time>
      </trkpt>
      <trkpt lat="45.80776" lon="5.72264">
        <ele>417.62335276411</ele>
        <time>2015-10-11T13:23:49Z</time>
      </trkpt>
      <trkpt lat="45.80791" lon="5.72247">
        <ele>419.03182285378</ele>
        <time>2015-10-11T13:24:04Z</time>
      </trkpt>
      <trkpt lat="45.80799" lon="5.72246">
        <ele>419.03182285378</ele>
        <time>2015-10-11T13:24:09Z</time>
      </trkpt>
      <trkpt lat="45.80804" lon="5.72237">
        <ele>419.53822077917</ele>
        <time>2015-10-11T13:24:19Z</time>
      </trkpt>
      <trkpt lat="45.80809" lon="5.72232">
        <ele>419.53822077917</ele>
        <time>2015-10-11T13:24:24Z</time>
      </trkpt>
      <trkpt lat="45.80814" lon="5.72223">
        <ele>419.97000535687</ele>
        <time>2015-10-11T13:24:34Z</time>
      </trkpt>
      <trkpt lat="45.80816" lon="5.72221">
        <ele>419.97000535687</ele>
        <time>2015-10-11T13:24:39Z</time>
      </trkpt>
      <trkpt lat="45.80816" lon="5.72221">
        <ele>419.97000535687</ele>
        <time>2015-10-11T13:24:49Z</time>
      </trkpt>
      <trkpt lat="45.80816" lon="5.72221">
        <ele>419.97000535687</ele>
        <time>2015-10-11T13:24:54Z</time>
      </trkpt>
      <trkpt lat="45.80817" lon="5.72212">
        <ele>419.97000535687</ele>
        <time>2015-10-11T13:25:04Z</time>
      </trkpt>
      <trkpt lat="45.80817" lon="5.72207">
        <ele>420.717267757</ele>
        <time>2015-10-11T13:25:09Z</time>
      </trkpt>
      <trkpt lat="45.80821" lon="5.72184">
        <ele>421.46453015712</ele>
        <time>2015-10-11T13:25:19Z</time>
      </trkpt>
      <trkpt lat="45.80822" lon="5.72171">
        <ele>422.21179255725</ele>
        <time>2015-10-11T13:25:24Z</time>
      </trkpt>
      <trkpt lat="45.80837" lon="5.72154">
        <ele>422.95905495738</ele>
        <time>2015-10-11T13:25:34Z</time>
      </trkpt>
      <trkpt lat="45.80845" lon="5.72146">
        <ele>425.97767811572</ele>
        <time>2015-10-11T13:25:39Z</time>
      </trkpt>
      <trkpt lat="45.80863" lon="5.72134">
        <ele>428.3412483511</ele>
        <time>2015-10-11T13:25:49Z</time>
      </trkpt>
      <trkpt lat="45.80872" lon="5.72129">
        <ele>430.78912369269</ele>
        <time>2015-10-11T13:25:54Z</time>
      </trkpt>
      <trkpt lat="45.80892" lon="5.7212">
        <ele>433.22101291565</ele>
        <time>2015-10-11T13:26:04Z</time>
      </trkpt>
      <trkpt lat="45.80902" lon="5.72117">
        <ele>436.09762453685</ele>
        <time>2015-10-11T13:26:09Z</time>
      </trkpt>
      <trkpt lat="45.80916" lon="5.72113">
        <ele>438.43962904038</ele>
        <time>2015-10-11T13:26:19Z</time>
      </trkpt>
      <trkpt lat="45.80927" lon="5.72111">
        <ele>441.14958597668</ele>
        <time>2015-10-11T13:26:24Z</time>
      </trkpt>
      <trkpt lat="45.80949" lon="5.72108">
        <ele>443.46737479707</ele>
        <time>2015-10-11T13:26:39Z</time>
      </trkpt>
      <trkpt lat="45.80957" lon="5.72105">
        <ele>443.46737479707</ele>
        <time>2015-10-11T13:26:44Z</time>
      </trkpt>
      <trkpt lat="45.80971" lon="5.72101">
        <ele>444.37274500649</ele>
        <time>2015-10-11T13:26:54Z</time>
      </trkpt>
      <trkpt lat="45.80978" lon="5.72098">
        <ele>444.37274500649</ele>
        <time>2015-10-11T13:26:59Z</time>
      </trkpt>
      <trkpt lat="45.80985" lon="5.7209">
        <ele>443.55408797732</ele>
        <time>2015-10-11T13:27:09Z</time>
      </trkpt>
      <trkpt lat="45.80991" lon="5.72092">
        <ele>443.55408797732</ele>
        <time>2015-10-11T13:27:14Z</time>
      </trkpt>
      <trkpt lat="45.80999" lon="5.7209">
        <ele>443.87835132363</ele>
        <time>2015-10-11T13:27:24Z</time>
      </trkpt>
      <trkpt lat="45.81" lon="5.72089">
        <ele>443.87835132363</ele>
        <time>2015-10-11T13:27:29Z</time>
      </trkpt>
      <trkpt lat="45.81011" lon="5.72088">
        <ele>444.06677730225</ele>
        <time>2015-10-11T13:27:39Z</time>
      </trkpt>
      <trkpt lat="45.81019" lon="5.72089">
        <ele>444.06677730225</ele>
        <time>2015-10-11T13:27:44Z</time>
      </trkpt>
      <trkpt lat="45.81033" lon="5.72092">
        <ele>444.17688930055</ele>
        <time>2015-10-11T13:27:54Z</time>
      </trkpt>
      <trkpt lat="45.81038" lon="5.7209">
        <ele>444.17688930055</ele>
        <time>2015-10-11T13:27:59Z</time>
      </trkpt>
      <trkpt lat="45.81043" lon="5.72081">
        <ele>445.27019117289</ele>
        <time>2015-10-11T13:28:09Z</time>
      </trkpt>
      <trkpt lat="45.81045" lon="5.72078">
        <ele>445.27019117289</ele>
        <time>2015-10-11T13:28:14Z</time>
      </trkpt>
      <trkpt lat="45.81045" lon="5.72074">
        <ele>445.27019117289</ele>
        <time>2015-10-11T13:28:29Z</time>
      </trkpt>
      <trkpt lat="45.81046" lon="5.72068">
        <ele>447.40025741244</ele>
        <time>2015-10-11T13:28:34Z</time>
      </trkpt>
      <trkpt lat="45.81045" lon="5.72058">
        <ele>447.40025741244</ele>
        <time>2015-10-11T13:28:44Z</time>
      </trkpt>
      <trkpt lat="45.81045" lon="5.72057">
        <ele>447.40025741244</ele>
        <time>2015-10-11T13:28:49Z</time>
      </trkpt>
      <trkpt lat="45.81028" lon="5.72033">
        <ele>444.55490807982</ele>
        <time>2015-10-11T13:28:59Z</time>
      </trkpt>
      <trkpt lat="45.81017" lon="5.72025">
        <ele>440.23127826663</ele>
        <time>2015-10-11T13:29:04Z</time>
      </trkpt>
      <trkpt lat="45.80998" lon="5.72006">
        <ele>434.41264083438</ele>
        <time>2015-10-11T13:29:14Z</time>
      </trkpt>
      <trkpt lat="45.80995" lon="5.71995">
        <ele>434.41264083438</ele>
        <time>2015-10-11T13:29:19Z</time>
      </trkpt>
      <trkpt lat="45.81006" lon="5.71972">
        <ele>430.03095281677</ele>
        <time>2015-10-11T13:29:29Z</time>
      </trkpt>
      <trkpt lat="45.81016" lon="5.71967">
        <ele>425.94608667417</ele>
        <time>2015-10-11T13:29:34Z</time>
      </trkpt>
      <trkpt lat="45.81038" lon="5.71957">
        <ele>422.03223526205</ele>
        <time>2015-10-11T13:29:44Z</time>
      </trkpt>
      <trkpt lat="45.81048" lon="5.71952">
        <ele>418.50545617134</ele>
        <time>2015-10-11T13:29:49Z</time>
      </trkpt>
      <trkpt lat="45.81066" lon="5.71944">
        <ele>414.63937258676</ele>
        <time>2015-10-11T13:29:59Z</time>
      </trkpt>
      <trkpt lat="45.81074" lon="5.71945">
        <ele>414.63937258676</ele>
        <time>2015-10-11T13:30:04Z</time>
      </trkpt>
      <trkpt lat="45.81086" lon="5.71949">
        <ele>409.4747149348</ele>
        <time>2015-10-11T13:30:14Z</time>
      </trkpt>
      <trkpt lat="45.81089" lon="5.71952">
        <ele>409.4747149348</ele>
        <time>2015-10-11T13:30:19Z</time>
      </trkpt>
      <trkpt lat="45.81105" lon="5.7196">
        <ele>403.16707260019</ele>
        <time>2015-10-11T13:30:34Z</time>
      </trkpt>
      <trkpt lat="45.81112" lon="5.71963">
        <ele>403.16707260019</ele>
        <time>2015-10-11T13:30:39Z</time>
      </trkpt>
      <trkpt lat="45.81128" lon="5.71963">
        <ele>397.85419076872</ele>
        <time>2015-10-11T13:30:49Z</time>
      </trkpt>
      <trkpt lat="45.81137" lon="5.71957">
        <ele>393.10184253263</ele>
        <time>2015-10-11T13:30:54Z</time>
      </trkpt>
      <trkpt lat="45.81143" lon="5.7195">
        <ele>393.10184253263</ele>
        <time>2015-10-11T13:31:04Z</time>
      </trkpt>
      <trkpt lat="45.8115" lon="5.71948">
        <ele>390.74209016396</ele>
        <time>2015-10-11T13:31:09Z</time>
      </trkpt>
      <trkpt lat="45.81162" lon="5.71945">
        <ele>388.83055472911</ele>
        <time>2015-10-11T13:31:19Z</time>
      </trkpt>
      <trkpt lat="45.81163" lon="5.71946">
        <ele>388.83055472911</ele>
        <time>2015-10-11T13:31:24Z</time>
      </trkpt>
      <trkpt lat="45.81169" lon="5.71941">
        <ele>388.83055472911</ele>
        <time>2015-10-11T13:31:34Z</time>
      </trkpt>
      <trkpt lat="45.81176" lon="5.71939">
        <ele>387.25246243469</ele>
        <time>2015-10-11T13:31:39Z</time>
      </trkpt>
      <trkpt lat="45.81193" lon="5.71936">
        <ele>386.92395501735</ele>
        <time>2015-10-11T13:31:49Z</time>
      </trkpt>
      <trkpt lat="45.81203" lon="5.71935">
        <ele>387.29145047306</ele>
        <time>2015-10-11T13:31:54Z</time>
      </trkpt>
      <trkpt lat="45.81219" lon="5.71928">
        <ele>388.09941303975</ele>
        <time>2015-10-11T13:32:09Z</time>
      </trkpt>
      <trkpt lat="45.81222" lon="5.71927">
        <ele>388.09941303975</ele>
        <time>2015-10-11T13:32:14Z</time>
      </trkpt>
      <trkpt lat="45.81228" lon="5.71923">
        <ele>389.5132679239</ele>
        <time>2015-10-11T13:32:24Z</time>
      </trkpt>
      <trkpt lat="45.81235" lon="5.71923">
        <ele>389.5132679239</ele>
        <time>2015-10-11T13:32:29Z</time>
      </trkpt>
      <trkpt lat="45.81249" lon="5.71922">
        <ele>390.55968081604</ele>
        <time>2015-10-11T13:32:39Z</time>
      </trkpt>
      <trkpt lat="45.81257" lon="5.7192">
        <ele>390.55968081604</ele>
        <time>2015-10-11T13:32:44Z</time>
      </trkpt>
      <trkpt lat="45.81277" lon="5.71925">
        <ele>390.94309939876</ele>
        <time>2015-10-11T13:32:54Z</time>
      </trkpt>
      <trkpt lat="45.81285" lon="5.71925">
        <ele>390.94309939876</ele>
        <time>2015-10-11T13:32:59Z</time>
      </trkpt>
      <trkpt lat="45.81298" lon="5.71928">
        <ele>391.38627298608</ele>
        <time>2015-10-11T13:33:09Z</time>
      </trkpt>
      <trkpt lat="45.81304" lon="5.7193">
        <ele>391.38627298608</ele>
        <time>2015-10-11T13:33:14Z</time>
      </trkpt>
      <trkpt lat="45.81318" lon="5.71933">
        <ele>391.40493010385</ele>
        <time>2015-10-11T13:33:24Z</time>
      </trkpt>
      <trkpt lat="45.81324" lon="5.71933">
        <ele>391.40493010385</ele>
        <time>2015-10-11T13:33:29Z</time>
      </trkpt>
      <trkpt lat="45.81337" lon="5.71936">
        <ele>391.67625957031</ele>
        <time>2015-10-11T13:33:39Z</time>
      </trkpt>
      <trkpt lat="45.8134" lon="5.71937">
        <ele>391.67625957031</ele>
        <time>2015-10-11T13:33:44Z</time>
      </trkpt>
      <trkpt lat="45.81342" lon="5.71934">
        <ele>391.67625957031</ele>
        <time>2015-10-11T13:33:54Z</time>
      </trkpt>
      <trkpt lat="45.81343" lon="5.71934">
        <ele>391.67625957031</ele>
        <time>2015-10-11T13:33:59Z</time>
      </trkpt>
      <trkpt lat="45.81344" lon="5.71933">
        <ele>391.67625957031</ele>
        <time>2015-10-11T13:34:09Z</time>
      </trkpt>
      <trkpt lat="45.81348" lon="5.71932">
        <ele>392.20678843341</ele>
        <time>2015-10-11T13:34:14Z</time>
      </trkpt>
      <trkpt lat="45.81356" lon="5.71928">
        <ele>392.20678843341</ele>
        <time>2015-10-11T13:34:24Z</time>
      </trkpt>
      <trkpt lat="45.81358" lon="5.71925">
        <ele>393.00173220008</ele>
        <time>2015-10-11T13:34:29Z</time>
      </trkpt>
      <trkpt lat="45.81357" lon="5.71928">
        <ele>393.00173220008</ele>
        <time>2015-10-11T13:34:39Z</time>
      </trkpt>
      <trkpt lat="45.81357" lon="5.71928">
        <ele>393.00173220008</ele>
        <time>2015-10-11T13:34:44Z</time>
      </trkpt>
      <trkpt lat="45.81357" lon="5.71927">
        <ele>393.00173220008</ele>
        <time>2015-10-11T13:34:59Z</time>
      </trkpt>
      <trkpt lat="45.81358" lon="5.71926">
        <ele>393.00173220008</ele>
        <time>2015-10-11T13:35:04Z</time>
      </trkpt>
      <trkpt lat="45.81366" lon="5.71915">
        <ele>393.56026728051</ele>
        <time>2015-10-11T13:35:14Z</time>
      </trkpt>
      <trkpt lat="45.81373" lon="5.71913">
        <ele>393.56026728051</ele>
        <time>2015-10-11T13:35:19Z</time>
      </trkpt>
      <trkpt lat="45.81382" lon="5.71909">
        <ele>393.96706851001</ele>
        <time>2015-10-11T13:35:29Z</time>
      </trkpt>
      <trkpt lat="45.81389" lon="5.71906">
        <ele>393.96706851001</ele>
        <time>2015-10-11T13:35:34Z</time>
      </trkpt>
      <trkpt lat="45.81402" lon="5.71905">
        <ele>394.95009069501</ele>
        <time>2015-10-11T13:35:44Z</time>
      </trkpt>
      <trkpt lat="45.81405" lon="5.71904">
        <ele>394.95009069501</ele>
        <time>2015-10-11T13:35:49Z</time>
      </trkpt>
      <trkpt lat="45.81412" lon="5.719">
        <ele>395.4800760313</ele>
        <time>2015-10-11T13:35:59Z</time>
      </trkpt>
      <trkpt lat="45.81423" lon="5.71897">
        <ele>396.24909074445</ele>
        <time>2015-10-11T13:36:04Z</time>
      </trkpt>
      <trkpt lat="45.81438" lon="5.71889">
        <ele>397.72456586847</ele>
        <time>2015-10-11T13:36:14Z</time>
      </trkpt>
      <trkpt lat="45.81446" lon="5.71886">
        <ele>397.72456586847</ele>
        <time>2015-10-11T13:36:19Z</time>
      </trkpt>
      <trkpt lat="45.81461" lon="5.71872">
        <ele>399.38560539517</ele>
        <time>2015-10-11T13:36:34Z</time>
      </trkpt>
      <trkpt lat="45.81467" lon="5.71871">
        <ele>399.38560539517</ele>
        <time>2015-10-11T13:36:39Z</time>
      </trkpt>
      <trkpt lat="45.81475" lon="5.71869">
        <ele>401.1530365822</ele>
        <time>2015-10-11T13:36:49Z</time>
      </trkpt>
      <trkpt lat="45.81477" lon="5.71868">
        <ele>401.1530365822</ele>
        <time>2015-10-11T13:36:54Z</time>
      </trkpt>
      <trkpt lat="45.81494" lon="5.71854">
        <ele>402.27541466901</ele>
        <time>2015-10-11T13:37:04Z</time>
      </trkpt>
      <trkpt lat="45.81499" lon="5.71848">
        <ele>402.27541466901</ele>
        <time>2015-10-11T13:37:09Z</time>
      </trkpt>
      <trkpt lat="45.81512" lon="5.71837">
        <ele>403.51520540151</ele>
        <time>2015-10-11T13:37:19Z</time>
      </trkpt>
      <trkpt lat="45.8152" lon="5.71834">
        <ele>403.51520540151</ele>
        <time>2015-10-11T13:37:24Z</time>
      </trkpt>
      <trkpt lat="45.8153" lon="5.71828">
        <ele>404.95836065148</ele>
        <time>2015-10-11T13:37:34Z</time>
      </trkpt>
      <trkpt lat="45.81533" lon="5.71824">
        <ele>404.95836065148</ele>
        <time>2015-10-11T13:37:39Z</time>
      </trkpt>
      <trkpt lat="45.81545" lon="5.71812">
        <ele>406.25141521789</ele>
        <time>2015-10-11T13:37:49Z</time>
      </trkpt>
      <trkpt lat="45.81549" lon="5.71804">
        <ele>406.25141521789</ele>
        <time>2015-10-11T13:37:54Z</time>
      </trkpt>
      <trkpt lat="45.81563" lon="5.7179">
        <ele>407.65872769712</ele>
        <time>2015-10-11T13:38:09Z</time>
      </trkpt>
      <trkpt lat="45.81569" lon="5.71787">
        <ele>407.65872769712</ele>
        <time>2015-10-11T13:38:14Z</time>
      </trkpt>
      <trkpt lat="45.81575" lon="5.71775">
        <ele>409.29522067079</ele>
        <time>2015-10-11T13:38:24Z</time>
      </trkpt>
      <trkpt lat="45.81581" lon="5.71769">
        <ele>409.29522067079</ele>
        <time>2015-10-11T13:38:29Z</time>
      </trkpt>
      <trkpt lat="45.81587" lon="5.71764">
        <ele>411.23801621078</ele>
        <time>2015-10-11T13:38:39Z</time>
      </trkpt>
      <trkpt lat="45.8159" lon="5.71761">
        <ele>411.23801621078</ele>
        <time>2015-10-11T13:38:44Z</time>
      </trkpt>
      <trkpt lat="45.81592" lon="5.71758">
        <ele>411.23801621078</ele>
        <time>2015-10-11T13:38:54Z</time>
      </trkpt>
      <trkpt lat="45.81593" lon="5.71755">
        <ele>411.23801621078</ele>
        <time>2015-10-11T13:38:59Z</time>
      </trkpt>
      <trkpt lat="45.81595" lon="5.71738">
        <ele>412.15929838929</ele>
        <time>2015-10-11T13:39:09Z</time>
      </trkpt>
      <trkpt lat="45.81593" lon="5.71731">
        <ele>412.15929838929</ele>
        <time>2015-10-11T13:39:14Z</time>
      </trkpt>
      <trkpt lat="45.81594" lon="5.71711">
        <ele>412.50450652143</ele>
        <time>2015-10-11T13:39:24Z</time>
      </trkpt>
      <trkpt lat="45.81594" lon="5.71703">
        <ele>412.50450652143</ele>
        <time>2015-10-11T13:39:29Z</time>
      </trkpt>
      <trkpt lat="45.81595" lon="5.71692">
        <ele>412.91870728992</ele>
        <time>2015-10-11T13:39:39Z</time>
      </trkpt>
      <trkpt lat="45.81597" lon="5.71691">
        <ele>412.91870728992</ele>
        <time>2015-10-11T13:39:44Z</time>
      </trkpt>
      <trkpt lat="45.81598" lon="5.7169">
        <ele>412.91870728992</ele>
        <time>2015-10-11T13:39:54Z</time>
      </trkpt>
      <trkpt lat="45.81598" lon="5.7169">
        <ele>412.91870728992</ele>
        <time>2015-10-11T13:39:59Z</time>
      </trkpt>
      <trkpt lat="45.81615" lon="5.7168">
        <ele>413.68227242457</ele>
        <time>2015-10-11T13:40:14Z</time>
      </trkpt>
      <trkpt lat="45.81628" lon="5.71674">
        <ele>415.0252803381</ele>
        <time>2015-10-11T13:40:19Z</time>
      </trkpt>
      <trkpt lat="45.81643" lon="5.71671">
        <ele>417.07292368977</ele>
        <time>2015-10-11T13:40:29Z</time>
      </trkpt>
      <trkpt lat="45.81647" lon="5.71668">
        <ele>417.07292368977</ele>
        <time>2015-10-11T13:40:34Z</time>
      </trkpt>
      <trkpt lat="45.81655" lon="5.7166">
        <ele>418.77182221676</ele>
        <time>2015-10-11T13:40:44Z</time>
      </trkpt>
      <trkpt lat="45.81659" lon="5.71656">
        <ele>418.77182221676</ele>
        <time>2015-10-11T13:40:49Z</time>
      </trkpt>
      <trkpt lat="45.81671" lon="5.7165">
        <ele>420.55982016045</ele>
        <time>2015-10-11T13:40:59Z</time>
      </trkpt>
      <trkpt lat="45.81678" lon="5.71648">
        <ele>420.55982016045</ele>
        <time>2015-10-11T13:41:04Z</time>
      </trkpt>
      <trkpt lat="45.81693" lon="5.7165">
        <ele>422.85687887518</ele>
        <time>2015-10-11T13:41:14Z</time>
      </trkpt>
      <trkpt lat="45.81702" lon="5.71652">
        <ele>422.85687887518</ele>
        <time>2015-10-11T13:41:19Z</time>
      </trkpt>
      <trkpt lat="45.81714" lon="5.71647">
        <ele>424.45098279547</ele>
        <time>2015-10-11T13:41:29Z</time>
      </trkpt>
      <trkpt lat="45.81716" lon="5.71644">
        <ele>424.45098279547</ele>
        <time>2015-10-11T13:41:34Z</time>
      </trkpt>
      <trkpt lat="45.81724" lon="5.71638">
        <ele>425.10058801665</ele>
        <time>2015-10-11T13:41:44Z</time>
      </trkpt>
      <trkpt lat="45.81733" lon="5.71636">
        <ele>425.10058801665</ele>
        <time>2015-10-11T13:41:49Z</time>
      </trkpt>
      <trkpt lat="45.81742" lon="5.71635">
        <ele>426.28538617792</ele>
        <time>2015-10-11T13:41:59Z</time>
      </trkpt>
      <trkpt lat="45.81745" lon="5.71634">
        <ele>426.28538617792</ele>
        <time>2015-10-11T13:42:04Z</time>
      </trkpt>
      <trkpt lat="45.8176" lon="5.71642">
        <ele>426.83841955546</ele>
        <time>2015-10-11T13:42:19Z</time>
      </trkpt>
      <trkpt lat="45.81764" lon="5.71641">
        <ele>426.83841955546</ele>
        <time>2015-10-11T13:42:24Z</time>
      </trkpt>
      <trkpt lat="45.81778" lon="5.71631">
        <ele>426.40106178794</ele>
        <time>2015-10-11T13:42:34Z</time>
      </trkpt>
      <trkpt lat="45.81785" lon="5.71627">
        <ele>426.40106178794</ele>
        <time>2015-10-11T13:42:39Z</time>
      </trkpt>
      <trkpt lat="45.81798" lon="5.71619">
        <ele>425.36456326417</ele>
        <time>2015-10-11T13:42:49Z</time>
      </trkpt>
      <trkpt lat="45.81804" lon="5.71614">
        <ele>425.36456326417</ele>
        <time>2015-10-11T13:42:54Z</time>
      </trkpt>
      <trkpt lat="45.81813" lon="5.71603">
        <ele>423.63206761955</ele>
        <time>2015-10-11T13:43:04Z</time>
      </trkpt>
      <trkpt lat="45.81815" lon="5.716">
        <ele>423.63206761955</ele>
        <time>2015-10-11T13:43:09Z</time>
      </trkpt>
      <trkpt lat="45.81825" lon="5.71592">
        <ele>422.18235760892</ele>
        <time>2015-10-11T13:43:19Z</time>
      </trkpt>
      <trkpt lat="45.81829" lon="5.71588">
        <ele>422.18235760892</ele>
        <time>2015-10-11T13:43:24Z</time>
      </trkpt>
      <trkpt lat="45.81837" lon="5.71577">
        <ele>420.30753063864</ele>
        <time>2015-10-11T13:43:34Z</time>
      </trkpt>
      <trkpt lat="45.81841" lon="5.71572">
        <ele>420.30753063864</ele>
        <time>2015-10-11T13:43:39Z</time>
      </trkpt>
      <trkpt lat="45.8185" lon="5.71552">
        <ele>417.61237594347</ele>
        <time>2015-10-11T13:43:54Z</time>
      </trkpt>
      <trkpt lat="45.81857" lon="5.71545">
        <ele>417.61237594347</ele>
        <time>2015-10-11T13:43:59Z</time>
      </trkpt>
      <trkpt lat="45.8187" lon="5.71533">
        <ele>415.18861195368</ele>
        <time>2015-10-11T13:44:09Z</time>
      </trkpt>
      <trkpt lat="45.81876" lon="5.71525">
        <ele>415.18861195368</ele>
        <time>2015-10-11T13:44:14Z</time>
      </trkpt>
      <trkpt lat="45.81887" lon="5.71513">
        <ele>413.1102900149</ele>
        <time>2015-10-11T13:44:24Z</time>
      </trkpt>
      <trkpt lat="45.81891" lon="5.71506">
        <ele>413.1102900149</ele>
        <time>2015-10-11T13:44:29Z</time>
      </trkpt>
      <trkpt lat="45.81897" lon="5.71503">
        <ele>411.57476413201</ele>
        <time>2015-10-11T13:44:39Z</time>
      </trkpt>
      <trkpt lat="45.81898" lon="5.71502">
        <ele>411.57476413201</ele>
        <time>2015-10-11T13:44:44Z</time>
      </trkpt>
      <trkpt lat="45.81905" lon="5.71489">
        <ele>409.88427081278</ele>
        <time>2015-10-11T13:44:54Z</time>
      </trkpt>
      <trkpt lat="45.81911" lon="5.71482">
        <ele>409.88427081278</ele>
        <time>2015-10-11T13:44:59Z</time>
      </trkpt>
      <trkpt lat="45.81924" lon="5.71478">
        <ele>408.41590966252</ele>
        <time>2015-10-11T13:45:09Z</time>
      </trkpt>
      <trkpt lat="45.81925" lon="5.71479">
        <ele>408.41590966252</ele>
        <time>2015-10-11T13:45:14Z</time>
      </trkpt>
      <trkpt lat="45.81924" lon="5.71479">
        <ele>408.41590966252</ele>
        <time>2015-10-11T13:45:24Z</time>
      </trkpt>
      <trkpt lat="45.81923" lon="5.7148">
        <ele>408.41590966252</ele>
        <time>2015-10-11T13:45:29Z</time>
      </trkpt>
      <trkpt lat="45.81902" lon="5.71492">
        <ele>407.21577741887</ele>
        <time>2015-10-11T13:45:44Z</time>
      </trkpt>
      <trkpt lat="45.81893" lon="5.71497">
        <ele>406.00873018971</ele>
        <time>2015-10-11T13:45:49Z</time>
      </trkpt>
      <trkpt lat="45.81887" lon="5.71497">
        <ele>406.00873018971</ele>
        <time>2015-10-11T13:45:59Z</time>
      </trkpt>
      <trkpt lat="45.81883" lon="5.71497">
        <ele>404.9144867296</ele>
        <time>2015-10-11T13:46:04Z</time>
      </trkpt>
      <trkpt lat="45.81881" lon="5.7149">
        <ele>404.9144867296</ele>
        <time>2015-10-11T13:46:14Z</time>
      </trkpt>
      <trkpt lat="45.8188" lon="5.71487">
        <ele>404.9144867296</ele>
        <time>2015-10-11T13:46:19Z</time>
      </trkpt>
      <trkpt lat="45.81876" lon="5.71471">
        <ele>403.71212412095</ele>
        <time>2015-10-11T13:46:29Z</time>
      </trkpt>
      <trkpt lat="45.81874" lon="5.71463">
        <ele>403.71212412095</ele>
        <time>2015-10-11T13:46:34Z</time>
      </trkpt>
      <trkpt lat="45.8187" lon="5.71452">
        <ele>403.23479657845</ele>
        <time>2015-10-11T13:46:44Z</time>
      </trkpt>
      <trkpt lat="45.8187" lon="5.7145">
        <ele>403.23479657845</ele>
        <time>2015-10-11T13:46:49Z</time>
      </trkpt>
      <trkpt lat="45.81874" lon="5.7146">
        <ele>403.23479657845</ele>
        <time>2015-10-11T13:46:59Z</time>
      </trkpt>
      <trkpt lat="45.81877" lon="5.71465">
        <ele>401.65828902633</ele>
        <time>2015-10-11T13:47:04Z</time>
      </trkpt>
      <trkpt lat="45.81882" lon="5.71473">
        <ele>401.65828902633</ele>
        <time>2015-10-11T13:47:14Z</time>
      </trkpt>
      <trkpt lat="45.81884" lon="5.71471">
        <ele>400.39384534058</ele>
        <time>2015-10-11T13:47:19Z</time>
      </trkpt>
      <trkpt lat="45.81888" lon="5.71463">
        <ele>400.39384534058</ele>
        <time>2015-10-11T13:47:29Z</time>
      </trkpt>
      <trkpt lat="45.81891" lon="5.71458">
        <ele>398.86017976373</ele>
        <time>2015-10-11T13:47:34Z</time>
      </trkpt>
      <trkpt lat="45.81902" lon="5.71445">
        <ele>397.70110963455</ele>
        <time>2015-10-11T13:47:44Z</time>
      </trkpt>
      <trkpt lat="45.81905" lon="5.71445">
        <ele>397.70110963455</ele>
        <time>2015-10-11T13:47:49Z</time>
      </trkpt>
      <trkpt lat="45.81907" lon="5.71434">
        <ele>396.67614482271</ele>
        <time>2015-10-11T13:47:59Z</time>
      </trkpt>
      <trkpt lat="45.81904" lon="5.71424">
        <ele>396.67614482271</ele>
        <time>2015-10-11T13:48:04Z</time>
      </trkpt>
      <trkpt lat="45.8189" lon="5.71401">
        <ele>395.59080822618</ele>
        <time>2015-10-11T13:48:19Z</time>
      </trkpt>
      <trkpt lat="45.81886" lon="5.71396">
        <ele>395.59080822618</ele>
        <time>2015-10-11T13:48:24Z</time>
      </trkpt>
      <trkpt lat="45.81876" lon="5.71376">
        <ele>394.63967580245</ele>
        <time>2015-10-11T13:48:34Z</time>
      </trkpt>
      <trkpt lat="45.81871" lon="5.71369">
        <ele>394.63967580245</ele>
        <time>2015-10-11T13:48:39Z</time>
      </trkpt>
      <trkpt lat="45.81863" lon="5.71352">
        <ele>394.98253453112</ele>
        <time>2015-10-11T13:48:49Z</time>
      </trkpt>
      <trkpt lat="45.8186" lon="5.71345">
        <ele>394.98253453112</ele>
        <time>2015-10-11T13:48:54Z</time>
      </trkpt>
      <trkpt lat="45.81852" lon="5.71332">
        <ele>395.28352848051</ele>
        <time>2015-10-11T13:49:04Z</time>
      </trkpt>
      <trkpt lat="45.81846" lon="5.71324">
        <ele>395.28352848051</ele>
        <time>2015-10-11T13:49:09Z</time>
      </trkpt>
      <trkpt lat="45.81833" lon="5.71314">
        <ele>395.63082128301</ele>
        <time>2015-10-11T13:49:19Z</time>
      </trkpt>
      <trkpt lat="45.81827" lon="5.71313">
        <ele>395.63082128301</ele>
        <time>2015-10-11T13:49:24Z</time>
      </trkpt>
      <trkpt lat="45.8181" lon="5.71314">
        <ele>396.40853243326</ele>
        <time>2015-10-11T13:49:34Z</time>
      </trkpt>
      <trkpt lat="45.81804" lon="5.71318">
        <ele>396.40853243326</ele>
        <time>2015-10-11T13:49:39Z</time>
      </trkpt>
      <trkpt lat="45.81796" lon="5.71322">
        <ele>397.92805575994</ele>
        <time>2015-10-11T13:49:49Z</time>
      </trkpt>
      <trkpt lat="45.81791" lon="5.71324">
        <ele>397.92805575994</ele>
        <time>2015-10-11T13:49:54Z</time>
      </trkpt>
      <trkpt lat="45.81785" lon="5.71335">
        <ele>399.49580054739</ele>
        <time>2015-10-11T13:50:04Z</time>
      </trkpt>
      <trkpt lat="45.81784" lon="5.71338">
        <ele>399.49580054739</ele>
        <time>2015-10-11T13:50:09Z</time>
      </trkpt>
      <trkpt lat="45.8179" lon="5.71326">
        <ele>401.14629724885</ele>
        <time>2015-10-11T13:50:24Z</time>
      </trkpt>
      <trkpt lat="45.81795" lon="5.71321">
        <ele>401.14629724885</ele>
        <time>2015-10-11T13:50:29Z</time>
      </trkpt>
      <trkpt lat="45.81802" lon="5.71314">
        <ele>402.36365745299</ele>
        <time>2015-10-11T13:50:39Z</time>
      </trkpt>
      <trkpt lat="45.81806" lon="5.71311">
        <ele>402.36365745299</ele>
        <time>2015-10-11T13:50:44Z</time>
      </trkpt>
      <trkpt lat="45.81816" lon="5.71306">
        <ele>403.06021231454</ele>
        <time>2015-10-11T13:50:54Z</time>
      </trkpt>
      <trkpt lat="45.81821" lon="5.71308">
        <ele>403.06021231454</ele>
        <time>2015-10-11T13:50:59Z</time>
      </trkpt>
      <trkpt lat="45.81836" lon="5.71313">
        <ele>403.54531081204</ele>
        <time>2015-10-11T13:51:09Z</time>
      </trkpt>
      <trkpt lat="45.81842" lon="5.71318">
        <ele>403.54531081204</ele>
        <time>2015-10-11T13:51:14Z</time>
      </trkpt>
      <trkpt lat="45.81856" lon="5.71336">
        <ele>403.76031555994</ele>
        <time>2015-10-11T13:51:24Z</time>
      </trkpt>
      <trkpt lat="45.81861" lon="5.71344">
        <ele>403.76031555994</ele>
        <time>2015-10-11T13:51:29Z</time>
      </trkpt>
      <trkpt lat="45.81872" lon="5.71357">
        <ele>403.86784810613</ele>
        <time>2015-10-11T13:51:39Z</time>
      </trkpt>
      <trkpt lat="45.81876" lon="5.71361">
        <ele>403.86784810613</ele>
        <time>2015-10-11T13:51:44Z</time>
      </trkpt>
      <trkpt lat="45.81888" lon="5.71377">
        <ele>403.37040276588</ele>
        <time>2015-10-11T13:51:54Z</time>
      </trkpt>
      <trkpt lat="45.81897" lon="5.71385">
        <ele>402.39960686583</ele>
        <time>2015-10-11T13:51:59Z</time>
      </trkpt>
      <trkpt lat="45.81908" lon="5.71407">
        <ele>401.56874973397</ele>
        <time>2015-10-11T13:52:09Z</time>
      </trkpt>
      <trkpt lat="45.8191" lon="5.71415">
        <ele>401.56874973397</ele>
        <time>2015-10-11T13:52:14Z</time>
      </trkpt>
      <trkpt lat="45.81909" lon="5.71419">
        <ele>401.56874973397</ele>
        <time>2015-10-11T13:52:24Z</time>
      </trkpt>
      <trkpt lat="45.8191" lon="5.7142">
        <ele>401.21511129138</ele>
        <time>2015-10-11T13:52:29Z</time>
      </trkpt>
      <trkpt lat="45.8191" lon="5.7142">
        <ele>401.21511129138</ele>
        <time>2015-10-11T13:52:39Z</time>
      </trkpt>
      <trkpt lat="45.8191" lon="5.71421">
        <ele>401.21511129138</ele>
        <time>2015-10-11T13:52:44Z</time>
      </trkpt>
      <trkpt lat="45.81915" lon="5.71416">
        <ele>401.21511129138</ele>
        <time>2015-10-11T13:52:54Z</time>
      </trkpt>
      <trkpt lat="45.81916" lon="5.7141">
        <ele>401.01577476086</ele>
        <time>2015-10-11T13:52:59Z</time>
      </trkpt>
      <trkpt lat="45.81917" lon="5.71377">
        <ele>400.67112266805</ele>
        <time>2015-10-11T13:53:14Z</time>
      </trkpt>
      <trkpt lat="45.81917" lon="5.71369">
        <ele>400.67112266805</ele>
        <time>2015-10-11T13:53:19Z</time>
      </trkpt>
      <trkpt lat="45.81911" lon="5.7135">
        <ele>400.30747645335</ele>
        <time>2015-10-11T13:53:29Z</time>
      </trkpt>
      <trkpt lat="45.8191" lon="5.71342">
        <ele>400.30747645335</ele>
        <time>2015-10-11T13:53:34Z</time>
      </trkpt>
      <trkpt lat="45.81909" lon="5.71328">
        <ele>399.86900252847</ele>
        <time>2015-10-11T13:53:44Z</time>
      </trkpt>
      <trkpt lat="45.81908" lon="5.7132">
        <ele>399.86900252847</ele>
        <time>2015-10-11T13:53:49Z</time>
      </trkpt>
      <trkpt lat="45.81909" lon="5.71305">
        <ele>399.24653794491</ele>
        <time>2015-10-11T13:53:59Z</time>
      </trkpt>
      <trkpt lat="45.81911" lon="5.71295">
        <ele>399.24653794491</ele>
        <time>2015-10-11T13:54:04Z</time>
      </trkpt>
      <trkpt lat="45.81914" lon="5.71289">
        <ele>398.62767952613</ele>
        <time>2015-10-11T13:54:14Z</time>
      </trkpt>
      <trkpt lat="45.81915" lon="5.71288">
        <ele>398.62767952613</ele>
        <time>2015-10-11T13:54:19Z</time>
      </trkpt>
      <trkpt lat="45.81923" lon="5.71299">
        <ele>397.79712987546</ele>
        <time>2015-10-11T13:54:29Z</time>
      </trkpt>
      <trkpt lat="45.8193" lon="5.71304">
        <ele>397.79712987546</ele>
        <time>2015-10-11T13:54:34Z</time>
      </trkpt>
      <trkpt lat="45.81943" lon="5.71312">
        <ele>397.16126403902</ele>
        <time>2015-10-11T13:54:44Z</time>
      </trkpt>
      <trkpt lat="45.81952" lon="5.71316">
        <ele>396.70694907464</ele>
        <time>2015-10-11T13:54:49Z</time>
      </trkpt>
      <trkpt lat="45.81972" lon="5.71318">
        <ele>396.21974047886</ele>
        <time>2015-10-11T13:55:04Z</time>
      </trkpt>
      <trkpt lat="45.81976" lon="5.7132">
        <ele>396.21974047886</ele>
        <time>2015-10-11T13:55:09Z</time>
      </trkpt>
      <trkpt lat="45.81977" lon="5.71319">
        <ele>396.21974047886</ele>
        <time>2015-10-11T13:55:19Z</time>
      </trkpt>
      <trkpt lat="45.81978" lon="5.71319">
        <ele>396.21974047886</ele>
        <time>2015-10-11T13:55:24Z</time>
      </trkpt>
      <trkpt lat="45.81978" lon="5.71318">
        <ele>396.21974047886</ele>
        <time>2015-10-11T13:55:34Z</time>
      </trkpt>
      <trkpt lat="45.81978" lon="5.71318">
        <ele>396.21974047886</ele>
        <time>2015-10-11T13:55:39Z</time>
      </trkpt>
      <trkpt lat="45.81983" lon="5.71314">
        <ele>395.73160394869</ele>
        <time>2015-10-11T13:55:49Z</time>
      </trkpt>
      <trkpt lat="45.81984" lon="5.71314">
        <ele>395.73160394869</ele>
        <time>2015-10-11T13:55:54Z</time>
      </trkpt>
      <trkpt lat="45.8198" lon="5.71315">
        <ele>395.73160394869</ele>
        <time>2015-10-11T13:56:04Z</time>
      </trkpt>
      <trkpt lat="45.81973" lon="5.71325">
        <ele>395.15685577596</ele>
        <time>2015-10-11T13:56:09Z</time>
      </trkpt>
      <trkpt lat="45.81953" lon="5.71362">
        <ele>394.92072337968</ele>
        <time>2015-10-11T13:56:19Z</time>
      </trkpt>
      <trkpt lat="45.81943" lon="5.71385">
        <ele>394.63803069312</ele>
        <time>2015-10-11T13:56:24Z</time>
      </trkpt>
      <trkpt lat="45.81932" lon="5.71394">
        <ele>394.64374574586</ele>
        <time>2015-10-11T13:56:34Z</time>
      </trkpt>
      <trkpt lat="45.81925" lon="5.714">
        <ele>394.64374574586</ele>
        <time>2015-10-11T13:56:39Z</time>
      </trkpt>
      <trkpt lat="45.81914" lon="5.71421">
        <ele>395.66533136532</ele>
        <time>2015-10-11T13:56:54Z</time>
      </trkpt>
      <trkpt lat="45.81918" lon="5.71431">
        <ele>395.66533136532</ele>
        <time>2015-10-11T13:56:59Z</time>
      </trkpt>
      <trkpt lat="45.8193" lon="5.71452">
        <ele>395.89524080302</ele>
        <time>2015-10-11T13:57:09Z</time>
      </trkpt>
      <trkpt lat="45.81935" lon="5.71465">
        <ele>396.32698438486</ele>
        <time>2015-10-11T13:57:14Z</time>
      </trkpt>
      <trkpt lat="45.81948" lon="5.71488">
        <ele>396.9870382144</ele>
        <time>2015-10-11T13:57:24Z</time>
      </trkpt>
      <trkpt lat="45.81953" lon="5.71494">
        <ele>396.9870382144</ele>
        <time>2015-10-11T13:57:29Z</time>
      </trkpt>
      <trkpt lat="45.81963" lon="5.71509">
        <ele>397.35168064609</ele>
        <time>2015-10-11T13:57:39Z</time>
      </trkpt>
      <trkpt lat="45.81969" lon="5.71518">
        <ele>397.35168064609</ele>
        <time>2015-10-11T13:57:44Z</time>
      </trkpt>
      <trkpt lat="45.81983" lon="5.71534">
        <ele>398.53614226145</ele>
        <time>2015-10-11T13:57:54Z</time>
      </trkpt>
      <trkpt lat="45.81987" lon="5.71539">
        <ele>398.53614226145</ele>
        <time>2015-10-11T13:57:59Z</time>
      </trkpt>
      <trkpt lat="45.81996" lon="5.71541">
        <ele>399.87094133506</ele>
        <time>2015-10-11T13:58:09Z</time>
      </trkpt>
      <trkpt lat="45.82002" lon="5.71542">
        <ele>399.87094133506</ele>
        <time>2015-10-11T13:58:14Z</time>
      </trkpt>
      <trkpt lat="45.82016" lon="5.71546">
        <ele>400.38951810665</ele>
        <time>2015-10-11T13:58:24Z</time>
      </trkpt>
      <trkpt lat="45.82022" lon="5.71547">
        <ele>400.38951810665</ele>
        <time>2015-10-11T13:58:29Z</time>
      </trkpt>
      <trkpt lat="45.82037" lon="5.7156">
        <ele>400.61093282606</ele>
        <time>2015-10-11T13:58:44Z</time>
      </trkpt>
      <trkpt lat="45.8204" lon="5.71563">
        <ele>400.61093282606</ele>
        <time>2015-10-11T13:58:49Z</time>
      </trkpt>
      <trkpt lat="45.82043" lon="5.7158">
        <ele>400.48377961702</ele>
        <time>2015-10-11T13:58:59Z</time>
      </trkpt>
      <trkpt lat="45.82044" lon="5.71592">
        <ele>400.48377961702</ele>
        <time>2015-10-11T13:59:04Z</time>
      </trkpt>
      <trkpt lat="45.82044" lon="5.71612">
        <ele>400.63877316346</ele>
        <time>2015-10-11T13:59:14Z</time>
      </trkpt>
      <trkpt lat="45.82043" lon="5.71622">
        <ele>400.63877316346</ele>
        <time>2015-10-11T13:59:19Z</time>
      </trkpt>
      <trkpt lat="45.8204" lon="5.71636">
        <ele>398.99348652141</ele>
        <time>2015-10-11T13:59:29Z</time>
      </trkpt>
      <trkpt lat="45.82042" lon="5.71641">
        <ele>398.99348652141</ele>
        <time>2015-10-11T13:59:34Z</time>
      </trkpt>
      <trkpt lat="45.82047" lon="5.71652">
        <ele>396.649885874</ele>
        <time>2015-10-11T13:59:44Z</time>
      </trkpt>
      <trkpt lat="45.82052" lon="5.7166">
        <ele>396.649885874</ele>
        <time>2015-10-11T13:59:49Z</time>
      </trkpt>
      <trkpt lat="45.8206" lon="5.71663">
        <ele>393.34837564491</ele>
        <time>2015-10-11T13:59:59Z</time>
      </trkpt>
      <trkpt lat="45.82065" lon="5.71663">
        <ele>393.34837564491</ele>
        <time>2015-10-11T14:00:04Z</time>
      </trkpt>
      <trkpt lat="45.82083" lon="5.71661">
        <ele>390.56604317984</ele>
        <time>2015-10-11T14:00:19Z</time>
      </trkpt>
      <trkpt lat="45.82091" lon="5.7166">
        <ele>390.56604317984</ele>
        <time>2015-10-11T14:00:24Z</time>
      </trkpt>
      <trkpt lat="45.821" lon="5.71654">
        <ele>387.34980200478</ele>
        <time>2015-10-11T14:00:34Z</time>
      </trkpt>
      <trkpt lat="45.82105" lon="5.71651">
        <ele>387.34980200478</ele>
        <time>2015-10-11T14:00:39Z</time>
      </trkpt>
      <trkpt lat="45.82122" lon="5.71644">
        <ele>384.15798836217</ele>
        <time>2015-10-11T14:00:49Z</time>
      </trkpt>
      <trkpt lat="45.8213" lon="5.71639">
        <ele>384.15798836217</ele>
        <time>2015-10-11T14:00:54Z</time>
      </trkpt>
      <trkpt lat="45.82138" lon="5.71628">
        <ele>380.4784125077</ele>
        <time>2015-10-11T14:01:04Z</time>
      </trkpt>
      <trkpt lat="45.82141" lon="5.71621">
        <ele>380.4784125077</ele>
        <time>2015-10-11T14:01:09Z</time>
      </trkpt>
      <trkpt lat="45.82154" lon="5.71607">
        <ele>377.22126044943</ele>
        <time>2015-10-11T14:01:19Z</time>
      </trkpt>
      <trkpt lat="45.82162" lon="5.71603">
        <ele>377.22126044943</ele>
        <time>2015-10-11T14:01:24Z</time>
      </trkpt>
      <trkpt lat="45.82175" lon="5.71587">
        <ele>374.43595453448</ele>
        <time>2015-10-11T14:01:34Z</time>
      </trkpt>
      <trkpt lat="45.82183" lon="5.71576">
        <ele>371.70568537232</ele>
        <time>2015-10-11T14:01:39Z</time>
      </trkpt>
      <trkpt lat="45.82192" lon="5.71551">
        <ele>368.57191620676</ele>
        <time>2015-10-11T14:01:49Z</time>
      </trkpt>
      <trkpt lat="45.82197" lon="5.7154">
        <ele>368.57191620676</ele>
        <time>2015-10-11T14:01:54Z</time>
      </trkpt>
      <trkpt lat="45.82205" lon="5.71521">
        <ele>365.67720188504</ele>
        <time>2015-10-11T14:02:04Z</time>
      </trkpt>
      <trkpt lat="45.82205" lon="5.71513">
        <ele>365.67720188504</ele>
        <time>2015-10-11T14:02:09Z</time>
      </trkpt>
      <trkpt lat="45.82206" lon="5.715">
        <ele>362.34788790303</ele>
        <time>2015-10-11T14:02:19Z</time>
      </trkpt>
      <trkpt lat="45.82211" lon="5.71489">
        <ele>359.70460414391</ele>
        <time>2015-10-11T14:02:24Z</time>
      </trkpt>
      <trkpt lat="45.82223" lon="5.71464">
        <ele>358.10623917001</ele>
        <time>2015-10-11T14:02:34Z</time>
      </trkpt>
      <trkpt lat="45.82223" lon="5.71455">
        <ele>358.10623917001</ele>
        <time>2015-10-11T14:02:39Z</time>
      </trkpt>
      <trkpt lat="45.82219" lon="5.71439">
        <ele>356.41227602405</ele>
        <time>2015-10-11T14:02:49Z</time>
      </trkpt>
      <trkpt lat="45.82214" lon="5.7143">
        <ele>356.41227602405</ele>
        <time>2015-10-11T14:02:54Z</time>
      </trkpt>
      <trkpt lat="45.82202" lon="5.71402">
        <ele>355.0360073797</ele>
        <time>2015-10-11T14:03:09Z</time>
      </trkpt>
      <trkpt lat="45.82198" lon="5.71393">
        <ele>355.0360073797</ele>
        <time>2015-10-11T14:03:14Z</time>
      </trkpt>
      <trkpt lat="45.82192" lon="5.71375">
        <ele>353.7252152383</ele>
        <time>2015-10-11T14:03:24Z</time>
      </trkpt>
      <trkpt lat="45.82189" lon="5.71367">
        <ele>353.7252152383</ele>
        <time>2015-10-11T14:03:29Z</time>
      </trkpt>
      <trkpt lat="45.82187" lon="5.71348">
        <ele>352.67819705877</ele>
        <time>2015-10-11T14:03:39Z</time>
      </trkpt>
      <trkpt lat="45.82186" lon="5.7134">
        <ele>352.67819705877</ele>
        <time>2015-10-11T14:03:44Z</time>
      </trkpt>
      <trkpt lat="45.82181" lon="5.71324">
        <ele>352.26513530976</ele>
        <time>2015-10-11T14:03:54Z</time>
      </trkpt>
      <trkpt lat="45.8218" lon="5.71315">
        <ele>352.26513530976</ele>
        <time>2015-10-11T14:03:59Z</time>
      </trkpt>
      <trkpt lat="45.82173" lon="5.71302">
        <ele>351.80390952761</ele>
        <time>2015-10-11T14:04:09Z</time>
      </trkpt>
      <trkpt lat="45.82169" lon="5.71296">
        <ele>351.80390952761</ele>
        <time>2015-10-11T14:04:14Z</time>
      </trkpt>
      <trkpt lat="45.82161" lon="5.71287">
        <ele>351.51276992625</ele>
        <time>2015-10-11T14:04:24Z</time>
      </trkpt>
      <trkpt lat="45.82157" lon="5.7128">
        <ele>351.51276992625</ele>
        <time>2015-10-11T14:04:29Z</time>
      </trkpt>
      <trkpt lat="45.82146" lon="5.71267">
        <ele>352.16978875103</ele>
        <time>2015-10-11T14:04:39Z</time>
      </trkpt>
      <trkpt lat="45.8214" lon="5.71259">
        <ele>352.16978875103</ele>
        <time>2015-10-11T14:04:44Z</time>
      </trkpt>
      <trkpt lat="45.82125" lon="5.71242">
        <ele>353.15289235142</ele>
        <time>2015-10-11T14:04:54Z</time>
      </trkpt>
      <trkpt lat="45.82115" lon="5.71232">
        <ele>354.77820412398</ele>
        <time>2015-10-11T14:04:59Z</time>
      </trkpt>
      <trkpt lat="45.82102" lon="5.71225">
        <ele>355.60743618944</ele>
        <time>2015-10-11T14:05:09Z</time>
      </trkpt>
      <trkpt lat="45.82097" lon="5.71223">
        <ele>355.60743618944</ele>
        <time>2015-10-11T14:05:14Z</time>
      </trkpt>
      <trkpt lat="45.8208" lon="5.71211">
        <ele>356.34212604183</ele>
        <time>2015-10-11T14:05:29Z</time>
      </trkpt>
      <trkpt lat="45.82075" lon="5.71206">
        <ele>356.34212604183</ele>
        <time>2015-10-11T14:05:34Z</time>
      </trkpt>
      <trkpt lat="45.82069" lon="5.71199">
        <ele>357.2146087014</ele>
        <time>2015-10-11T14:05:44Z</time>
      </trkpt>
      <trkpt lat="45.82067" lon="5.71199">
        <ele>357.2146087014</ele>
        <time>2015-10-11T14:05:49Z</time>
      </trkpt>
      <trkpt lat="45.82065" lon="5.71196">
        <ele>357.2146087014</ele>
        <time>2015-10-11T14:05:59Z</time>
      </trkpt>
      <trkpt lat="45.82064" lon="5.71196">
        <ele>357.2146087014</ele>
        <time>2015-10-11T14:06:04Z</time>
      </trkpt>
      <trkpt lat="45.82064" lon="5.71195">
        <ele>357.2146087014</ele>
        <time>2015-10-11T14:06:14Z</time>
      </trkpt>
      <trkpt lat="45.82064" lon="5.71194">
        <ele>357.2146087014</ele>
        <time>2015-10-11T14:06:19Z</time>
      </trkpt>
      <trkpt lat="45.82063" lon="5.71195">
        <ele>357.2146087014</ele>
        <time>2015-10-11T14:06:29Z</time>
      </trkpt>
      <trkpt lat="45.82062" lon="5.71196">
        <ele>357.2146087014</ele>
        <time>2015-10-11T14:06:34Z</time>
      </trkpt>
      <trkpt lat="45.82062" lon="5.71196">
        <ele>359.18915307177</ele>
        <time>2015-10-11T14:06:44Z</time>
      </trkpt>
      <trkpt lat="45.82062" lon="5.71196">
        <ele>359.18915307177</ele>
        <time>2015-10-11T14:06:49Z</time>
      </trkpt>
      <trkpt lat="45.82062" lon="5.71195">
        <ele>359.18915307177</ele>
        <time>2015-10-11T14:06:59Z</time>
      </trkpt>
      <trkpt lat="45.82061" lon="5.71194">
        <ele>359.18915307177</ele>
        <time>2015-10-11T14:07:04Z</time>
      </trkpt>
      <trkpt lat="45.82059" lon="5.71192">
        <ele>359.18915307177</ele>
        <time>2015-10-11T14:07:19Z</time>
      </trkpt>
      <trkpt lat="45.82055" lon="5.71191">
        <ele>359.18915307177</ele>
        <time>2015-10-11T14:07:24Z</time>
      </trkpt>
      <trkpt lat="45.82043" lon="5.71186">
        <ele>360.67741751992</ele>
        <time>2015-10-11T14:07:34Z</time>
      </trkpt>
      <trkpt lat="45.82037" lon="5.7118">
        <ele>360.67741751992</ele>
        <time>2015-10-11T14:07:39Z</time>
      </trkpt>
      <trkpt lat="45.82028" lon="5.71168">
        <ele>362.03936138135</ele>
        <time>2015-10-11T14:07:49Z</time>
      </trkpt>
      <trkpt lat="45.82023" lon="5.7116">
        <ele>362.03936138135</ele>
        <time>2015-10-11T14:07:54Z</time>
      </trkpt>
      <trkpt lat="45.82011" lon="5.71152">
        <ele>363.30628664325</ele>
        <time>2015-10-11T14:08:04Z</time>
      </trkpt>
      <trkpt lat="45.82007" lon="5.71149">
        <ele>363.30628664325</ele>
        <time>2015-10-11T14:08:09Z</time>
      </trkpt>
      <trkpt lat="45.82" lon="5.71149">
        <ele>363.44111843536</ele>
        <time>2015-10-11T14:08:19Z</time>
      </trkpt>
      <trkpt lat="45.81996" lon="5.71152">
        <ele>363.44111843536</ele>
        <time>2015-10-11T14:08:24Z</time>
      </trkpt>
      <trkpt lat="45.81981" lon="5.71153">
        <ele>362.99939612509</ele>
        <time>2015-10-11T14:08:34Z</time>
      </trkpt>
      <trkpt lat="45.81971" lon="5.71151">
        <ele>362.67049375001</ele>
        <time>2015-10-11T14:08:39Z</time>
      </trkpt>
      <trkpt lat="45.81934" lon="5.71143">
        <ele>362.51647810901</ele>
        <time>2015-10-11T14:08:49Z</time>
      </trkpt>
      <trkpt lat="45.81927" lon="5.71136">
        <ele>362.51647810901</ele>
        <time>2015-10-11T14:08:54Z</time>
      </trkpt>
      <trkpt lat="45.81907" lon="5.71111">
        <ele>363.19972815477</ele>
        <time>2015-10-11T14:09:09Z</time>
      </trkpt>
      <trkpt lat="45.819" lon="5.71105">
        <ele>363.19972815477</ele>
        <time>2015-10-11T14:09:14Z</time>
      </trkpt>
      <trkpt lat="45.81892" lon="5.71085">
        <ele>364.12117887163</ele>
        <time>2015-10-11T14:09:24Z</time>
      </trkpt>
      <trkpt lat="45.81891" lon="5.7108">
        <ele>364.12117887163</ele>
        <time>2015-10-11T14:09:29Z</time>
      </trkpt>
      <trkpt lat="45.81887" lon="5.71063">
        <ele>364.97019291327</ele>
        <time>2015-10-11T14:09:39Z</time>
      </trkpt>
      <trkpt lat="45.81888" lon="5.71051">
        <ele>364.97019291327</ele>
        <time>2015-10-11T14:09:44Z</time>
      </trkpt>
      <trkpt lat="45.81885" lon="5.7103">
        <ele>365.31514837436</ele>
        <time>2015-10-11T14:09:54Z</time>
      </trkpt>
      <trkpt lat="45.81884" lon="5.71018">
        <ele>365.31514837436</ele>
        <time>2015-10-11T14:09:59Z</time>
      </trkpt>
      <trkpt lat="45.81881" lon="5.7099">
        <ele>365.50703041879</ele>
        <time>2015-10-11T14:10:09Z</time>
      </trkpt>
      <trkpt lat="45.8188" lon="5.70979">
        <ele>365.50703041879</ele>
        <time>2015-10-11T14:10:14Z</time>
      </trkpt>
      <trkpt lat="45.81875" lon="5.70963">
        <ele>365.32395804879</ele>
        <time>2015-10-11T14:10:24Z</time>
      </trkpt>
      <trkpt lat="45.81874" lon="5.70955">
        <ele>365.32395804879</ele>
        <time>2015-10-11T14:10:29Z</time>
      </trkpt>
      <trkpt lat="45.81871" lon="5.70939">
        <ele>366.13232421656</ele>
        <time>2015-10-11T14:10:39Z</time>
      </trkpt>
      <trkpt lat="45.8187" lon="5.70929">
        <ele>366.13232421656</ele>
        <time>2015-10-11T14:10:44Z</time>
      </trkpt>
      <trkpt lat="45.8187" lon="5.70913">
        <ele>367.23556614749</ele>
        <time>2015-10-11T14:10:54Z</time>
      </trkpt>
      <trkpt lat="45.81872" lon="5.70906">
        <ele>367.23556614749</ele>
        <time>2015-10-11T14:10:59Z</time>
      </trkpt>
      <trkpt lat="45.81879" lon="5.70879">
        <ele>368.11727630371</ele>
        <time>2015-10-11T14:11:14Z</time>
      </trkpt>
      <trkpt lat="45.81881" lon="5.70869">
        <ele>368.11727630371</ele>
        <time>2015-10-11T14:11:19Z</time>
      </trkpt>
      <trkpt lat="45.81882" lon="5.70844">
        <ele>368.48706331213</ele>
        <time>2015-10-11T14:11:29Z</time>
      </trkpt>
      <trkpt lat="45.81884" lon="5.70831">
        <ele>368.48706331213</ele>
        <time>2015-10-11T14:11:34Z</time>
      </trkpt>
      <trkpt lat="45.81884" lon="5.70811">
        <ele>369.21590010502</ele>
        <time>2015-10-11T14:11:44Z</time>
      </trkpt>
      <trkpt lat="45.81885" lon="5.70805">
        <ele>369.21590010502</ele>
        <time>2015-10-11T14:11:49Z</time>
      </trkpt>
      <trkpt lat="45.81883" lon="5.70782">
        <ele>369.09233298634</ele>
        <time>2015-10-11T14:11:59Z</time>
      </trkpt>
      <trkpt lat="45.81883" lon="5.70773">
        <ele>369.09233298634</ele>
        <time>2015-10-11T14:12:04Z</time>
      </trkpt>
      <trkpt lat="45.81879" lon="5.70751">
        <ele>369.11484280162</ele>
        <time>2015-10-11T14:12:14Z</time>
      </trkpt>
      <trkpt lat="45.81878" lon="5.70745">
        <ele>369.11484280162</ele>
        <time>2015-10-11T14:12:19Z</time>
      </trkpt>
      <trkpt lat="45.81875" lon="5.70728">
        <ele>367.455739514</ele>
        <time>2015-10-11T14:12:29Z</time>
      </trkpt>
      <trkpt lat="45.81874" lon="5.70718">
        <ele>367.455739514</ele>
        <time>2015-10-11T14:12:34Z</time>
      </trkpt>
      <trkpt lat="45.81871" lon="5.70686">
        <ele>364.77542248069</ele>
        <time>2015-10-11T14:12:49Z</time>
      </trkpt>
      <trkpt lat="45.81872" lon="5.70677">
        <ele>364.77542248069</ele>
        <time>2015-10-11T14:12:54Z</time>
      </trkpt>
      <trkpt lat="45.81874" lon="5.70663">
        <ele>361.78960316606</ele>
        <time>2015-10-11T14:13:04Z</time>
      </trkpt>
      <trkpt lat="45.81875" lon="5.70653">
        <ele>361.78960316606</ele>
        <time>2015-10-11T14:13:09Z</time>
      </trkpt>
      <trkpt lat="45.81871" lon="5.70631">
        <ele>358.47060067897</ele>
        <time>2015-10-11T14:13:19Z</time>
      </trkpt>
      <trkpt lat="45.81867" lon="5.70621">
        <ele>358.47060067897</ele>
        <time>2015-10-11T14:13:24Z</time>
      </trkpt>
      <trkpt lat="45.81863" lon="5.70606">
        <ele>355.35577016767</ele>
        <time>2015-10-11T14:13:34Z</time>
      </trkpt>
      <trkpt lat="45.81862" lon="5.70599">
        <ele>355.35577016767</ele>
        <time>2015-10-11T14:13:39Z</time>
      </trkpt>
      <trkpt lat="45.81858" lon="5.70586">
        <ele>351.74630488679</ele>
        <time>2015-10-11T14:13:49Z</time>
      </trkpt>
      <trkpt lat="45.81858" lon="5.70577">
        <ele>351.74630488679</ele>
        <time>2015-10-11T14:13:54Z</time>
      </trkpt>
      <trkpt lat="45.81856" lon="5.70555">
        <ele>348.86954715647</ele>
        <time>2015-10-11T14:14:04Z</time>
      </trkpt>
      <trkpt lat="45.81858" lon="5.70546">
        <ele>348.86954715647</ele>
        <time>2015-10-11T14:14:09Z</time>
      </trkpt>
      <trkpt lat="45.81858" lon="5.70532">
        <ele>346.05919368777</ele>
        <time>2015-10-11T14:14:19Z</time>
      </trkpt>
      <trkpt lat="45.81863" lon="5.70519">
        <ele>343.24526264104</ele>
        <time>2015-10-11T14:14:24Z</time>
      </trkpt>
      <trkpt lat="45.8187" lon="5.7048">
        <ele>340.34843320086</ele>
        <time>2015-10-11T14:14:39Z</time>
      </trkpt>
      <trkpt lat="45.81872" lon="5.70467">
        <ele>338.04472919295</ele>
        <time>2015-10-11T14:14:44Z</time>
      </trkpt>
      <trkpt lat="45.8188" lon="5.70451">
        <ele>336.49759090124</ele>
        <time>2015-10-11T14:14:54Z</time>
      </trkpt>
      <trkpt lat="45.81887" lon="5.70454">
        <ele>336.49759090124</ele>
        <time>2015-10-11T14:14:59Z</time>
      </trkpt>
      <trkpt lat="45.81904" lon="5.70451">
        <ele>334.64568450571</ele>
        <time>2015-10-11T14:15:09Z</time>
      </trkpt>
      <trkpt lat="45.81913" lon="5.70442">
        <ele>332.87543576788</ele>
        <time>2015-10-11T14:15:14Z</time>
      </trkpt>
      <trkpt lat="45.81921" lon="5.7042">
        <ele>331.25631399813</ele>
        <time>2015-10-11T14:15:24Z</time>
      </trkpt>
      <trkpt lat="45.81925" lon="5.70406">
        <ele>329.85214262943</ele>
        <time>2015-10-11T14:15:29Z</time>
      </trkpt>
      <trkpt lat="45.8193" lon="5.70392">
        <ele>328.21694584463</ele>
        <time>2015-10-11T14:15:39Z</time>
      </trkpt>
      <trkpt lat="45.81933" lon="5.70383">
        <ele>328.21694584463</ele>
        <time>2015-10-11T14:15:44Z</time>
      </trkpt>
      <trkpt lat="45.81937" lon="5.70357">
        <ele>326.41360578779</ele>
        <time>2015-10-11T14:15:54Z</time>
      </trkpt>
      <trkpt lat="45.81941" lon="5.70339">
        <ele>325.12041867362</ele>
        <time>2015-10-11T14:15:59Z</time>
      </trkpt>
      <trkpt lat="45.81947" lon="5.70316">
        <ele>324.34463101346</ele>
        <time>2015-10-11T14:16:09Z</time>
      </trkpt>
      <trkpt lat="45.8195" lon="5.70307">
        <ele>324.34463101346</ele>
        <time>2015-10-11T14:16:14Z</time>
      </trkpt>
      <trkpt lat="45.81955" lon="5.70296">
        <ele>322.54940521214</ele>
        <time>2015-10-11T14:16:24Z</time>
      </trkpt>
      <trkpt lat="45.81957" lon="5.70288">
        <ele>322.54940521214</ele>
        <time>2015-10-11T14:16:29Z</time>
      </trkpt>
      <trkpt lat="45.81963" lon="5.7026">
        <ele>321.68575388498</ele>
        <time>2015-10-11T14:16:39Z</time>
      </trkpt>
      <trkpt lat="45.8196" lon="5.70252">
        <ele>321.68575388498</ele>
        <time>2015-10-11T14:16:44Z</time>
      </trkpt>
      <trkpt lat="45.81956" lon="5.70236">
        <ele>320.2296865319</ele>
        <time>2015-10-11T14:16:54Z</time>
      </trkpt>
      <trkpt lat="45.81956" lon="5.70224">
        <ele>320.2296865319</ele>
        <time>2015-10-11T14:16:59Z</time>
      </trkpt>
      <trkpt lat="45.81954" lon="5.70202">
        <ele>320.17175468337</ele>
        <time>2015-10-11T14:17:09Z</time>
      </trkpt>
      <trkpt lat="45.81953" lon="5.70191">
        <ele>320.17175468337</ele>
        <time>2015-10-11T14:17:14Z</time>
      </trkpt>
      <trkpt lat="45.8195" lon="5.70168">
        <ele>318.85600511648</ele>
        <time>2015-10-11T14:17:24Z</time>
      </trkpt>
      <trkpt lat="45.81949" lon="5.70157">
        <ele>318.85600511648</ele>
        <time>2015-10-11T14:17:29Z</time>
      </trkpt>
      <trkpt lat="45.81949" lon="5.70117">
        <ele>318.56629423748</ele>
        <time>2015-10-11T14:17:44Z</time>
      </trkpt>
      <trkpt lat="45.81951" lon="5.70101">
        <ele>318.41824499849</ele>
        <time>2015-10-11T14:17:49Z</time>
      </trkpt>
      <trkpt lat="45.81952" lon="5.70075">
        <ele>318.62958789978</ele>
        <time>2015-10-11T14:17:59Z</time>
      </trkpt>
      <trkpt lat="45.81952" lon="5.70063">
        <ele>318.62958789978</ele>
        <time>2015-10-11T14:18:04Z</time>
      </trkpt>
      <trkpt lat="45.81955" lon="5.70038">
        <ele>318.16164370158</ele>
        <time>2015-10-11T14:18:14Z</time>
      </trkpt>
      <trkpt lat="45.81957" lon="5.70022">
        <ele>317.91293381379</ele>
        <time>2015-10-11T14:18:19Z</time>
      </trkpt>
      <trkpt lat="45.81961" lon="5.70002">
        <ele>317.20216239799</ele>
        <time>2015-10-11T14:18:29Z</time>
      </trkpt>
      <trkpt lat="45.81965" lon="5.69994">
        <ele>317.20216239799</ele>
        <time>2015-10-11T14:18:34Z</time>
      </trkpt>
      <trkpt lat="45.81971" lon="5.69961">
        <ele>317.57543575939</ele>
        <time>2015-10-11T14:18:44Z</time>
      </trkpt>
      <trkpt lat="45.81977" lon="5.69941">
        <ele>318.28615394113</ele>
        <time>2015-10-11T14:18:49Z</time>
      </trkpt>
      <trkpt lat="45.81985" lon="5.69919">
        <ele>319.4774613364</ele>
        <time>2015-10-11T14:18:59Z</time>
      </trkpt>
      <trkpt lat="45.81988" lon="5.6991">
        <ele>319.4774613364</ele>
        <time>2015-10-11T14:19:04Z</time>
      </trkpt>
      <trkpt lat="45.81993" lon="5.6989">
        <ele>320.77626526795</ele>
        <time>2015-10-11T14:19:14Z</time>
      </trkpt>
      <trkpt lat="45.82" lon="5.69876">
        <ele>322.31217768426</ele>
        <time>2015-10-11T14:19:19Z</time>
      </trkpt>
      <trkpt lat="45.82008" lon="5.69848">
        <ele>323.18148312738</ele>
        <time>2015-10-11T14:19:34Z</time>
      </trkpt>
      <trkpt lat="45.8201" lon="5.6984">
        <ele>323.18148312738</ele>
        <time>2015-10-11T14:19:39Z</time>
      </trkpt>
      <trkpt lat="45.82014" lon="5.69818">
        <ele>324.29253153714</ele>
        <time>2015-10-11T14:19:49Z</time>
      </trkpt>
      <trkpt lat="45.82017" lon="5.69808">
        <ele>324.29253153714</ele>
        <time>2015-10-11T14:19:54Z</time>
      </trkpt>
      <trkpt lat="45.82021" lon="5.6979">
        <ele>325.37668944197</ele>
        <time>2015-10-11T14:20:04Z</time>
      </trkpt>
      <trkpt lat="45.82023" lon="5.69779">
        <ele>325.37668944197</ele>
        <time>2015-10-11T14:20:09Z</time>
      </trkpt>
      <trkpt lat="45.8203" lon="5.69762">
        <ele>326.45903316925</ele>
        <time>2015-10-11T14:20:19Z</time>
      </trkpt>
      <trkpt lat="45.82038" lon="5.69763">
        <ele>326.45903316925</ele>
        <time>2015-10-11T14:20:24Z</time>
      </trkpt>
      <trkpt lat="45.82055" lon="5.69771">
        <ele>327.38996811595</ele>
        <time>2015-10-11T14:20:34Z</time>
      </trkpt>
      <trkpt lat="45.82063" lon="5.69783">
        <ele>329.22754627645</ele>
        <time>2015-10-11T14:20:39Z</time>
      </trkpt>
      <trkpt lat="45.82077" lon="5.69792">
        <ele>331.26357239004</ele>
        <time>2015-10-11T14:20:49Z</time>
      </trkpt>
      <trkpt lat="45.82083" lon="5.69797">
        <ele>331.26357239004</ele>
        <time>2015-10-11T14:20:54Z</time>
      </trkpt>
      <trkpt lat="45.82096" lon="5.6981">
        <ele>334.02316288209</ele>
        <time>2015-10-11T14:21:04Z</time>
      </trkpt>
      <trkpt lat="45.82102" lon="5.69817">
        <ele>334.02316288209</ele>
        <time>2015-10-11T14:21:09Z</time>
      </trkpt>
      <trkpt lat="45.82123" lon="5.69846">
        <ele>336.0310638336</ele>
        <time>2015-10-11T14:21:24Z</time>
      </trkpt>
      <trkpt lat="45.82125" lon="5.69857">
        <ele>336.0310638336</ele>
        <time>2015-10-11T14:21:29Z</time>
      </trkpt>
      <trkpt lat="45.82132" lon="5.69874">
        <ele>337.96903938585</ele>
        <time>2015-10-11T14:21:39Z</time>
      </trkpt>
      <trkpt lat="45.82134" lon="5.69876">
        <ele>337.96903938585</ele>
        <time>2015-10-11T14:21:44Z</time>
      </trkpt>
      <trkpt lat="45.82145" lon="5.69883">
        <ele>339.27301554931</ele>
        <time>2015-10-11T14:21:54Z</time>
      </trkpt>
      <trkpt lat="45.82151" lon="5.69886">
        <ele>339.27301554931</ele>
        <time>2015-10-11T14:21:59Z</time>
      </trkpt>
      <trkpt lat="45.82157" lon="5.6989">
        <ele>340.56079003421</ele>
        <time>2015-10-11T14:22:09Z</time>
      </trkpt>
      <trkpt lat="45.82161" lon="5.69891">
        <ele>340.56079003421</ele>
        <time>2015-10-11T14:22:14Z</time>
      </trkpt>
      <trkpt lat="45.8217" lon="5.69891">
        <ele>341.3385821748</ele>
        <time>2015-10-11T14:22:24Z</time>
      </trkpt>
      <trkpt lat="45.82181" lon="5.69895">
        <ele>342.14486434179</ele>
        <time>2015-10-11T14:22:29Z</time>
      </trkpt>
      <trkpt lat="45.82192" lon="5.699">
        <ele>342.48428588723</ele>
        <time>2015-10-11T14:22:39Z</time>
      </trkpt>
      <trkpt lat="45.82198" lon="5.69904">
        <ele>342.48428588723</ele>
        <time>2015-10-11T14:22:44Z</time>
      </trkpt>
      <trkpt lat="45.82213" lon="5.69908">
        <ele>341.1788105098</ele>
        <time>2015-10-11T14:22:54Z</time>
      </trkpt>
      <trkpt lat="45.82222" lon="5.69909">
        <ele>341.1788105098</ele>
        <time>2015-10-11T14:22:59Z</time>
      </trkpt>
      <trkpt lat="45.82237" lon="5.69917">
        <ele>340.4562731177</ele>
        <time>2015-10-11T14:23:09Z</time>
      </trkpt>
      <trkpt lat="45.82245" lon="5.69921">
        <ele>340.4562731177</ele>
        <time>2015-10-11T14:23:14Z</time>
      </trkpt>
      <trkpt lat="45.82259" lon="5.69926">
        <ele>339.56919849988</ele>
        <time>2015-10-11T14:23:29Z</time>
      </trkpt>
      <trkpt lat="45.82264" lon="5.69927">
        <ele>339.56919849988</ele>
        <time>2015-10-11T14:23:34Z</time>
      </trkpt>
      <trkpt lat="45.82277" lon="5.69931">
        <ele>339.46848310583</ele>
        <time>2015-10-11T14:23:44Z</time>
      </trkpt>
      <trkpt lat="45.82284" lon="5.69936">
        <ele>339.46848310583</ele>
        <time>2015-10-11T14:23:49Z</time>
      </trkpt>
      <trkpt lat="45.82301" lon="5.69945">
        <ele>340.03871860608</ele>
        <time>2015-10-11T14:23:59Z</time>
      </trkpt>
      <trkpt lat="45.82311" lon="5.69951">
        <ele>340.69563657776</ele>
        <time>2015-10-11T14:24:04Z</time>
      </trkpt>
      <trkpt lat="45.82327" lon="5.69964">
        <ele>341.2292058846</ele>
        <time>2015-10-11T14:24:14Z</time>
      </trkpt>
      <trkpt lat="45.82329" lon="5.69972">
        <ele>341.2292058846</ele>
        <time>2015-10-11T14:24:19Z</time>
      </trkpt>
      <trkpt lat="45.8234" lon="5.6998">
        <ele>340.3932572484</ele>
        <time>2015-10-11T14:24:29Z</time>
      </trkpt>
      <trkpt lat="45.82344" lon="5.69978">
        <ele>340.3932572484</ele>
        <time>2015-10-11T14:24:34Z</time>
      </trkpt>
      <trkpt lat="45.82354" lon="5.69973">
        <ele>338.03146212053</ele>
        <time>2015-10-11T14:24:44Z</time>
      </trkpt>
      <trkpt lat="45.82357" lon="5.69967">
        <ele>338.03146212053</ele>
        <time>2015-10-11T14:24:49Z</time>
      </trkpt>
      <trkpt lat="45.82364" lon="5.69959">
        <ele>334.89681882018</ele>
        <time>2015-10-11T14:24:59Z</time>
      </trkpt>
      <trkpt lat="45.82364" lon="5.6995">
        <ele>334.89681882018</ele>
        <time>2015-10-11T14:25:04Z</time>
      </trkpt>
      <trkpt lat="45.82367" lon="5.69933">
        <ele>331.74687509765</ele>
        <time>2015-10-11T14:25:14Z</time>
      </trkpt>
      <trkpt lat="45.82369" lon="5.69923">
        <ele>331.74687509765</ele>
        <time>2015-10-11T14:25:19Z</time>
      </trkpt>
      <trkpt lat="45.82387" lon="5.69906">
        <ele>330.30678989218</ele>
        <time>2015-10-11T14:25:34Z</time>
      </trkpt>
      <trkpt lat="45.82393" lon="5.69905">
        <ele>330.30678989218</ele>
        <time>2015-10-11T14:25:39Z</time>
      </trkpt>
      <trkpt lat="45.824" lon="5.69896">
        <ele>329.47532322282</ele>
        <time>2015-10-11T14:25:49Z</time>
      </trkpt>
      <trkpt lat="45.82409" lon="5.69893">
        <ele>329.47532322282</ele>
        <time>2015-10-11T14:25:54Z</time>
      </trkpt>
      <trkpt lat="45.82421" lon="5.69891">
        <ele>328.8789132193</ele>
        <time>2015-10-11T14:26:04Z</time>
      </trkpt>
      <trkpt lat="45.82426" lon="5.69887">
        <ele>328.8789132193</ele>
        <time>2015-10-11T14:26:09Z</time>
      </trkpt>
      <trkpt lat="45.82432" lon="5.69883">
        <ele>328.57427013276</ele>
        <time>2015-10-11T14:26:19Z</time>
      </trkpt>
      <trkpt lat="45.82437" lon="5.69881">
        <ele>328.57427013276</ele>
        <time>2015-10-11T14:26:24Z</time>
      </trkpt>
      <trkpt lat="45.8245" lon="5.69877">
        <ele>328.45457158024</ele>
        <time>2015-10-11T14:26:34Z</time>
      </trkpt>
      <trkpt lat="45.82458" lon="5.69877">
        <ele>328.45457158024</ele>
        <time>2015-10-11T14:26:39Z</time>
      </trkpt>
      <trkpt lat="45.82469" lon="5.69877">
        <ele>327.52680486136</ele>
        <time>2015-10-11T14:26:49Z</time>
      </trkpt>
      <trkpt lat="45.82473" lon="5.69876">
        <ele>327.52680486136</ele>
        <time>2015-10-11T14:26:54Z</time>
      </trkpt>
      <trkpt lat="45.82486" lon="5.69877">
        <ele>326.34307149067</ele>
        <time>2015-10-11T14:27:04Z</time>
      </trkpt>
      <trkpt lat="45.8249" lon="5.69879">
        <ele>326.34307149067</ele>
        <time>2015-10-11T14:27:09Z</time>
      </trkpt>
      <trkpt lat="45.82498" lon="5.69883">
        <ele>324.65180704307</ele>
        <time>2015-10-11T14:27:19Z</time>
      </trkpt>
      <trkpt lat="45.82507" lon="5.69883">
        <ele>323.07156180278</ele>
        <time>2015-10-11T14:27:24Z</time>
      </trkpt>
      <trkpt lat="45.82525" lon="5.69883">
        <ele>321.58422713539</ele>
        <time>2015-10-11T14:27:39Z</time>
      </trkpt>
      <trkpt lat="45.8253" lon="5.69884">
        <ele>321.58422713539</ele>
        <time>2015-10-11T14:27:44Z</time>
      </trkpt>
      <trkpt lat="45.82541" lon="5.69884">
        <ele>320.74914764223</ele>
        <time>2015-10-11T14:27:54Z</time>
      </trkpt>
      <trkpt lat="45.82549" lon="5.69883">
        <ele>320.74914764223</ele>
        <time>2015-10-11T14:27:59Z</time>
      </trkpt>
      <trkpt lat="45.82563" lon="5.69884">
        <ele>320.9097500082</ele>
        <time>2015-10-11T14:28:09Z</time>
      </trkpt>
      <trkpt lat="45.82572" lon="5.69881">
        <ele>320.9097500082</ele>
        <time>2015-10-11T14:28:14Z</time>
      </trkpt>
      <trkpt lat="45.82588" lon="5.69877">
        <ele>320.52233816821</ele>
        <time>2015-10-11T14:28:24Z</time>
      </trkpt>
      <trkpt lat="45.82599" lon="5.69876">
        <ele>320.79532142075</ele>
        <time>2015-10-11T14:28:29Z</time>
      </trkpt>
      <trkpt lat="45.82618" lon="5.69875">
        <ele>321.57824963699</ele>
        <time>2015-10-11T14:28:39Z</time>
      </trkpt>
      <trkpt lat="45.82628" lon="5.69878">
        <ele>322.41319797043</ele>
        <time>2015-10-11T14:28:44Z</time>
      </trkpt>
      <trkpt lat="45.82643" lon="5.69886">
        <ele>322.90451376588</ele>
        <time>2015-10-11T14:28:54Z</time>
      </trkpt>
      <trkpt lat="45.82649" lon="5.69893">
        <ele>322.90451376588</ele>
        <time>2015-10-11T14:28:59Z</time>
      </trkpt>
      <trkpt lat="45.82673" lon="5.69915">
        <ele>323.94030748366</ele>
        <time>2015-10-11T14:29:14Z</time>
      </trkpt>
      <trkpt lat="45.82679" lon="5.69923">
        <ele>323.94030748366</ele>
        <time>2015-10-11T14:29:19Z</time>
      </trkpt>
      <trkpt lat="45.82683" lon="5.69936">
        <ele>325.63575676378</ele>
        <time>2015-10-11T14:29:29Z</time>
      </trkpt>
      <trkpt lat="45.82687" lon="5.69942">
        <ele>325.63575676378</ele>
        <time>2015-10-11T14:29:34Z</time>
      </trkpt>
      <trkpt lat="45.82697" lon="5.6995">
        <ele>326.98606301887</ele>
        <time>2015-10-11T14:29:44Z</time>
      </trkpt>
      <trkpt lat="45.827" lon="5.69954">
        <ele>326.98606301887</ele>
        <time>2015-10-11T14:29:49Z</time>
      </trkpt>
      <trkpt lat="45.8271" lon="5.69957">
        <ele>328.57437904746</ele>
        <time>2015-10-11T14:29:59Z</time>
      </trkpt>
      <trkpt lat="45.82714" lon="5.69959">
        <ele>328.57437904746</ele>
        <time>2015-10-11T14:30:04Z</time>
      </trkpt>
      <trkpt lat="45.82725" lon="5.69965">
        <ele>329.39837858841</ele>
        <time>2015-10-11T14:30:14Z</time>
      </trkpt>
      <trkpt lat="45.82732" lon="5.69968">
        <ele>329.39837858841</ele>
        <time>2015-10-11T14:30:19Z</time>
      </trkpt>
      <trkpt lat="45.82752" lon="5.69995">
        <ele>330.86613887034</ele>
        <time>2015-10-11T14:30:34Z</time>
      </trkpt>
      <trkpt lat="45.82762" lon="5.70004">
        <ele>332.19092094278</ele>
        <time>2015-10-11T14:30:39Z</time>
      </trkpt>
      <trkpt lat="45.8277" lon="5.70014">
        <ele>332.87480437354</ele>
        <time>2015-10-11T14:30:49Z</time>
      </trkpt>
      <trkpt lat="45.82776" lon="5.70022">
        <ele>332.87480437354</ele>
        <time>2015-10-11T14:30:54Z</time>
      </trkpt>
      <trkpt lat="45.82783" lon="5.7004">
        <ele>334.2164534511</ele>
        <time>2015-10-11T14:31:04Z</time>
      </trkpt>
      <trkpt lat="45.82787" lon="5.70047">
        <ele>334.2164534511</ele>
        <time>2015-10-11T14:31:09Z</time>
      </trkpt>
      <trkpt lat="45.82798" lon="5.70067">
        <ele>334.26131184219</ele>
        <time>2015-10-11T14:31:19Z</time>
      </trkpt>
      <trkpt lat="45.82802" lon="5.70078">
        <ele>334.26131184219</ele>
        <time>2015-10-11T14:31:24Z</time>
      </trkpt>
      <trkpt lat="45.82806" lon="5.70094">
        <ele>333.69522428031</ele>
        <time>2015-10-11T14:31:34Z</time>
      </trkpt>
      <trkpt lat="45.82809" lon="5.70102">
        <ele>333.69522428031</ele>
        <time>2015-10-11T14:31:39Z</time>
      </trkpt>
      <trkpt lat="45.82816" lon="5.70114">
        <ele>333.90480435542</ele>
        <time>2015-10-11T14:31:49Z</time>
      </trkpt>
      <trkpt lat="45.82818" lon="5.70123">
        <ele>333.90480435542</ele>
        <time>2015-10-11T14:31:54Z</time>
      </trkpt>
      <trkpt lat="45.82822" lon="5.7014">
        <ele>335.84123302559</ele>
        <time>2015-10-11T14:32:09Z</time>
      </trkpt>
      <trkpt lat="45.82822" lon="5.70141">
        <ele>335.84123302559</ele>
        <time>2015-10-11T14:32:14Z</time>
      </trkpt>
      <trkpt lat="45.82826" lon="5.70136">
        <ele>335.84123302559</ele>
        <time>2015-10-11T14:32:24Z</time>
      </trkpt>
      <trkpt lat="45.82832" lon="5.70133">
        <ele>336.63414119384</ele>
        <time>2015-10-11T14:32:29Z</time>
      </trkpt>
      <trkpt lat="45.82838" lon="5.70122">
        <ele>336.69684924903</ele>
        <time>2015-10-11T14:32:39Z</time>
      </trkpt>
      <trkpt lat="45.82844" lon="5.70118">
        <ele>336.69684924903</ele>
        <time>2015-10-11T14:32:44Z</time>
      </trkpt>
      <trkpt lat="45.82859" lon="5.70112">
        <ele>337.0917461708</ele>
        <time>2015-10-11T14:32:54Z</time>
      </trkpt>
      <trkpt lat="45.82865" lon="5.7011">
        <ele>337.0917461708</ele>
        <time>2015-10-11T14:32:59Z</time>
      </trkpt>
      <trkpt lat="45.82877" lon="5.70108">
        <ele>337.08738350052</ele>
        <time>2015-10-11T14:33:09Z</time>
      </trkpt>
      <trkpt lat="45.82884" lon="5.70108">
        <ele>337.08738350052</ele>
        <time>2015-10-11T14:33:14Z</time>
      </trkpt>
      <trkpt lat="45.82898" lon="5.70108">
        <ele>337.0592326856</ele>
        <time>2015-10-11T14:33:24Z</time>
      </trkpt>
      <trkpt lat="45.82905" lon="5.70107">
        <ele>337.0592326856</ele>
        <time>2015-10-11T14:33:29Z</time>
      </trkpt>
      <trkpt lat="45.82921" lon="5.70104">
        <ele>337.28324709197</ele>
        <time>2015-10-11T14:33:39Z</time>
      </trkpt>
      <trkpt lat="45.82926" lon="5.70102">
        <ele>337.28324709197</ele>
        <time>2015-10-11T14:33:44Z</time>
      </trkpt>
      <trkpt lat="45.82934" lon="5.70096">
        <ele>337.32271626366</ele>
        <time>2015-10-11T14:33:54Z</time>
      </trkpt>
      <trkpt lat="45.82936" lon="5.70094">
        <ele>337.32271626366</ele>
        <time>2015-10-11T14:33:59Z</time>
      </trkpt>
      <trkpt lat="45.82953" lon="5.70084">
        <ele>336.80239346531</ele>
        <time>2015-10-11T14:34:09Z</time>
      </trkpt>
      <trkpt lat="45.82959" lon="5.7008">
        <ele>336.80239346531</ele>
        <time>2015-10-11T14:34:14Z</time>
      </trkpt>
      <trkpt lat="45.82982" lon="5.70062">
        <ele>336.05352747549</ele>
        <time>2015-10-11T14:34:29Z</time>
      </trkpt>
      <trkpt lat="45.82989" lon="5.70061">
        <ele>336.05352747549</ele>
        <time>2015-10-11T14:34:34Z</time>
      </trkpt>
      <trkpt lat="45.82997" lon="5.70064">
        <ele>335.97456187562</ele>
        <time>2015-10-11T14:34:44Z</time>
      </trkpt>
      <trkpt lat="45.83002" lon="5.70058">
        <ele>335.97456187562</ele>
        <time>2015-10-11T14:34:49Z</time>
      </trkpt>
      <trkpt lat="45.83011" lon="5.70049">
        <ele>335.04707299227</ele>
        <time>2015-10-11T14:34:59Z</time>
      </trkpt>
      <trkpt lat="45.83015" lon="5.70043">
        <ele>335.04707299227</ele>
        <time>2015-10-11T14:35:04Z</time>
      </trkpt>
      <trkpt lat="45.83026" lon="5.70025">
        <ele>334.25882029564</ele>
        <time>2015-10-11T14:35:14Z</time>
      </trkpt>
      <trkpt lat="45.8303" lon="5.70021">
        <ele>334.25882029564</ele>
        <time>2015-10-11T14:35:19Z</time>
      </trkpt>
      <trkpt lat="45.83039" lon="5.70011">
        <ele>334.09228671615</ele>
        <time>2015-10-11T14:35:29Z</time>
      </trkpt>
      <trkpt lat="45.83045" lon="5.70008">
        <ele>334.09228671615</ele>
        <time>2015-10-11T14:35:34Z</time>
      </trkpt>
      <trkpt lat="45.83053" lon="5.69992">
        <ele>334.35868131069</ele>
        <time>2015-10-11T14:35:44Z</time>
      </trkpt>
      <trkpt lat="45.83059" lon="5.69985">
        <ele>334.35868131069</ele>
        <time>2015-10-11T14:35:49Z</time>
      </trkpt>
      <trkpt lat="45.8307" lon="5.69975">
        <ele>335.12685513617</ele>
        <time>2015-10-11T14:35:59Z</time>
      </trkpt>
      <trkpt lat="45.83075" lon="5.69967">
        <ele>335.12685513617</ele>
        <time>2015-10-11T14:36:04Z</time>
      </trkpt>
      <trkpt lat="45.83082" lon="5.69961">
        <ele>336.31508245454</ele>
        <time>2015-10-11T14:36:14Z</time>
      </trkpt>
      <trkpt lat="45.83091" lon="5.69958">
        <ele>336.31508245454</ele>
        <time>2015-10-11T14:36:19Z</time>
      </trkpt>
      <trkpt lat="45.83101" lon="5.69953">
        <ele>337.83205588218</ele>
        <time>2015-10-11T14:36:29Z</time>
      </trkpt>
      <trkpt lat="45.83108" lon="5.69948">
        <ele>337.83205588218</ele>
        <time>2015-10-11T14:36:34Z</time>
      </trkpt>
      <trkpt lat="45.8312" lon="5.69936">
        <ele>339.37609789528</ele>
        <time>2015-10-11T14:36:44Z</time>
      </trkpt>
      <trkpt lat="45.83127" lon="5.69928">
        <ele>339.37609789528</ele>
        <time>2015-10-11T14:36:49Z</time>
      </trkpt>
      <trkpt lat="45.83139" lon="5.69914">
        <ele>340.55234675352</ele>
        <time>2015-10-11T14:37:04Z</time>
      </trkpt>
      <trkpt lat="45.83145" lon="5.6991">
        <ele>340.55234675352</ele>
        <time>2015-10-11T14:37:09Z</time>
      </trkpt>
      <trkpt lat="45.83161" lon="5.69913">
        <ele>343.0856209222</ele>
        <time>2015-10-11T14:37:19Z</time>
      </trkpt>
      <trkpt lat="45.83169" lon="5.69917">
        <ele>343.0856209222</ele>
        <time>2015-10-11T14:37:24Z</time>
      </trkpt>
      <trkpt lat="45.83178" lon="5.6993">
        <ele>345.48629015421</ele>
        <time>2015-10-11T14:37:34Z</time>
      </trkpt>
      <trkpt lat="45.83184" lon="5.69933">
        <ele>345.48629015421</ele>
        <time>2015-10-11T14:37:39Z</time>
      </trkpt>
      <trkpt lat="45.83192" lon="5.69935">
        <ele>347.8156883562</ele>
        <time>2015-10-11T14:37:49Z</time>
      </trkpt>
      <trkpt lat="45.83198" lon="5.69939">
        <ele>347.8156883562</ele>
        <time>2015-10-11T14:37:54Z</time>
      </trkpt>
      <trkpt lat="45.8321" lon="5.69944">
        <ele>348.53127283806</ele>
        <time>2015-10-11T14:38:04Z</time>
      </trkpt>
      <trkpt lat="45.83212" lon="5.69948">
        <ele>348.53127283806</ele>
        <time>2015-10-11T14:38:09Z</time>
      </trkpt>
      <trkpt lat="45.83218" lon="5.69944">
        <ele>350.09941652288</ele>
        <time>2015-10-11T14:38:19Z</time>
      </trkpt>
      <trkpt lat="45.83222" lon="5.6994">
        <ele>350.09941652288</ele>
        <time>2015-10-11T14:38:24Z</time>
      </trkpt>
      <trkpt lat="45.83232" lon="5.69932">
        <ele>351.12816547213</ele>
        <time>2015-10-11T14:38:34Z</time>
      </trkpt>
      <trkpt lat="45.83237" lon="5.69928">
        <ele>351.12816547213</ele>
        <time>2015-10-11T14:38:39Z</time>
      </trkpt>
      <trkpt lat="45.83247" lon="5.69916">
        <ele>351.90022249997</ele>
        <time>2015-10-11T14:38:49Z</time>
      </trkpt>
      <trkpt lat="45.83251" lon="5.6991">
        <ele>351.90022249997</ele>
        <time>2015-10-11T14:38:54Z</time>
      </trkpt>
      <trkpt lat="45.83259" lon="5.69903">
        <ele>352.37568868425</ele>
        <time>2015-10-11T14:39:04Z</time>
      </trkpt>
      <trkpt lat="45.83261" lon="5.69895">
        <ele>352.37568868425</ele>
        <time>2015-10-11T14:39:09Z</time>
      </trkpt>
      <trkpt lat="45.83276" lon="5.69879">
        <ele>352.28792606508</ele>
        <time>2015-10-11T14:39:24Z</time>
      </trkpt>
      <trkpt lat="45.83282" lon="5.69877">
        <ele>352.28792606508</ele>
        <time>2015-10-11T14:39:29Z</time>
      </trkpt>
      <trkpt lat="45.83291" lon="5.6987">
        <ele>351.9103337596</ele>
        <time>2015-10-11T14:39:39Z</time>
      </trkpt>
      <trkpt lat="45.83295" lon="5.69869">
        <ele>351.9103337596</ele>
        <time>2015-10-11T14:39:44Z</time>
      </trkpt>
      <trkpt lat="45.83299" lon="5.69862">
        <ele>351.28093450171</ele>
        <time>2015-10-11T14:39:54Z</time>
      </trkpt>
      <trkpt lat="45.83304" lon="5.69855">
        <ele>351.28093450171</ele>
        <time>2015-10-11T14:39:59Z</time>
      </trkpt>
      <trkpt lat="45.83316" lon="5.69853">
        <ele>350.66629251204</ele>
        <time>2015-10-11T14:40:09Z</time>
      </trkpt>
      <trkpt lat="45.83324" lon="5.69857">
        <ele>350.66629251204</ele>
        <time>2015-10-11T14:40:14Z</time>
      </trkpt>
      <trkpt lat="45.83344" lon="5.69886">
        <ele>351.17805640437</ele>
        <time>2015-10-11T14:40:24Z</time>
      </trkpt>
      <trkpt lat="45.83349" lon="5.69901">
        <ele>351.92640754597</ele>
        <time>2015-10-11T14:40:29Z</time>
      </trkpt>
      <trkpt lat="45.83357" lon="5.69921">
        <ele>352.64828951713</ele>
        <time>2015-10-11T14:40:39Z</time>
      </trkpt>
      <trkpt lat="45.83359" lon="5.69931">
        <ele>352.64828951713</ele>
        <time>2015-10-11T14:40:44Z</time>
      </trkpt>
      <trkpt lat="45.83364" lon="5.69951">
        <ele>353.95032545289</ele>
        <time>2015-10-11T14:40:54Z</time>
      </trkpt>
      <trkpt lat="45.83368" lon="5.69961">
        <ele>353.95032545289</ele>
        <time>2015-10-11T14:40:59Z</time>
      </trkpt>
      <trkpt lat="45.83371" lon="5.69983">
        <ele>355.47066456262</ele>
        <time>2015-10-11T14:41:09Z</time>
      </trkpt>
      <trkpt lat="45.83374" lon="5.69993">
        <ele>355.47066456262</ele>
        <time>2015-10-11T14:41:14Z</time>
      </trkpt>
      <trkpt lat="45.83375" lon="5.70027">
        <ele>357.32020071845</ele>
        <time>2015-10-11T14:41:29Z</time>
      </trkpt>
      <trkpt lat="45.8338" lon="5.7003">
        <ele>357.32020071845</ele>
        <time>2015-10-11T14:41:34Z</time>
      </trkpt>
      <trkpt lat="45.83391" lon="5.70038">
        <ele>358.95229408084</ele>
        <time>2015-10-11T14:41:44Z</time>
      </trkpt>
      <trkpt lat="45.83395" lon="5.7004">
        <ele>358.95229408084</ele>
        <time>2015-10-11T14:41:49Z</time>
      </trkpt>
      <trkpt lat="45.83395" lon="5.70041">
        <ele>358.95229408084</ele>
        <time>2015-10-11T14:41:59Z</time>
      </trkpt>
      <trkpt lat="45.83396" lon="5.70041">
        <ele>358.95229408084</ele>
        <time>2015-10-11T14:42:04Z</time>
      </trkpt>
      <trkpt lat="45.83399" lon="5.70041">
        <ele>358.95229408084</ele>
        <time>2015-10-11T14:42:14Z</time>
      </trkpt>
      <trkpt lat="45.83403" lon="5.70042">
        <ele>360.59608007766</ele>
        <time>2015-10-11T14:42:19Z</time>
      </trkpt>
      <trkpt lat="45.83416" lon="5.70036">
        <ele>362.63681192768</ele>
        <time>2015-10-11T14:42:29Z</time>
      </trkpt>
      <trkpt lat="45.83421" lon="5.70035">
        <ele>362.63681192768</ele>
        <time>2015-10-11T14:42:34Z</time>
      </trkpt>
      <trkpt lat="45.83436" lon="5.70036">
        <ele>364.85394056965</ele>
        <time>2015-10-11T14:42:44Z</time>
      </trkpt>
      <trkpt lat="45.83442" lon="5.70036">
        <ele>364.85394056965</ele>
        <time>2015-10-11T14:42:49Z</time>
      </trkpt>
      <trkpt lat="45.83454" lon="5.70036">
        <ele>366.52388589876</ele>
        <time>2015-10-11T14:42:59Z</time>
      </trkpt>
      <trkpt lat="45.83461" lon="5.70037">
        <ele>366.52388589876</ele>
        <time>2015-10-11T14:43:04Z</time>
      </trkpt>
      <trkpt lat="45.83475" lon="5.70039">
        <ele>367.78484696814</ele>
        <time>2015-10-11T14:43:14Z</time>
      </trkpt>
      <trkpt lat="45.83482" lon="5.70038">
        <ele>367.78484696814</ele>
        <time>2015-10-11T14:43:19Z</time>
      </trkpt>
      <trkpt lat="45.83496" lon="5.70028">
        <ele>368.60756679178</ele>
        <time>2015-10-11T14:43:29Z</time>
      </trkpt>
      <trkpt lat="45.83498" lon="5.70027">
        <ele>368.60756679178</ele>
        <time>2015-10-11T14:43:34Z</time>
      </trkpt>
      <trkpt lat="45.83508" lon="5.70022">
        <ele>370.56587421374</ele>
        <time>2015-10-11T14:43:44Z</time>
      </trkpt>
      <trkpt lat="45.83515" lon="5.70018">
        <ele>370.56587421374</ele>
        <time>2015-10-11T14:43:49Z</time>
      </trkpt>
      <trkpt lat="45.83531" lon="5.70004">
        <ele>371.78590493708</ele>
        <time>2015-10-11T14:44:04Z</time>
      </trkpt>
      <trkpt lat="45.83534" lon="5.69999">
        <ele>371.78590493708</ele>
        <time>2015-10-11T14:44:09Z</time>
      </trkpt>
      <trkpt lat="45.83546" lon="5.69987">
        <ele>372.70966926053</ele>
        <time>2015-10-11T14:44:19Z</time>
      </trkpt>
      <trkpt lat="45.83551" lon="5.69981">
        <ele>372.70966926053</ele>
        <time>2015-10-11T14:44:24Z</time>
      </trkpt>
      <trkpt lat="45.83561" lon="5.69962">
        <ele>373.74760944593</ele>
        <time>2015-10-11T14:44:34Z</time>
      </trkpt>
      <trkpt lat="45.83564" lon="5.69955">
        <ele>373.74760944593</ele>
        <time>2015-10-11T14:44:39Z</time>
      </trkpt>
      <trkpt lat="45.83572" lon="5.69945">
        <ele>374.1412861749</ele>
        <time>2015-10-11T14:44:49Z</time>
      </trkpt>
      <trkpt lat="45.83576" lon="5.69939">
        <ele>374.1412861749</ele>
        <time>2015-10-11T14:44:54Z</time>
      </trkpt>
      <trkpt lat="45.83582" lon="5.69926">
        <ele>374.96241276168</ele>
        <time>2015-10-11T14:45:04Z</time>
      </trkpt>
      <trkpt lat="45.83585" lon="5.69918">
        <ele>374.96241276168</ele>
        <time>2015-10-11T14:45:09Z</time>
      </trkpt>
      <trkpt lat="45.83591" lon="5.699">
        <ele>375.58878885549</ele>
        <time>2015-10-11T14:45:19Z</time>
      </trkpt>
      <trkpt lat="45.83595" lon="5.69892">
        <ele>375.58878885549</ele>
        <time>2015-10-11T14:45:24Z</time>
      </trkpt>
      <trkpt lat="45.83603" lon="5.69876">
        <ele>376.093019155</ele>
        <time>2015-10-11T14:45:34Z</time>
      </trkpt>
      <trkpt lat="45.83605" lon="5.69866">
        <ele>376.093019155</ele>
        <time>2015-10-11T14:45:39Z</time>
      </trkpt>
      <trkpt lat="45.83617" lon="5.69856">
        <ele>376.80216371893</ele>
        <time>2015-10-11T14:45:49Z</time>
      </trkpt>
      <trkpt lat="45.83619" lon="5.69851">
        <ele>376.80216371893</ele>
        <time>2015-10-11T14:45:54Z</time>
      </trkpt>
      <trkpt lat="45.83621" lon="5.6984">
        <ele>377.24052208929</ele>
        <time>2015-10-11T14:46:04Z</time>
      </trkpt>
      <trkpt lat="45.83624" lon="5.69833">
        <ele>377.24052208929</ele>
        <time>2015-10-11T14:46:09Z</time>
      </trkpt>
      <trkpt lat="45.83632" lon="5.69815">
        <ele>377.61663256407</ele>
        <time>2015-10-11T14:46:19Z</time>
      </trkpt>
      <trkpt lat="45.83637" lon="5.69812">
        <ele>377.61663256407</ele>
        <time>2015-10-11T14:46:24Z</time>
      </trkpt>
      <trkpt lat="45.8365" lon="5.69811">
        <ele>378.98858578022</ele>
        <time>2015-10-11T14:46:34Z</time>
      </trkpt>
      <trkpt lat="45.83658" lon="5.69814">
        <ele>378.98858578022</ele>
        <time>2015-10-11T14:46:39Z</time>
      </trkpt>
      <trkpt lat="45.83691" lon="5.69832">
        <ele>379.98496598721</ele>
        <time>2015-10-11T14:46:54Z</time>
      </trkpt>
      <trkpt lat="45.83699" lon="5.69838">
        <ele>379.98496598721</ele>
        <time>2015-10-11T14:46:59Z</time>
      </trkpt>
      <trkpt lat="45.8371" lon="5.69845">
        <ele>380.50347744163</ele>
        <time>2015-10-11T14:47:09Z</time>
      </trkpt>
      <trkpt lat="45.83717" lon="5.69849">
        <ele>380.50347744163</ele>
        <time>2015-10-11T14:47:14Z</time>
      </trkpt>
      <trkpt lat="45.83731" lon="5.69859">
        <ele>380.30658698125</ele>
        <time>2015-10-11T14:47:24Z</time>
      </trkpt>
      <trkpt lat="45.83751" lon="5.69873">
        <ele>380.44440978756</ele>
        <time>2015-10-11T14:47:29Z</time>
      </trkpt>
      <trkpt lat="45.83788" lon="5.69899">
        <ele>380.92344445725</ele>
        <time>2015-10-11T14:47:39Z</time>
      </trkpt>
      <trkpt lat="45.83793" lon="5.69903">
        <ele>380.92344445725</ele>
        <time>2015-10-11T14:47:44Z</time>
      </trkpt>
      <trkpt lat="45.83801" lon="5.69908">
        <ele>380.71115488295</ele>
        <time>2015-10-11T14:47:54Z</time>
      </trkpt>
      <trkpt lat="45.83807" lon="5.6991">
        <ele>380.71115488295</ele>
        <time>2015-10-11T14:47:59Z</time>
      </trkpt>
      <trkpt lat="45.8382" lon="5.69913">
        <ele>380.32271998609</ele>
        <time>2015-10-11T14:48:09Z</time>
      </trkpt>
      <trkpt lat="45.83828" lon="5.69915">
        <ele>380.32271998609</ele>
        <time>2015-10-11T14:48:14Z</time>
      </trkpt>
      <trkpt lat="45.83841" lon="5.69919">
        <ele>380.03419699333</ele>
        <time>2015-10-11T14:48:24Z</time>
      </trkpt>
      <trkpt lat="45.83848" lon="5.6992">
        <ele>380.03419699333</ele>
        <time>2015-10-11T14:48:29Z</time>
      </trkpt>
      <trkpt lat="45.8386" lon="5.69924">
        <ele>379.14992541805</ele>
        <time>2015-10-11T14:48:39Z</time>
      </trkpt>
      <trkpt lat="45.83865" lon="5.69925">
        <ele>379.14992541805</ele>
        <time>2015-10-11T14:48:44Z</time>
      </trkpt>
      <trkpt lat="45.83874" lon="5.69928">
        <ele>377.50254925488</ele>
        <time>2015-10-11T14:48:54Z</time>
      </trkpt>
      <trkpt lat="45.8388" lon="5.69929">
        <ele>377.50254925488</ele>
        <time>2015-10-11T14:48:59Z</time>
      </trkpt>
      <trkpt lat="45.83905" lon="5.69933">
        <ele>375.67406432485</ele>
        <time>2015-10-11T14:49:14Z</time>
      </trkpt>
      <trkpt lat="45.8391" lon="5.69934">
        <ele>375.67406432485</ele>
        <time>2015-10-11T14:49:19Z</time>
      </trkpt>
      <trkpt lat="45.83923" lon="5.69938">
        <ele>374.04563477537</ele>
        <time>2015-10-11T14:49:29Z</time>
      </trkpt>
      <trkpt lat="45.83931" lon="5.69941">
        <ele>374.04563477537</ele>
        <time>2015-10-11T14:49:34Z</time>
      </trkpt>
      <trkpt lat="45.83947" lon="5.69945">
        <ele>372.59509456302</ele>
        <time>2015-10-11T14:49:44Z</time>
      </trkpt>
      <trkpt lat="45.83953" lon="5.69946">
        <ele>372.59509456302</ele>
        <time>2015-10-11T14:49:49Z</time>
      </trkpt>
      <trkpt lat="45.83968" lon="5.69949">
        <ele>371.14278998876</ele>
        <time>2015-10-11T14:49:59Z</time>
      </trkpt>
      <trkpt lat="45.83974" lon="5.69951">
        <ele>371.14278998876</ele>
        <time>2015-10-11T14:50:04Z</time>
      </trkpt>
      <trkpt lat="45.83983" lon="5.69953">
        <ele>369.23393892176</ele>
        <time>2015-10-11T14:50:14Z</time>
      </trkpt>
      <trkpt lat="45.83982" lon="5.69952">
        <ele>369.23393892176</ele>
        <time>2015-10-11T14:50:19Z</time>
      </trkpt>
      <trkpt lat="45.83988" lon="5.69953">
        <ele>369.23393892176</ele>
        <time>2015-10-11T14:50:29Z</time>
      </trkpt>
      <trkpt lat="45.83995" lon="5.69953">
        <ele>367.52916152806</ele>
        <time>2015-10-11T14:50:34Z</time>
      </trkpt>
      <trkpt lat="45.84008" lon="5.69957">
        <ele>365.76076718551</ele>
        <time>2015-10-11T14:50:44Z</time>
      </trkpt>
      <trkpt lat="45.84015" lon="5.69959">
        <ele>365.76076718551</ele>
        <time>2015-10-11T14:50:49Z</time>
      </trkpt>
      <trkpt lat="45.84024" lon="5.69962">
        <ele>364.14192219225</ele>
        <time>2015-10-11T14:50:59Z</time>
      </trkpt>
      <trkpt lat="45.84025" lon="5.69963">
        <ele>364.14192219225</ele>
        <time>2015-10-11T14:51:04Z</time>
      </trkpt>
      <trkpt lat="45.84035" lon="5.69965">
        <ele>362.2210626095</ele>
        <time>2015-10-11T14:51:14Z</time>
      </trkpt>
      <trkpt lat="45.84036" lon="5.69965">
        <ele>362.2210626095</ele>
        <time>2015-10-11T14:51:19Z</time>
      </trkpt>
      <trkpt lat="45.8405" lon="5.69974">
        <ele>359.86870509389</ele>
        <time>2015-10-11T14:51:34Z</time>
      </trkpt>
      <trkpt lat="45.84057" lon="5.69977">
        <ele>359.86870509389</ele>
        <time>2015-10-11T14:51:39Z</time>
      </trkpt>
      <trkpt lat="45.8407" lon="5.69983">
        <ele>357.5279525092</ele>
        <time>2015-10-11T14:51:49Z</time>
      </trkpt>
      <trkpt lat="45.84076" lon="5.69987">
        <ele>357.5279525092</ele>
        <time>2015-10-11T14:51:54Z</time>
      </trkpt>
      <trkpt lat="45.84088" lon="5.69993">
        <ele>355.37856889842</ele>
        <time>2015-10-11T14:52:04Z</time>
      </trkpt>
      <trkpt lat="45.84097" lon="5.69998">
        <ele>353.61521216236</ele>
        <time>2015-10-11T14:52:09Z</time>
      </trkpt>
      <trkpt lat="45.84105" lon="5.70003">
        <ele>353.61521216236</ele>
        <time>2015-10-11T14:52:19Z</time>
      </trkpt>
      <trkpt lat="45.84109" lon="5.70003">
        <ele>352.20079918172</ele>
        <time>2015-10-11T14:52:24Z</time>
      </trkpt>
      <trkpt lat="45.84131" lon="5.69999">
        <ele>350.65305225604</ele>
        <time>2015-10-11T14:52:34Z</time>
      </trkpt>
      <trkpt lat="45.84136" lon="5.69998">
        <ele>350.65305225604</ele>
        <time>2015-10-11T14:52:39Z</time>
      </trkpt>
      <trkpt lat="45.84147" lon="5.69994">
        <ele>348.9143993276</ele>
        <time>2015-10-11T14:52:49Z</time>
      </trkpt>
      <trkpt lat="45.84155" lon="5.69992">
        <ele>348.9143993276</ele>
        <time>2015-10-11T14:52:54Z</time>
      </trkpt>
      <trkpt lat="45.84172" lon="5.69987">
        <ele>346.90301417454</ele>
        <time>2015-10-11T14:53:04Z</time>
      </trkpt>
      <trkpt lat="45.84182" lon="5.69984">
        <ele>345.1056835732</ele>
        <time>2015-10-11T14:53:09Z</time>
      </trkpt>
      <trkpt lat="45.84195" lon="5.69979">
        <ele>343.62677183089</ele>
        <time>2015-10-11T14:53:19Z</time>
      </trkpt>
      <trkpt lat="45.84203" lon="5.69977">
        <ele>343.62677183089</ele>
        <time>2015-10-11T14:53:24Z</time>
      </trkpt>
      <trkpt lat="45.84216" lon="5.69972">
        <ele>342.27366629164</ele>
        <time>2015-10-11T14:53:34Z</time>
      </trkpt>
      <trkpt lat="45.84223" lon="5.69969">
        <ele>342.27366629164</ele>
        <time>2015-10-11T14:53:39Z</time>
      </trkpt>
      <trkpt lat="45.84242" lon="5.69962">
        <ele>340.99705859467</ele>
        <time>2015-10-11T14:53:49Z</time>
      </trkpt>
      <trkpt lat="45.84254" lon="5.69962">
        <ele>339.72203811178</ele>
        <time>2015-10-11T14:53:54Z</time>
      </trkpt>
      <trkpt lat="45.84256" lon="5.69963">
        <ele>339.72203811178</ele>
        <time>2015-10-11T14:54:04Z</time>
      </trkpt>
      <trkpt lat="45.84256" lon="5.69963">
        <ele>339.72203811178</ele>
        <time>2015-10-11T14:54:09Z</time>
      </trkpt>
      <trkpt lat="45.84256" lon="5.69963">
        <ele>339.72203811178</ele>
        <time>2015-10-11T14:54:24Z</time>
      </trkpt>
      <trkpt lat="45.84256" lon="5.69963">
        <ele>339.72203811178</ele>
        <time>2015-10-11T14:54:29Z</time>
      </trkpt>
      <trkpt lat="45.84257" lon="5.69964">
        <ele>339.72203811178</ele>
        <time>2015-10-11T14:54:39Z</time>
      </trkpt>
      <trkpt lat="45.84257" lon="5.69964">
        <ele>339.72203811178</ele>
        <time>2015-10-11T14:54:44Z</time>
      </trkpt>
      <trkpt lat="45.84257" lon="5.69964">
        <ele>339.72203811178</ele>
        <time>2015-10-11T14:54:54Z</time>
      </trkpt>
      <trkpt lat="45.84258" lon="5.69962">
        <ele>339.72203811178</ele>
        <time>2015-10-11T14:54:59Z</time>
      </trkpt>
      <trkpt lat="45.84257" lon="5.69964">
        <ele>339.72203811178</ele>
        <time>2015-10-11T14:55:09Z</time>
      </trkpt>
      <trkpt lat="45.84257" lon="5.69965">
        <ele>339.72203811178</ele>
        <time>2015-10-11T14:55:14Z</time>
      </trkpt>
      <trkpt lat="45.84257" lon="5.69966">
        <ele>339.72203811178</ele>
        <time>2015-10-11T14:55:24Z</time>
      </trkpt>
      <trkpt lat="45.84256" lon="5.69966">
        <ele>337.74492021815</ele>
        <time>2015-10-11T14:55:29Z</time>
      </trkpt>
      <trkpt lat="45.84256" lon="5.69966">
        <ele>337.74492021815</ele>
        <time>2015-10-11T14:55:39Z</time>
      </trkpt>
      <trkpt lat="45.84256" lon="5.69966">
        <ele>337.74492021815</ele>
        <time>2015-10-11T14:55:44Z</time>
      </trkpt>
      <trkpt lat="45.84256" lon="5.69966">
        <ele>337.74492021815</ele>
        <time>2015-10-11T14:55:54Z</time>
      </trkpt>
      <trkpt lat="45.84256" lon="5.69966">
        <ele>337.74492021815</ele>
        <time>2015-10-11T14:55:59Z</time>
      </trkpt>
      <trkpt lat="45.84256" lon="5.69966">
        <ele>337.74492021815</ele>
        <time>2015-10-11T14:56:09Z</time>
      </trkpt>
      <trkpt lat="45.84255" lon="5.69968">
        <ele>337.74492021815</ele>
        <time>2015-10-11T14:56:14Z</time>
      </trkpt>
      <trkpt lat="45.84255" lon="5.69967">
        <ele>337.74492021815</ele>
        <time>2015-10-11T14:56:24Z</time>
      </trkpt>
      <trkpt lat="45.84255" lon="5.69967">
        <ele>337.74492021815</ele>
        <time>2015-10-11T14:56:29Z</time>
      </trkpt>
      <trkpt lat="45.84257" lon="5.69967">
        <ele>337.74492021815</ele>
        <time>2015-10-11T14:56:39Z</time>
      </trkpt>
      <trkpt lat="45.84261" lon="5.69966">
        <ele>335.94308141391</ele>
        <time>2015-10-11T14:56:44Z</time>
      </trkpt>
      <trkpt lat="45.84286" lon="5.69975">
        <ele>335.04231403653</ele>
        <time>2015-10-11T14:56:59Z</time>
      </trkpt>
      <trkpt lat="45.84291" lon="5.69977">
        <ele>335.04231403653</ele>
        <time>2015-10-11T14:57:04Z</time>
      </trkpt>
      <trkpt lat="45.84307" lon="5.69985">
        <ele>334.21364139997</ele>
        <time>2015-10-11T14:57:14Z</time>
      </trkpt>
      <trkpt lat="45.84314" lon="5.69988">
        <ele>334.21364139997</ele>
        <time>2015-10-11T14:57:19Z</time>
      </trkpt>
      <trkpt lat="45.84327" lon="5.69993">
        <ele>333.42358568367</ele>
        <time>2015-10-11T14:57:29Z</time>
      </trkpt>
      <trkpt lat="45.84334" lon="5.69996">
        <ele>333.42358568367</ele>
        <time>2015-10-11T14:57:34Z</time>
      </trkpt>
      <trkpt lat="45.8435" lon="5.69997">
        <ele>333.04437906657</ele>
        <time>2015-10-11T14:57:44Z</time>
      </trkpt>
      <trkpt lat="45.84357" lon="5.69992">
        <ele>333.04437906657</ele>
        <time>2015-10-11T14:57:49Z</time>
      </trkpt>
      <trkpt lat="45.84374" lon="5.69972">
        <ele>332.49730475814</ele>
        <time>2015-10-11T14:57:59Z</time>
      </trkpt>
      <trkpt lat="45.84378" lon="5.69967">
        <ele>332.49730475814</ele>
        <time>2015-10-11T14:58:04Z</time>
      </trkpt>
      <trkpt lat="45.84391" lon="5.69955">
        <ele>332.12557807773</ele>
        <time>2015-10-11T14:58:14Z</time>
      </trkpt>
      <trkpt lat="45.844" lon="5.69955">
        <ele>331.8719042211</ele>
        <time>2015-10-11T14:58:19Z</time>
      </trkpt>
      <trkpt lat="45.84409" lon="5.69969">
        <ele>331.85569555543</ele>
        <time>2015-10-11T14:58:29Z</time>
      </trkpt>
      <trkpt lat="45.84412" lon="5.69979">
        <ele>331.85569555543</ele>
        <time>2015-10-11T14:58:34Z</time>
      </trkpt>
      <trkpt lat="45.84418" lon="5.70002">
        <ele>331.58156798917</ele>
        <time>2015-10-11T14:58:44Z</time>
      </trkpt>
      <trkpt lat="45.84421" lon="5.70013">
        <ele>331.58156798917</ele>
        <time>2015-10-11T14:58:49Z</time>
      </trkpt>
      <trkpt lat="45.84428" lon="5.70033">
        <ele>331.196439266</ele>
        <time>2015-10-11T14:58:59Z</time>
      </trkpt>
      <trkpt lat="45.84432" lon="5.70041">
        <ele>331.196439266</ele>
        <time>2015-10-11T14:59:04Z</time>
      </trkpt>
      <trkpt lat="45.84444" lon="5.70068">
        <ele>330.69256690299</ele>
        <time>2015-10-11T14:59:19Z</time>
      </trkpt>
      <trkpt lat="45.84446" lon="5.70076">
        <ele>330.69256690299</ele>
        <time>2015-10-11T14:59:24Z</time>
      </trkpt>
      <trkpt lat="45.84455" lon="5.70098">
        <ele>330.06305214194</ele>
        <time>2015-10-11T14:59:34Z</time>
      </trkpt>
      <trkpt lat="45.84458" lon="5.70106">
        <ele>330.06305214194</ele>
        <time>2015-10-11T14:59:39Z</time>
      </trkpt>
      <trkpt lat="45.84467" lon="5.70125">
        <ele>329.28739421084</ele>
        <time>2015-10-11T14:59:49Z</time>
      </trkpt>
      <trkpt lat="45.84473" lon="5.7014">
        <ele>328.44784255649</ele>
        <time>2015-10-11T14:59:54Z</time>
      </trkpt>
      <trkpt lat="45.84479" lon="5.7017">
        <ele>327.93779088619</ele>
        <time>2015-10-11T15:00:04Z</time>
      </trkpt>
      <trkpt lat="45.84486" lon="5.70197">
        <ele>327.34257759597</ele>
        <time>2015-10-11T15:00:09Z</time>
      </trkpt>
      <trkpt lat="45.84488" lon="5.70223">
        <ele>326.4511467512</ele>
        <time>2015-10-11T15:00:19Z</time>
      </trkpt>
      <trkpt lat="45.84488" lon="5.7023">
        <ele>326.4511467512</ele>
        <time>2015-10-11T15:00:24Z</time>
      </trkpt>
      <trkpt lat="45.84492" lon="5.70241">
        <ele>324.50671911043</ele>
        <time>2015-10-11T15:00:34Z</time>
      </trkpt>
      <trkpt lat="45.84494" lon="5.70251">
        <ele>324.50671911043</ele>
        <time>2015-10-11T15:00:39Z</time>
      </trkpt>
      <trkpt lat="45.845" lon="5.70275">
        <ele>324.21206435543</ele>
        <time>2015-10-11T15:00:49Z</time>
      </trkpt>
      <trkpt lat="45.84504" lon="5.70284">
        <ele>324.21206435543</ele>
        <time>2015-10-11T15:00:54Z</time>
      </trkpt>
      <trkpt lat="45.84515" lon="5.70296">
        <ele>323.78665996749</ele>
        <time>2015-10-11T15:01:04Z</time>
      </trkpt>
      <trkpt lat="45.84522" lon="5.703">
        <ele>323.78665996749</ele>
        <time>2015-10-11T15:01:09Z</time>
      </trkpt>
      <trkpt lat="45.84534" lon="5.70305">
        <ele>323.97337732877</ele>
        <time>2015-10-11T15:01:19Z</time>
      </trkpt>
      <trkpt lat="45.8454" lon="5.70305">
        <ele>323.97337732877</ele>
        <time>2015-10-11T15:01:24Z</time>
      </trkpt>
      <trkpt lat="45.84557" lon="5.70302">
        <ele>324.34913602448</ele>
        <time>2015-10-11T15:01:39Z</time>
      </trkpt>
      <trkpt lat="45.84563" lon="5.703">
        <ele>324.34913602448</ele>
        <time>2015-10-11T15:01:44Z</time>
      </trkpt>
      <trkpt lat="45.84572" lon="5.70297">
        <ele>324.53581727574</ele>
        <time>2015-10-11T15:01:54Z</time>
      </trkpt>
      <trkpt lat="45.84577" lon="5.70296">
        <ele>324.53581727574</ele>
        <time>2015-10-11T15:01:59Z</time>
      </trkpt>
      <trkpt lat="45.84594" lon="5.70292">
        <ele>324.87535436345</ele>
        <time>2015-10-11T15:02:09Z</time>
      </trkpt>
      <trkpt lat="45.84604" lon="5.70292">
        <ele>325.3959334699</ele>
        <time>2015-10-11T15:02:14Z</time>
      </trkpt>
      <trkpt lat="45.84622" lon="5.70294">
        <ele>326.2673065554</ele>
        <time>2015-10-11T15:02:24Z</time>
      </trkpt>
      <trkpt lat="45.8463" lon="5.70297">
        <ele>326.2673065554</ele>
        <time>2015-10-11T15:02:29Z</time>
      </trkpt>
      <trkpt lat="45.84644" lon="5.70296">
        <ele>327.24230430247</ele>
        <time>2015-10-11T15:02:39Z</time>
      </trkpt>
      <trkpt lat="45.8465" lon="5.70297">
        <ele>327.24230430247</ele>
        <time>2015-10-11T15:02:44Z</time>
      </trkpt>
      <trkpt lat="45.84664" lon="5.70297">
        <ele>326.98202081068</ele>
        <time>2015-10-11T15:02:54Z</time>
      </trkpt>
      <trkpt lat="45.84668" lon="5.70297">
        <ele>326.98202081068</ele>
        <time>2015-10-11T15:02:59Z</time>
      </trkpt>
      <trkpt lat="45.84672" lon="5.70298">
        <ele>326.98202081068</ele>
        <time>2015-10-11T15:03:09Z</time>
      </trkpt>
      <trkpt lat="45.84679" lon="5.70302">
        <ele>327.08842242196</ele>
        <time>2015-10-11T15:03:14Z</time>
      </trkpt>
      <trkpt lat="45.84696" lon="5.70308">
        <ele>327.48843522579</ele>
        <time>2015-10-11T15:03:24Z</time>
      </trkpt>
      <trkpt lat="45.84705" lon="5.7031">
        <ele>327.594802331</ele>
        <time>2015-10-11T15:03:29Z</time>
      </trkpt>
      <trkpt lat="45.8473" lon="5.70316">
        <ele>327.22458327438</ele>
        <time>2015-10-11T15:03:44Z</time>
      </trkpt>
      <trkpt lat="45.84735" lon="5.7032">
        <ele>327.22458327438</ele>
        <time>2015-10-11T15:03:49Z</time>
      </trkpt>
      <trkpt lat="45.84736" lon="5.70339">
        <ele>327.16082441373</ele>
        <time>2015-10-11T15:03:59Z</time>
      </trkpt>
      <trkpt lat="45.84722" lon="5.70348">
        <ele>327.3212466794</ele>
        <time>2015-10-11T15:04:04Z</time>
      </trkpt>
      <trkpt lat="45.84718" lon="5.70355">
        <ele>327.3212466794</ele>
        <time>2015-10-11T15:04:14Z</time>
      </trkpt>
      <trkpt lat="45.84714" lon="5.70359">
        <ele>327.35525449827</ele>
        <time>2015-10-11T15:04:19Z</time>
      </trkpt>
      <trkpt lat="45.84701" lon="5.70373">
        <ele>327.1690188609</ele>
        <time>2015-10-11T15:04:29Z</time>
      </trkpt>
      <trkpt lat="45.84691" lon="5.70384">
        <ele>327.33921288606</ele>
        <time>2015-10-11T15:04:34Z</time>
      </trkpt>
      <trkpt lat="45.8468" lon="5.70394">
        <ele>327.79396216363</ele>
        <time>2015-10-11T15:04:44Z</time>
      </trkpt>
      <trkpt lat="45.84675" lon="5.704">
        <ele>327.79396216363</ele>
        <time>2015-10-11T15:04:49Z</time>
      </trkpt>
      <trkpt lat="45.84664" lon="5.70415">
        <ele>328.48036794011</ele>
        <time>2015-10-11T15:04:59Z</time>
      </trkpt>
      <trkpt lat="45.8466" lon="5.70426">
        <ele>328.48036794011</ele>
        <time>2015-10-11T15:05:04Z</time>
      </trkpt>
      <trkpt lat="45.8465" lon="5.70438">
        <ele>329.8388321459</ele>
        <time>2015-10-11T15:05:14Z</time>
      </trkpt>
      <trkpt lat="45.84646" lon="5.70445">
        <ele>329.8388321459</ele>
        <time>2015-10-11T15:05:19Z</time>
      </trkpt>
      <trkpt lat="45.84637" lon="5.70462">
        <ele>330.99302226185</ele>
        <time>2015-10-11T15:05:29Z</time>
      </trkpt>
      <trkpt lat="45.84632" lon="5.7047">
        <ele>330.99302226185</ele>
        <time>2015-10-11T15:05:34Z</time>
      </trkpt>
      <trkpt lat="45.84626" lon="5.70482">
        <ele>332.05396344305</ele>
        <time>2015-10-11T15:05:44Z</time>
      </trkpt>
      <trkpt lat="45.84625" lon="5.7049">
        <ele>332.05396344305</ele>
        <time>2015-10-11T15:05:49Z</time>
      </trkpt>
      <trkpt lat="45.84621" lon="5.70504">
        <ele>331.71259970304</ele>
        <time>2015-10-11T15:05:59Z</time>
      </trkpt>
      <trkpt lat="45.84617" lon="5.70513">
        <ele>331.71259970304</ele>
        <time>2015-10-11T15:06:04Z</time>
      </trkpt>
      <trkpt lat="45.84606" lon="5.7054">
        <ele>331.19555442041</ele>
        <time>2015-10-11T15:06:19Z</time>
      </trkpt>
      <trkpt lat="45.84604" lon="5.70552">
        <ele>331.19555442041</ele>
        <time>2015-10-11T15:06:24Z</time>
      </trkpt>
      <trkpt lat="45.84607" lon="5.70568">
        <ele>331.40936218704</ele>
        <time>2015-10-11T15:06:34Z</time>
      </trkpt>
      <trkpt lat="45.84611" lon="5.70576">
        <ele>331.40936218704</ele>
        <time>2015-10-11T15:06:39Z</time>
      </trkpt>
      <trkpt lat="45.84619" lon="5.70595">
        <ele>331.75090211523</ele>
        <time>2015-10-11T15:06:49Z</time>
      </trkpt>
      <trkpt lat="45.84623" lon="5.70604">
        <ele>331.75090211523</ele>
        <time>2015-10-11T15:06:54Z</time>
      </trkpt>
      <trkpt lat="45.84634" lon="5.70629">
        <ele>332.59781934013</ele>
        <time>2015-10-11T15:07:04Z</time>
      </trkpt>
      <trkpt lat="45.84639" lon="5.70637">
        <ele>332.59781934013</ele>
        <time>2015-10-11T15:07:09Z</time>
      </trkpt>
      <trkpt lat="45.8464" lon="5.70687">
        <ele>333.75107365542</ele>
        <time>2015-10-11T15:07:19Z</time>
      </trkpt>
      <trkpt lat="45.84636" lon="5.70721">
        <ele>335.11195233247</ele>
        <time>2015-10-11T15:07:24Z</time>
      </trkpt>
      <trkpt lat="45.84627" lon="5.708">
        <ele>335.39238974563</ele>
        <time>2015-10-11T15:07:34Z</time>
      </trkpt>
      <trkpt lat="45.84621" lon="5.70835">
        <ele>335.04494072656</ele>
        <time>2015-10-11T15:07:39Z</time>
      </trkpt>
      <trkpt lat="45.8463" lon="5.70912">
        <ele>335.44191195504</ele>
        <time>2015-10-11T15:07:54Z</time>
      </trkpt>
      <trkpt lat="45.84631" lon="5.7092">
        <ele>335.44191195504</ele>
        <time>2015-10-11T15:07:59Z</time>
      </trkpt>
      <trkpt lat="45.84637" lon="5.70939">
        <ele>336.16671108971</ele>
        <time>2015-10-11T15:08:09Z</time>
      </trkpt>
      <trkpt lat="45.8464" lon="5.70948">
        <ele>336.16671108971</ele>
        <time>2015-10-11T15:08:14Z</time>
      </trkpt>
      <trkpt lat="45.84644" lon="5.7097">
        <ele>336.94781334888</ele>
        <time>2015-10-11T15:08:24Z</time>
      </trkpt>
      <trkpt lat="45.84647" lon="5.70981">
        <ele>336.94781334888</ele>
        <time>2015-10-11T15:08:29Z</time>
      </trkpt>
      <trkpt lat="45.84653" lon="5.70993">
        <ele>336.20775052513</ele>
        <time>2015-10-11T15:08:39Z</time>
      </trkpt>
      <trkpt lat="45.84656" lon="5.70999">
        <ele>336.20775052513</ele>
        <time>2015-10-11T15:08:44Z</time>
      </trkpt>
      <trkpt lat="45.84659" lon="5.71024">
        <ele>335.89031243503</ele>
        <time>2015-10-11T15:08:54Z</time>
      </trkpt>
      <trkpt lat="45.8466" lon="5.71033">
        <ele>335.89031243503</ele>
        <time>2015-10-11T15:08:59Z</time>
      </trkpt>
      <trkpt lat="45.84663" lon="5.71052">
        <ele>335.90753935915</ele>
        <time>2015-10-11T15:09:09Z</time>
      </trkpt>
      <trkpt lat="45.84662" lon="5.71061">
        <ele>335.90753935915</ele>
        <time>2015-10-11T15:09:14Z</time>
      </trkpt>
      <trkpt lat="45.8466" lon="5.71082">
        <ele>336.06178072584</ele>
        <time>2015-10-11T15:09:24Z</time>
      </trkpt>
      <trkpt lat="45.84656" lon="5.71089">
        <ele>336.06178072584</ele>
        <time>2015-10-11T15:09:29Z</time>
      </trkpt>
      <trkpt lat="45.84645" lon="5.71102">
        <ele>335.69402195636</ele>
        <time>2015-10-11T15:09:39Z</time>
      </trkpt>
      <trkpt lat="45.8464" lon="5.71109">
        <ele>335.69402195636</ele>
        <time>2015-10-11T15:09:44Z</time>
      </trkpt>
      <trkpt lat="45.84615" lon="5.71133">
        <ele>335.31925231935</ele>
        <time>2015-10-11T15:09:59Z</time>
      </trkpt>
      <trkpt lat="45.84609" lon="5.71139">
        <ele>335.31925231935</ele>
        <time>2015-10-11T15:10:04Z</time>
      </trkpt>
      <trkpt lat="45.84598" lon="5.71149">
        <ele>334.9823716588</ele>
        <time>2015-10-11T15:10:14Z</time>
      </trkpt>
      <trkpt lat="45.84596" lon="5.71153">
        <ele>334.9823716588</ele>
        <time>2015-10-11T15:10:19Z</time>
      </trkpt>
      <trkpt lat="45.84582" lon="5.71168">
        <ele>334.10524462798</ele>
        <time>2015-10-11T15:10:29Z</time>
      </trkpt>
      <trkpt lat="45.84576" lon="5.71175">
        <ele>334.10524462798</ele>
        <time>2015-10-11T15:10:34Z</time>
      </trkpt>
      <trkpt lat="45.84568" lon="5.71197">
        <ele>333.10489312433</ele>
        <time>2015-10-11T15:10:44Z</time>
      </trkpt>
      <trkpt lat="45.84564" lon="5.71208">
        <ele>333.10489312433</ele>
        <time>2015-10-11T15:10:49Z</time>
      </trkpt>
      <trkpt lat="45.84551" lon="5.71229">
        <ele>332.51219136397</ele>
        <time>2015-10-11T15:10:59Z</time>
      </trkpt>
      <trkpt lat="45.84546" lon="5.71239">
        <ele>332.51219136397</ele>
        <time>2015-10-11T15:11:04Z</time>
      </trkpt>
      <trkpt lat="45.84536" lon="5.71253">
        <ele>331.82352571224</ele>
        <time>2015-10-11T15:11:14Z</time>
      </trkpt>
      <trkpt lat="45.84531" lon="5.7126">
        <ele>331.82352571224</ele>
        <time>2015-10-11T15:11:19Z</time>
      </trkpt>
      <trkpt lat="45.84519" lon="5.71268">
        <ele>330.80313587352</ele>
        <time>2015-10-11T15:11:29Z</time>
      </trkpt>
      <trkpt lat="45.84515" lon="5.71272">
        <ele>330.80313587352</ele>
        <time>2015-10-11T15:11:34Z</time>
      </trkpt>
      <trkpt lat="45.84496" lon="5.71289">
        <ele>328.65706673446</ele>
        <time>2015-10-11T15:11:49Z</time>
      </trkpt>
      <trkpt lat="45.84489" lon="5.71296">
        <ele>328.65706673446</ele>
        <time>2015-10-11T15:11:54Z</time>
      </trkpt>
      <trkpt lat="45.84478" lon="5.71303">
        <ele>326.29570022354</ele>
        <time>2015-10-11T15:12:04Z</time>
      </trkpt>
      <trkpt lat="45.8447" lon="5.71307">
        <ele>326.29570022354</ele>
        <time>2015-10-11T15:12:09Z</time>
      </trkpt>
      <trkpt lat="45.8445" lon="5.71323">
        <ele>324.3469540046</ele>
        <time>2015-10-11T15:12:19Z</time>
      </trkpt>
      <trkpt lat="45.84442" lon="5.71328">
        <ele>324.3469540046</ele>
        <time>2015-10-11T15:12:24Z</time>
      </trkpt>
      <trkpt lat="45.84428" lon="5.71337">
        <ele>322.64204352083</ele>
        <time>2015-10-11T15:12:34Z</time>
      </trkpt>
      <trkpt lat="45.84418" lon="5.71341">
        <ele>321.12472263433</ele>
        <time>2015-10-11T15:12:39Z</time>
      </trkpt>
      <trkpt lat="45.84402" lon="5.71353">
        <ele>319.62699619686</ele>
        <time>2015-10-11T15:12:49Z</time>
      </trkpt>
      <trkpt lat="45.84388" lon="5.7136">
        <ele>318.69922605337</ele>
        <time>2015-10-11T15:12:54Z</time>
      </trkpt>
      <trkpt lat="45.84336" lon="5.71369">
        <ele>317.94176666342</ele>
        <time>2015-10-11T15:13:04Z</time>
      </trkpt>
      <trkpt lat="45.84306" lon="5.71369">
        <ele>317.74756075393</ele>
        <time>2015-10-11T15:13:09Z</time>
      </trkpt>
      <trkpt lat="45.84256" lon="5.71361">
        <ele>317.62876967542</ele>
        <time>2015-10-11T15:13:19Z</time>
      </trkpt>
      <trkpt lat="45.84239" lon="5.71345">
        <ele>317.796014725</ele>
        <time>2015-10-11T15:13:24Z</time>
      </trkpt>
      <trkpt lat="45.84222" lon="5.7133">
        <ele>318.76061811147</ele>
        <time>2015-10-11T15:13:34Z</time>
      </trkpt>
      <trkpt lat="45.84215" lon="5.71327">
        <ele>318.76061811147</ele>
        <time>2015-10-11T15:13:39Z</time>
      </trkpt>
      <trkpt lat="45.84208" lon="5.71341">
        <ele>319.32235375511</ele>
        <time>2015-10-11T15:13:49Z</time>
      </trkpt>
      <trkpt lat="45.84205" lon="5.7135">
        <ele>319.32235375511</ele>
        <time>2015-10-11T15:13:54Z</time>
      </trkpt>
      <trkpt lat="45.84199" lon="5.71369">
        <ele>319.45107605225</ele>
        <time>2015-10-11T15:14:04Z</time>
      </trkpt>
      <trkpt lat="45.84194" lon="5.71379">
        <ele>319.45107605225</ele>
        <time>2015-10-11T15:14:09Z</time>
      </trkpt>
      <trkpt lat="45.8418" lon="5.71405">
        <ele>319.17767022694</ele>
        <time>2015-10-11T15:14:24Z</time>
      </trkpt>
      <trkpt lat="45.84175" lon="5.71414">
        <ele>319.17767022694</ele>
        <time>2015-10-11T15:14:29Z</time>
      </trkpt>
      <trkpt lat="45.84167" lon="5.71445">
        <ele>318.58948867516</ele>
        <time>2015-10-11T15:14:39Z</time>
      </trkpt>
      <trkpt lat="45.84168" lon="5.71454">
        <ele>318.58948867516</ele>
        <time>2015-10-11T15:14:44Z</time>
      </trkpt>
      <trkpt lat="45.8416" lon="5.71478">
        <ele>317.62420482891</ele>
        <time>2015-10-11T15:14:54Z</time>
      </trkpt>
      <trkpt lat="45.84159" lon="5.71482">
        <ele>317.62420482891</ele>
        <time>2015-10-11T15:14:59Z</time>
      </trkpt>
      <trkpt lat="45.84158" lon="5.71483">
        <ele>317.62420482891</ele>
        <time>2015-10-11T15:15:09Z</time>
      </trkpt>
      <trkpt lat="45.84157" lon="5.71483">
        <ele>317.62420482891</ele>
        <time>2015-10-11T15:15:14Z</time>
      </trkpt>
      <trkpt lat="45.84148" lon="5.71494">
        <ele>317.39239617339</ele>
        <time>2015-10-11T15:15:24Z</time>
      </trkpt>
      <trkpt lat="45.84145" lon="5.71504">
        <ele>317.39239617339</ele>
        <time>2015-10-11T15:15:29Z</time>
      </trkpt>
      <trkpt lat="45.84145" lon="5.71524">
        <ele>316.49989898122</ele>
        <time>2015-10-11T15:15:39Z</time>
      </trkpt>
      <trkpt lat="45.84145" lon="5.71533">
        <ele>316.49989898122</ele>
        <time>2015-10-11T15:15:44Z</time>
      </trkpt>
      <trkpt lat="45.84144" lon="5.71539">
        <ele>315.47258296322</ele>
        <time>2015-10-11T15:15:59Z</time>
      </trkpt>
      <trkpt lat="45.84145" lon="5.71524">
        <ele>314.43775102209</ele>
        <time>2015-10-11T15:16:04Z</time>
      </trkpt>
      <trkpt lat="45.84144" lon="5.71506">
        <ele>314.13301557834</ele>
        <time>2015-10-11T15:16:14Z</time>
      </trkpt>
      <trkpt lat="45.84144" lon="5.71505">
        <ele>314.13301557834</ele>
        <time>2015-10-11T15:16:19Z</time>
      </trkpt>
      <trkpt lat="45.84151" lon="5.7149">
        <ele>313.79860565766</ele>
        <time>2015-10-11T15:16:29Z</time>
      </trkpt>
      <trkpt lat="45.84156" lon="5.71491">
        <ele>313.79860565766</ele>
        <time>2015-10-11T15:16:34Z</time>
      </trkpt>
      <trkpt lat="45.84159" lon="5.71507">
        <ele>313.26381823764</ele>
        <time>2015-10-11T15:16:44Z</time>
      </trkpt>
      <trkpt lat="45.8416" lon="5.71516">
        <ele>313.26381823764</ele>
        <time>2015-10-11T15:16:49Z</time>
      </trkpt>
      <trkpt lat="45.84164" lon="5.71542">
        <ele>313.206860122</ele>
        <time>2015-10-11T15:16:59Z</time>
      </trkpt>
      <trkpt lat="45.84164" lon="5.71554">
        <ele>313.206860122</ele>
        <time>2015-10-11T15:17:04Z</time>
      </trkpt>
      <trkpt lat="45.84167" lon="5.71572">
        <ele>312.58305291824</ele>
        <time>2015-10-11T15:17:14Z</time>
      </trkpt>
      <trkpt lat="45.84167" lon="5.71581">
        <ele>312.58305291824</ele>
        <time>2015-10-11T15:17:19Z</time>
      </trkpt>
      <trkpt lat="45.84166" lon="5.71599">
        <ele>311.39156113927</ele>
        <time>2015-10-11T15:17:29Z</time>
      </trkpt>
      <trkpt lat="45.84164" lon="5.71608">
        <ele>311.39156113927</ele>
        <time>2015-10-11T15:17:34Z</time>
      </trkpt>
      <trkpt lat="45.84161" lon="5.71629">
        <ele>310.13755838777</ele>
        <time>2015-10-11T15:17:44Z</time>
      </trkpt>
      <trkpt lat="45.84157" lon="5.71644">
        <ele>309.26042645967</ele>
        <time>2015-10-11T15:17:49Z</time>
      </trkpt>
      <trkpt lat="45.84151" lon="5.71678">
        <ele>308.61855337654</ele>
        <time>2015-10-11T15:18:04Z</time>
      </trkpt>
      <trkpt lat="45.8415" lon="5.71687">
        <ele>308.61855337654</ele>
        <time>2015-10-11T15:18:09Z</time>
      </trkpt>
      <trkpt lat="45.84151" lon="5.7171">
        <ele>307.67651903076</ele>
        <time>2015-10-11T15:18:19Z</time>
      </trkpt>
      <trkpt lat="45.84151" lon="5.71722">
        <ele>307.67651903076</ele>
        <time>2015-10-11T15:18:24Z</time>
      </trkpt>
      <trkpt lat="45.84154" lon="5.71742">
        <ele>307.23603754045</ele>
        <time>2015-10-11T15:18:34Z</time>
      </trkpt>
      <trkpt lat="45.84153" lon="5.71756">
        <ele>306.82794971739</ele>
        <time>2015-10-11T15:18:39Z</time>
      </trkpt>
      <trkpt lat="45.8415" lon="5.7178">
        <ele>306.43535476134</ele>
        <time>2015-10-11T15:18:49Z</time>
      </trkpt>
      <trkpt lat="45.84148" lon="5.71789">
        <ele>306.43535476134</ele>
        <time>2015-10-11T15:18:54Z</time>
      </trkpt>
      <trkpt lat="45.84143" lon="5.71801">
        <ele>305.42283599332</ele>
        <time>2015-10-11T15:19:04Z</time>
      </trkpt>
      <trkpt lat="45.84139" lon="5.71832">
        <ele>305.53796138091</ele>
        <time>2015-10-11T15:19:09Z</time>
      </trkpt>
      <trkpt lat="45.84132" lon="5.71881">
        <ele>305.93243051397</ele>
        <time>2015-10-11T15:19:19Z</time>
      </trkpt>
      <trkpt lat="45.84132" lon="5.71889">
        <ele>305.93243051397</ele>
        <time>2015-10-11T15:19:24Z</time>
      </trkpt>
      <trkpt lat="45.8413" lon="5.71906">
        <ele>305.79062826798</ele>
        <time>2015-10-11T15:19:34Z</time>
      </trkpt>
      <trkpt lat="45.8413" lon="5.71916">
        <ele>305.79062826798</ele>
        <time>2015-10-11T15:19:39Z</time>
      </trkpt>
      <trkpt lat="45.84131" lon="5.71931">
        <ele>305.81386236755</ele>
        <time>2015-10-11T15:19:49Z</time>
      </trkpt>
      <trkpt lat="45.8413" lon="5.71942">
        <ele>305.81386236755</ele>
        <time>2015-10-11T15:19:54Z</time>
      </trkpt>
      <trkpt lat="45.8413" lon="5.71962">
        <ele>305.57061314678</ele>
        <time>2015-10-11T15:20:04Z</time>
      </trkpt>
      <trkpt lat="45.84129" lon="5.71976">
        <ele>305.28147741525</ele>
        <time>2015-10-11T15:20:09Z</time>
      </trkpt>
      <trkpt lat="45.84128" lon="5.7201">
        <ele>304.93480404243</ele>
        <time>2015-10-11T15:20:24Z</time>
      </trkpt>
      <trkpt lat="45.84128" lon="5.72023">
        <ele>304.93480404243</ele>
        <time>2015-10-11T15:20:29Z</time>
      </trkpt>
      <trkpt lat="45.84133" lon="5.72042">
        <ele>304.53436778118</ele>
        <time>2015-10-11T15:20:39Z</time>
      </trkpt>
      <trkpt lat="45.84137" lon="5.72053">
        <ele>304.53436778118</ele>
        <time>2015-10-11T15:20:44Z</time>
      </trkpt>
      <trkpt lat="45.84144" lon="5.72072">
        <ele>303.62265941369</ele>
        <time>2015-10-11T15:20:54Z</time>
      </trkpt>
      <trkpt lat="45.84149" lon="5.72085">
        <ele>302.78598861281</ele>
        <time>2015-10-11T15:20:59Z</time>
      </trkpt>
      <trkpt lat="45.84154" lon="5.72112">
        <ele>301.8468254169</ele>
        <time>2015-10-11T15:21:09Z</time>
      </trkpt>
      <trkpt lat="45.84155" lon="5.72122">
        <ele>301.8468254169</ele>
        <time>2015-10-11T15:21:14Z</time>
      </trkpt>
      <trkpt lat="45.84157" lon="5.72143">
        <ele>300.68419586891</ele>
        <time>2015-10-11T15:21:24Z</time>
      </trkpt>
      <trkpt lat="45.84159" lon="5.72154">
        <ele>300.68419586891</ele>
        <time>2015-10-11T15:21:29Z</time>
      </trkpt>
      <trkpt lat="45.84167" lon="5.72189">
        <ele>299.40279640336</ele>
        <time>2015-10-11T15:21:39Z</time>
      </trkpt>
      <trkpt lat="45.84168" lon="5.72201">
        <ele>299.40279640336</ele>
        <time>2015-10-11T15:21:44Z</time>
      </trkpt>
      <trkpt lat="45.8417" lon="5.72214">
        <ele>297.95584011303</ele>
        <time>2015-10-11T15:21:54Z</time>
      </trkpt>
      <trkpt lat="45.84171" lon="5.72219">
        <ele>297.95584011303</ele>
        <time>2015-10-11T15:21:59Z</time>
      </trkpt>
      <trkpt lat="45.84182" lon="5.72238">
        <ele>296.47335521893</ele>
        <time>2015-10-11T15:22:09Z</time>
      </trkpt>
      <trkpt lat="45.84187" lon="5.72245">
        <ele>296.47335521893</ele>
        <time>2015-10-11T15:22:14Z</time>
      </trkpt>
      <trkpt lat="45.84194" lon="5.72257">
        <ele>295.01824805327</ele>
        <time>2015-10-11T15:22:24Z</time>
      </trkpt>
      <trkpt lat="45.842" lon="5.72267">
        <ele>293.96574138778</ele>
        <time>2015-10-11T15:22:29Z</time>
      </trkpt>
      <trkpt lat="45.84206" lon="5.72285">
        <ele>292.42297359327</ele>
        <time>2015-10-11T15:22:39Z</time>
      </trkpt>
      <trkpt lat="45.84208" lon="5.72289">
        <ele>292.42297359327</ele>
        <time>2015-10-11T15:22:44Z</time>
      </trkpt>
      <trkpt lat="45.8422" lon="5.72299">
        <ele>290.21250685416</ele>
        <time>2015-10-11T15:22:54Z</time>
      </trkpt>
      <trkpt lat="45.84228" lon="5.72309">
        <ele>288.29583162122</ele>
        <time>2015-10-11T15:22:59Z</time>
      </trkpt>
      <trkpt lat="45.84243" lon="5.72343">
        <ele>287.1017763755</ele>
        <time>2015-10-11T15:23:14Z</time>
      </trkpt>
      <trkpt lat="45.84243" lon="5.72352">
        <ele>287.1017763755</ele>
        <time>2015-10-11T15:23:19Z</time>
      </trkpt>
      <trkpt lat="45.84251" lon="5.72371">
        <ele>285.93033956538</ele>
        <time>2015-10-11T15:23:29Z</time>
      </trkpt>
      <trkpt lat="45.84256" lon="5.72379">
        <ele>285.93033956538</ele>
        <time>2015-10-11T15:23:34Z</time>
      </trkpt>
      <trkpt lat="45.84263" lon="5.724">
        <ele>284.42103988992</ele>
        <time>2015-10-11T15:23:44Z</time>
      </trkpt>
      <trkpt lat="45.84266" lon="5.7241">
        <ele>284.42103988992</ele>
        <time>2015-10-11T15:23:49Z</time>
      </trkpt>
      <trkpt lat="45.84273" lon="5.72433">
        <ele>283.37924138245</ele>
        <time>2015-10-11T15:23:59Z</time>
      </trkpt>
      <trkpt lat="45.84276" lon="5.72443">
        <ele>283.37924138245</ele>
        <time>2015-10-11T15:24:04Z</time>
      </trkpt>
      <trkpt lat="45.84275" lon="5.72472">
        <ele>282.26718422547</ele>
        <time>2015-10-11T15:24:14Z</time>
      </trkpt>
      <trkpt lat="45.84273" lon="5.72482">
        <ele>282.26718422547</ele>
        <time>2015-10-11T15:24:19Z</time>
      </trkpt>
      <trkpt lat="45.8427" lon="5.72499">
        <ele>281.03349261965</ele>
        <time>2015-10-11T15:24:29Z</time>
      </trkpt>
      <trkpt lat="45.8427" lon="5.72508">
        <ele>281.03349261965</ele>
        <time>2015-10-11T15:24:34Z</time>
      </trkpt>
      <trkpt lat="45.84274" lon="5.72522">
        <ele>277.85827462611</ele>
        <time>2015-10-11T15:24:44Z</time>
      </trkpt>
      <trkpt lat="45.84273" lon="5.72534">
        <ele>277.85827462611</ele>
        <time>2015-10-11T15:24:49Z</time>
      </trkpt>
      <trkpt lat="45.84273" lon="5.72567">
        <ele>276.17665322855</ele>
        <time>2015-10-11T15:24:59Z</time>
      </trkpt>
      <trkpt lat="45.84273" lon="5.72578">
        <ele>276.17665322855</ele>
        <time>2015-10-11T15:25:04Z</time>
      </trkpt>
      <trkpt lat="45.84275" lon="5.72604">
        <ele>274.82940340317</ele>
        <time>2015-10-11T15:25:14Z</time>
      </trkpt>
      <trkpt lat="45.84275" lon="5.72611">
        <ele>274.82940340317</ele>
        <time>2015-10-11T15:25:19Z</time>
      </trkpt>
      <trkpt lat="45.84283" lon="5.72628">
        <ele>273.49082278605</ele>
        <time>2015-10-11T15:25:29Z</time>
      </trkpt>
      <trkpt lat="45.84288" lon="5.72636">
        <ele>273.49082278605</ele>
        <time>2015-10-11T15:25:34Z</time>
      </trkpt>
      <trkpt lat="45.84295" lon="5.72653">
        <ele>272.27695776586</ele>
        <time>2015-10-11T15:25:44Z</time>
      </trkpt>
      <trkpt lat="45.84298" lon="5.72662">
        <ele>272.27695776586</ele>
        <time>2015-10-11T15:25:49Z</time>
      </trkpt>
      <trkpt lat="45.84305" lon="5.72694">
        <ele>270.8049279549</ele>
        <time>2015-10-11T15:26:04Z</time>
      </trkpt>
      <trkpt lat="45.84307" lon="5.72703">
        <ele>270.8049279549</ele>
        <time>2015-10-11T15:26:09Z</time>
      </trkpt>
      <trkpt lat="45.84312" lon="5.7272">
        <ele>269.16737494434</ele>
        <time>2015-10-11T15:26:19Z</time>
      </trkpt>
      <trkpt lat="45.84312" lon="5.7273">
        <ele>269.16737494434</ele>
        <time>2015-10-11T15:26:24Z</time>
      </trkpt>
      <trkpt lat="45.84315" lon="5.72748">
        <ele>267.47934923017</ele>
        <time>2015-10-11T15:26:34Z</time>
      </trkpt>
      <trkpt lat="45.84319" lon="5.72755">
        <ele>267.47934923017</ele>
        <time>2015-10-11T15:26:39Z</time>
      </trkpt>
      <trkpt lat="45.84327" lon="5.72772">
        <ele>265.60252994102</ele>
        <time>2015-10-11T15:26:49Z</time>
      </trkpt>
      <trkpt lat="45.84329" lon="5.7278">
        <ele>265.60252994102</ele>
        <time>2015-10-11T15:26:54Z</time>
      </trkpt>
      <trkpt lat="45.84328" lon="5.72798">
        <ele>263.45244627212</ele>
        <time>2015-10-11T15:27:04Z</time>
      </trkpt>
      <trkpt lat="45.84325" lon="5.72816">
        <ele>261.1100450667</ele>
        <time>2015-10-11T15:27:09Z</time>
      </trkpt>
      <trkpt lat="45.84322" lon="5.72833">
        <ele>258.88136466954</ele>
        <time>2015-10-11T15:27:19Z</time>
      </trkpt>
      <trkpt lat="45.8432" lon="5.72841">
        <ele>258.88136466954</ele>
        <time>2015-10-11T15:27:24Z</time>
      </trkpt>
      <trkpt lat="45.84319" lon="5.72856">
        <ele>256.68928186186</ele>
        <time>2015-10-11T15:27:34Z</time>
      </trkpt>
      <trkpt lat="45.8432" lon="5.72867">
        <ele>256.68928186186</ele>
        <time>2015-10-11T15:27:39Z</time>
      </trkpt>
      <trkpt lat="45.84318" lon="5.7289">
        <ele>254.11628188692</ele>
        <time>2015-10-11T15:27:49Z</time>
      </trkpt>
      <trkpt lat="45.84316" lon="5.72901">
        <ele>254.11628188692</ele>
        <time>2015-10-11T15:27:54Z</time>
      </trkpt>
      <trkpt lat="45.84309" lon="5.72925">
        <ele>252.20319901212</ele>
        <time>2015-10-11T15:28:04Z</time>
      </trkpt>
      <trkpt lat="45.84307" lon="5.72935">
        <ele>252.20319901212</ele>
        <time>2015-10-11T15:28:09Z</time>
      </trkpt>
      <trkpt lat="45.84308" lon="5.72958">
        <ele>248.49702673885</ele>
        <time>2015-10-11T15:28:24Z</time>
      </trkpt>
      <trkpt lat="45.84308" lon="5.72967">
        <ele>248.49702673885</ele>
        <time>2015-10-11T15:28:29Z</time>
      </trkpt>
      <trkpt lat="45.84304" lon="5.72992">
        <ele>244.98116273659</ele>
        <time>2015-10-11T15:28:39Z</time>
      </trkpt>
      <trkpt lat="45.84301" lon="5.73001">
        <ele>244.98116273659</ele>
        <time>2015-10-11T15:28:44Z</time>
      </trkpt>
      <trkpt lat="45.84296" lon="5.73013">
        <ele>242.02272895556</ele>
        <time>2015-10-11T15:28:54Z</time>
      </trkpt>
      <trkpt lat="45.84296" lon="5.73012">
        <ele>242.02272895556</ele>
        <time>2015-10-11T15:28:59Z</time>
      </trkpt>
      <trkpt lat="45.84295" lon="5.73013">
        <ele>242.02272895556</ele>
        <time>2015-10-11T15:29:09Z</time>
      </trkpt>
      <trkpt lat="45.84295" lon="5.73013">
        <ele>242.02272895556</ele>
        <time>2015-10-11T15:29:14Z</time>
      </trkpt>
      <trkpt lat="45.84295" lon="5.73013">
        <ele>242.02272895556</ele>
        <time>2015-10-11T15:29:24Z</time>
      </trkpt>
      <trkpt lat="45.84295" lon="5.73013">
        <ele>242.02272895556</ele>
        <time>2015-10-11T15:29:29Z</time>
      </trkpt>
      <trkpt lat="45.84295" lon="5.73015">
        <ele>242.02272895556</ele>
        <time>2015-10-11T15:29:39Z</time>
      </trkpt>
      <trkpt lat="45.84295" lon="5.73016">
        <ele>242.02272895556</ele>
        <time>2015-10-11T15:29:44Z</time>
      </trkpt>
      <trkpt lat="45.84295" lon="5.73017">
        <ele>242.02272895556</ele>
        <time>2015-10-11T15:29:54Z</time>
      </trkpt>
      <trkpt lat="45.84294" lon="5.73019">
        <ele>242.02272895556</ele>
        <time>2015-10-11T15:29:59Z</time>
      </trkpt>
      <trkpt lat="45.84294" lon="5.73019">
        <ele>242.02272895556</ele>
        <time>2015-10-11T15:30:09Z</time>
      </trkpt>
      <trkpt lat="45.84295" lon="5.73019">
        <ele>242.02272895556</ele>
        <time>2015-10-11T15:30:14Z</time>
      </trkpt>
      <trkpt lat="45.84295" lon="5.73018">
        <ele>242.02272895556</ele>
        <time>2015-10-11T15:30:24Z</time>
      </trkpt>
      <trkpt lat="45.84295" lon="5.73018">
        <ele>242.02272895556</ele>
        <time>2015-10-11T15:30:29Z</time>
      </trkpt>
      <trkpt lat="45.84296" lon="5.73018">
        <ele>242.02272895556</ele>
        <time>2015-10-11T15:30:39Z</time>
      </trkpt>
      <trkpt lat="45.84296" lon="5.73017">
        <ele>242.02272895556</ele>
        <time>2015-10-11T15:30:44Z</time>
      </trkpt>
      <trkpt lat="45.84296" lon="5.73018">
        <ele>242.02272895556</ele>
        <time>2015-10-11T15:30:59Z</time>
      </trkpt>
      <trkpt lat="45.84296" lon="5.73018">
        <ele>242.02272895556</ele>
        <time>2015-10-11T15:31:04Z</time>
      </trkpt>
      <trkpt lat="45.84289" lon="5.73025">
        <ele>240.13313396109</ele>
        <time>2015-10-11T15:31:14Z</time>
      </trkpt>
      <trkpt lat="45.84287" lon="5.73024">
        <ele>240.13313396109</ele>
        <time>2015-10-11T15:31:19Z</time>
      </trkpt>
      <trkpt lat="45.84288" lon="5.73023">
        <ele>240.13313396109</ele>
        <time>2015-10-11T15:31:29Z</time>
      </trkpt>
      <trkpt lat="45.84292" lon="5.73015">
        <ele>238.44286773604</ele>
        <time>2015-10-11T15:31:34Z</time>
      </trkpt>
      <trkpt lat="45.84293" lon="5.73017">
        <ele>238.44286773604</ele>
        <time>2015-10-11T15:31:44Z</time>
      </trkpt>
      <trkpt lat="45.84294" lon="5.73016">
        <ele>238.44286773604</ele>
        <time>2015-10-11T15:31:49Z</time>
      </trkpt>
      <trkpt lat="45.84293" lon="5.73025">
        <ele>238.44286773604</ele>
        <time>2015-10-11T15:31:59Z</time>
      </trkpt>
      <trkpt lat="45.84296" lon="5.73033">
        <ele>236.44824956826</ele>
        <time>2015-10-11T15:32:04Z</time>
      </trkpt>
      <trkpt lat="45.84306" lon="5.73045">
        <ele>234.79299368734</ele>
        <time>2015-10-11T15:32:14Z</time>
      </trkpt>
      <trkpt lat="45.84311" lon="5.73052">
        <ele>234.79299368734</ele>
        <time>2015-10-11T15:32:19Z</time>
      </trkpt>
      <trkpt lat="45.84321" lon="5.73079">
        <ele>233.26544368402</ele>
        <time>2015-10-11T15:32:34Z</time>
      </trkpt>
      <trkpt lat="45.84321" lon="5.73092">
        <ele>233.26544368402</ele>
        <time>2015-10-11T15:32:39Z</time>
      </trkpt>
      <trkpt lat="45.84322" lon="5.73114">
        <ele>231.61138526872</ele>
        <time>2015-10-11T15:32:49Z</time>
      </trkpt>
      <trkpt lat="45.84325" lon="5.73122">
        <ele>231.61138526872</ele>
        <time>2015-10-11T15:32:54Z</time>
      </trkpt>
      <trkpt lat="45.84341" lon="5.73146">
        <ele>229.52347995129</ele>
        <time>2015-10-11T15:33:04Z</time>
      </trkpt>
      <trkpt lat="45.84344" lon="5.73151">
        <ele>229.52347995129</ele>
        <time>2015-10-11T15:33:09Z</time>
      </trkpt>
      <trkpt lat="45.8435" lon="5.73166">
        <ele>226.81896714979</ele>
        <time>2015-10-11T15:33:19Z</time>
      </trkpt>
      <trkpt lat="45.84355" lon="5.7318">
        <ele>223.90659419316</ele>
        <time>2015-10-11T15:33:24Z</time>
      </trkpt>
      <trkpt lat="45.84363" lon="5.73199">
        <ele>221.97259683565</ele>
        <time>2015-10-11T15:33:34Z</time>
      </trkpt>
      <trkpt lat="45.84367" lon="5.73217">
        <ele>220.05244586709</ele>
        <time>2015-10-11T15:33:39Z</time>
      </trkpt>
      <trkpt lat="45.84389" lon="5.73254">
        <ele>219.7310527865</ele>
        <time>2015-10-11T15:33:49Z</time>
      </trkpt>
      <trkpt lat="45.84397" lon="5.73269">
        <ele>219.40277131036</ele>
        <time>2015-10-11T15:33:54Z</time>
      </trkpt>
      <trkpt lat="45.84406" lon="5.73287">
        <ele>218.83362500358</ele>
        <time>2015-10-11T15:34:04Z</time>
      </trkpt>
      <trkpt lat="45.8441" lon="5.73296">
        <ele>218.83362500358</ele>
        <time>2015-10-11T15:34:09Z</time>
      </trkpt>
      <trkpt lat="45.84416" lon="5.73316">
        <ele>218.124492759</ele>
        <time>2015-10-11T15:34:19Z</time>
      </trkpt>
      <trkpt lat="45.8442" lon="5.73324">
        <ele>218.124492759</ele>
        <time>2015-10-11T15:34:24Z</time>
      </trkpt>
      <trkpt lat="45.84435" lon="5.7336">
        <ele>217.80153146669</ele>
        <time>2015-10-11T15:34:39Z</time>
      </trkpt>
      <trkpt lat="45.84439" lon="5.73375">
        <ele>217.73146195823</ele>
        <time>2015-10-11T15:34:44Z</time>
      </trkpt>
      <trkpt lat="45.84446" lon="5.73398">
        <ele>218.29446655488</ele>
        <time>2015-10-11T15:34:54Z</time>
      </trkpt>
      <trkpt lat="45.8445" lon="5.7341">
        <ele>218.96195257366</ele>
        <time>2015-10-11T15:34:59Z</time>
      </trkpt>
      <trkpt lat="45.84459" lon="5.73425">
        <ele>219.12859862705</ele>
        <time>2015-10-11T15:35:09Z</time>
      </trkpt>
      <trkpt lat="45.84464" lon="5.73434">
        <ele>219.12859862705</ele>
        <time>2015-10-11T15:35:14Z</time>
      </trkpt>
      <trkpt lat="45.84472" lon="5.73451">
        <ele>219.35906134203</ele>
        <time>2015-10-11T15:35:24Z</time>
      </trkpt>
      <trkpt lat="45.84475" lon="5.73461">
        <ele>219.35906134203</ele>
        <time>2015-10-11T15:35:29Z</time>
      </trkpt>
      <trkpt lat="45.84481" lon="5.73487">
        <ele>220.07551627457</ele>
        <time>2015-10-11T15:35:39Z</time>
      </trkpt>
      <trkpt lat="45.84482" lon="5.73503">
        <ele>221.17785499376</ele>
        <time>2015-10-11T15:35:44Z</time>
      </trkpt>
      <trkpt lat="45.84489" lon="5.73523">
        <ele>221.76530172317</ele>
        <time>2015-10-11T15:35:54Z</time>
      </trkpt>
      <trkpt lat="45.84491" lon="5.7353">
        <ele>221.76530172317</ele>
        <time>2015-10-11T15:35:59Z</time>
      </trkpt>
      <trkpt lat="45.84508" lon="5.73562">
        <ele>222.40267132925</ele>
        <time>2015-10-11T15:36:14Z</time>
      </trkpt>
      <trkpt lat="45.84511" lon="5.7357">
        <ele>222.40267132925</ele>
        <time>2015-10-11T15:36:19Z</time>
      </trkpt>
      <trkpt lat="45.84517" lon="5.73586">
        <ele>222.4891897983</ele>
        <time>2015-10-11T15:36:29Z</time>
      </trkpt>
      <trkpt lat="45.84522" lon="5.73595">
        <ele>222.4891897983</ele>
        <time>2015-10-11T15:36:34Z</time>
      </trkpt>
      <trkpt lat="45.84529" lon="5.73617">
        <ele>222.3489573012</ele>
        <time>2015-10-11T15:36:44Z</time>
      </trkpt>
      <trkpt lat="45.84532" lon="5.73627">
        <ele>222.3489573012</ele>
        <time>2015-10-11T15:36:49Z</time>
      </trkpt>
      <trkpt lat="45.8454" lon="5.73646">
        <ele>222.97476104265</ele>
        <time>2015-10-11T15:36:59Z</time>
      </trkpt>
      <trkpt lat="45.84544" lon="5.73658">
        <ele>223.52628475631</ele>
        <time>2015-10-11T15:37:04Z</time>
      </trkpt>
      <trkpt lat="45.84555" lon="5.7368">
        <ele>223.77290806132</ele>
        <time>2015-10-11T15:37:14Z</time>
      </trkpt>
      <trkpt lat="45.84557" lon="5.73688">
        <ele>223.77290806132</ele>
        <time>2015-10-11T15:37:19Z</time>
      </trkpt>
      <trkpt lat="45.84568" lon="5.73717">
        <ele>225.66361798746</ele>
        <time>2015-10-11T15:37:34Z</time>
      </trkpt>
      <trkpt lat="45.84568" lon="5.73721">
        <ele>225.66361798746</ele>
        <time>2015-10-11T15:37:39Z</time>
      </trkpt>
      <trkpt lat="45.84558" lon="5.7373">
        <ele>227.25287933741</ele>
        <time>2015-10-11T15:37:49Z</time>
      </trkpt>
      <trkpt lat="45.84553" lon="5.73731">
        <ele>227.25287933741</ele>
        <time>2015-10-11T15:37:54Z</time>
      </trkpt>
      <trkpt lat="45.84544" lon="5.73736">
        <ele>228.90074925435</ele>
        <time>2015-10-11T15:38:04Z</time>
      </trkpt>
      <trkpt lat="45.84542" lon="5.73736">
        <ele>228.90074925435</ele>
        <time>2015-10-11T15:38:09Z</time>
      </trkpt>
      <trkpt lat="45.84542" lon="5.73736">
        <ele>228.90074925435</ele>
        <time>2015-10-11T15:38:19Z</time>
      </trkpt>
      <trkpt lat="45.84541" lon="5.73736">
        <ele>228.90074925435</ele>
        <time>2015-10-11T15:38:24Z</time>
      </trkpt>
      <trkpt lat="45.84541" lon="5.73736">
        <ele>228.90074925435</ele>
        <time>2015-10-11T15:38:34Z</time>
      </trkpt>
      <trkpt lat="45.84541" lon="5.73736">
        <ele>228.90074925435</ele>
        <time>2015-10-11T15:38:39Z</time>
      </trkpt>
      <trkpt lat="45.84539" lon="5.73738">
        <ele>228.90074925435</ele>
        <time>2015-10-11T15:38:49Z</time>
      </trkpt>
      <trkpt lat="45.84537" lon="5.73735">
        <ele>228.90074925435</ele>
        <time>2015-10-11T15:38:54Z</time>
      </trkpt>
      <trkpt lat="45.84536" lon="5.73732">
        <ele>230.86878789959</ele>
        <time>2015-10-11T15:39:04Z</time>
      </trkpt>
      <trkpt lat="45.84537" lon="5.73734">
        <ele>230.86878789959</ele>
        <time>2015-10-11T15:39:09Z</time>
      </trkpt>
      <trkpt lat="45.84532" lon="5.73732">
        <ele>230.86878789959</ele>
        <time>2015-10-11T15:39:24Z</time>
      </trkpt>
      <trkpt lat="45.84532" lon="5.73732">
        <ele>230.86878789959</ele>
        <time>2015-10-11T15:39:29Z</time>
      </trkpt>
      <trkpt lat="45.84532" lon="5.73731">
        <ele>230.86878789959</ele>
        <time>2015-10-11T15:39:39Z</time>
      </trkpt>
      <trkpt lat="45.84532" lon="5.73731">
        <ele>230.86878789959</ele>
        <time>2015-10-11T15:39:44Z</time>
      </trkpt>
      <trkpt lat="45.84532" lon="5.73731">
        <ele>230.86878789959</ele>
        <time>2015-10-11T15:39:54Z</time>
      </trkpt>
      <trkpt lat="45.84532" lon="5.73731">
        <ele>230.86878789959</ele>
        <time>2015-10-11T15:39:59Z</time>
      </trkpt>
      <trkpt lat="45.84535" lon="5.73735">
        <ele>231.89987013497</ele>
        <time>2015-10-11T15:40:09Z</time>
      </trkpt>
      <trkpt lat="45.84536" lon="5.73735">
        <ele>231.89987013497</ele>
        <time>2015-10-11T15:40:14Z</time>
      </trkpt>
      <trkpt lat="45.84538" lon="5.73736">
        <ele>231.89987013497</ele>
        <time>2015-10-11T15:40:24Z</time>
      </trkpt>
      <trkpt lat="45.84539" lon="5.73738">
        <ele>231.89987013497</ele>
        <time>2015-10-11T15:40:29Z</time>
      </trkpt>
      <trkpt lat="45.8454" lon="5.73738">
        <ele>231.89987013497</ele>
        <time>2015-10-11T15:40:44Z</time>
      </trkpt>
      <trkpt lat="45.8454" lon="5.73738">
        <ele>231.89987013497</ele>
        <time>2015-10-11T15:40:49Z</time>
      </trkpt>
      <trkpt lat="45.84524" lon="5.73748">
        <ele>232.67666069164</ele>
        <time>2015-10-11T15:40:59Z</time>
      </trkpt>
      <trkpt lat="45.84514" lon="5.73752">
        <ele>232.95350640307</ele>
        <time>2015-10-11T15:41:04Z</time>
      </trkpt>
      <trkpt lat="45.8449" lon="5.73759">
        <ele>233.70052128096</ele>
        <time>2015-10-11T15:41:14Z</time>
      </trkpt>
      <trkpt lat="45.84479" lon="5.7376">
        <ele>234.4175530458</ele>
        <time>2015-10-11T15:41:19Z</time>
      </trkpt>
      <trkpt lat="45.84465" lon="5.73765">
        <ele>234.79998874886</ele>
        <time>2015-10-11T15:41:29Z</time>
      </trkpt>
      <trkpt lat="45.84458" lon="5.73766">
        <ele>234.79998874886</ele>
        <time>2015-10-11T15:41:34Z</time>
      </trkpt>
      <trkpt lat="45.84441" lon="5.73775">
        <ele>235.1719861379</ele>
        <time>2015-10-11T15:41:44Z</time>
      </trkpt>
      <trkpt lat="45.8443" lon="5.73778">
        <ele>235.32971482209</ele>
        <time>2015-10-11T15:41:49Z</time>
      </trkpt>
      <trkpt lat="45.84419" lon="5.73785">
        <ele>235.05627426475</ele>
        <time>2015-10-11T15:41:59Z</time>
      </trkpt>
      <trkpt lat="45.84409" lon="5.73789">
        <ele>235.13203324443</ele>
        <time>2015-10-11T15:42:04Z</time>
      </trkpt>
      <trkpt lat="45.84398" lon="5.73816">
        <ele>235.15515063126</ele>
        <time>2015-10-11T15:42:14Z</time>
      </trkpt>
      <trkpt lat="45.84395" lon="5.73827">
        <ele>235.15515063126</ele>
        <time>2015-10-11T15:42:19Z</time>
      </trkpt>
      <trkpt lat="45.84398" lon="5.73841">
        <ele>234.73919375561</ele>
        <time>2015-10-11T15:42:29Z</time>
      </trkpt>
      <trkpt lat="45.844" lon="5.73848">
        <ele>234.73919375561</ele>
        <time>2015-10-11T15:42:34Z</time>
      </trkpt>
      <trkpt lat="45.84409" lon="5.73858">
        <ele>234.82449337737</ele>
        <time>2015-10-11T15:42:44Z</time>
      </trkpt>
      <trkpt lat="45.84416" lon="5.73864">
        <ele>234.82449337737</ele>
        <time>2015-10-11T15:42:49Z</time>
      </trkpt>
      <trkpt lat="45.84427" lon="5.73871">
        <ele>235.04167778495</ele>
        <time>2015-10-11T15:42:59Z</time>
      </trkpt>
      <trkpt lat="45.8443" lon="5.73874">
        <ele>235.04167778495</ele>
        <time>2015-10-11T15:43:04Z</time>
      </trkpt>
      <trkpt lat="45.84443" lon="5.73882">
        <ele>233.96743127538</ele>
        <time>2015-10-11T15:43:19Z</time>
      </trkpt>
      <trkpt lat="45.84452" lon="5.73887">
        <ele>232.41957661825</ele>
        <time>2015-10-11T15:43:24Z</time>
      </trkpt>
      <trkpt lat="45.84458" lon="5.73893">
        <ele>232.41957661825</ele>
        <time>2015-10-11T15:43:34Z</time>
      </trkpt>
      <trkpt lat="45.84463" lon="5.73896">
        <ele>229.51441988889</ele>
        <time>2015-10-11T15:43:39Z</time>
      </trkpt>
      <trkpt lat="45.84472" lon="5.73908">
        <ele>226.06552449019</ele>
        <time>2015-10-11T15:43:49Z</time>
      </trkpt>
      <trkpt lat="45.84479" lon="5.73917">
        <ele>223.46235800447</ele>
        <time>2015-10-11T15:43:54Z</time>
      </trkpt>
      <trkpt lat="45.84499" lon="5.73933">
        <ele>221.88031947392</ele>
        <time>2015-10-11T15:44:04Z</time>
      </trkpt>
      <trkpt lat="45.84508" lon="5.73939">
        <ele>221.08996710406</ele>
        <time>2015-10-11T15:44:09Z</time>
      </trkpt>
      <trkpt lat="45.84529" lon="5.7397">
        <ele>221.02059868451</ele>
        <time>2015-10-11T15:44:19Z</time>
      </trkpt>
      <trkpt lat="45.84535" lon="5.73981">
        <ele>221.40291593924</ele>
        <time>2015-10-11T15:44:24Z</time>
      </trkpt>
      <trkpt lat="45.84543" lon="5.73996">
        <ele>221.32321149571</ele>
        <time>2015-10-11T15:44:34Z</time>
      </trkpt>
      <trkpt lat="45.84543" lon="5.74005">
        <ele>221.32321149571</ele>
        <time>2015-10-11T15:44:39Z</time>
      </trkpt>
      <trkpt lat="45.84546" lon="5.74017">
        <ele>220.57027081234</ele>
        <time>2015-10-11T15:44:49Z</time>
      </trkpt>
      <trkpt lat="45.84548" lon="5.74024">
        <ele>220.57027081234</ele>
        <time>2015-10-11T15:44:54Z</time>
      </trkpt>
      <trkpt lat="45.84557" lon="5.7404">
        <ele>219.78611590511</ele>
        <time>2015-10-11T15:45:04Z</time>
      </trkpt>
      <trkpt lat="45.84562" lon="5.74048">
        <ele>219.78611590511</ele>
        <time>2015-10-11T15:45:09Z</time>
      </trkpt>
      <trkpt lat="45.84566" lon="5.74061">
        <ele>219.59450309487</ele>
        <time>2015-10-11T15:45:19Z</time>
      </trkpt>
      <trkpt lat="45.84568" lon="5.74067">
        <ele>219.59450309487</ele>
        <time>2015-10-11T15:45:24Z</time>
      </trkpt>
      <trkpt lat="45.84575" lon="5.74076">
        <ele>219.4188018642</ele>
        <time>2015-10-11T15:45:34Z</time>
      </trkpt>
      <trkpt lat="45.84571" lon="5.74088">
        <ele>219.27230288397</ele>
        <time>2015-10-11T15:45:39Z</time>
      </trkpt>
      <trkpt lat="45.8456" lon="5.74109">
        <ele>219.5130907763</ele>
        <time>2015-10-11T15:45:49Z</time>
      </trkpt>
      <trkpt lat="45.84554" lon="5.74117">
        <ele>219.5130907763</ele>
        <time>2015-10-11T15:45:54Z</time>
      </trkpt>
      <trkpt lat="45.84538" lon="5.74129">
        <ele>220.18362516774</ele>
        <time>2015-10-11T15:46:04Z</time>
      </trkpt>
      <trkpt lat="45.84533" lon="5.74133">
        <ele>220.18362516774</ele>
        <time>2015-10-11T15:46:09Z</time>
      </trkpt>
      <trkpt lat="45.84514" lon="5.74142">
        <ele>220.91852271574</ele>
        <time>2015-10-11T15:46:24Z</time>
      </trkpt>
      <trkpt lat="45.84509" lon="5.74141">
        <ele>220.91852271574</ele>
        <time>2015-10-11T15:46:29Z</time>
      </trkpt>
      <trkpt lat="45.84498" lon="5.74139">
        <ele>222.05638238037</ele>
        <time>2015-10-11T15:46:39Z</time>
      </trkpt>
      <trkpt lat="45.84494" lon="5.74136">
        <ele>222.05638238037</ele>
        <time>2015-10-11T15:46:44Z</time>
      </trkpt>
      <trkpt lat="45.84487" lon="5.74126">
        <ele>223.20366240929</ele>
        <time>2015-10-11T15:46:54Z</time>
      </trkpt>
      <trkpt lat="45.84483" lon="5.74123">
        <ele>223.20366240929</ele>
        <time>2015-10-11T15:46:59Z</time>
      </trkpt>
      <trkpt lat="45.84479" lon="5.74121">
        <ele>223.20366240929</ele>
        <time>2015-10-11T15:47:09Z</time>
      </trkpt>
      <trkpt lat="45.84478" lon="5.74121">
        <ele>224.15424270816</ele>
        <time>2015-10-11T15:47:14Z</time>
      </trkpt>
      <trkpt lat="45.8447" lon="5.7412">
        <ele>224.15424270816</ele>
        <time>2015-10-11T15:47:24Z</time>
      </trkpt>
      <trkpt lat="45.84465" lon="5.74117">
        <ele>225.40945570301</ele>
        <time>2015-10-11T15:47:29Z</time>
      </trkpt>
      <trkpt lat="45.84454" lon="5.7411">
        <ele>226.48185228681</ele>
        <time>2015-10-11T15:47:39Z</time>
      </trkpt>
      <trkpt lat="45.84448" lon="5.74106">
        <ele>226.48185228681</ele>
        <time>2015-10-11T15:47:44Z</time>
      </trkpt>
      <trkpt lat="45.84436" lon="5.74099">
        <ele>227.45355732115</ele>
        <time>2015-10-11T15:47:54Z</time>
      </trkpt>
      <trkpt lat="45.84432" lon="5.74096">
        <ele>227.45355732115</ele>
        <time>2015-10-11T15:47:59Z</time>
      </trkpt>
      <trkpt lat="45.84412" lon="5.74103">
        <ele>228.47304988253</ele>
        <time>2015-10-11T15:48:14Z</time>
      </trkpt>
      <trkpt lat="45.84404" lon="5.74104">
        <ele>228.47304988253</ele>
        <time>2015-10-11T15:48:19Z</time>
      </trkpt>
      <trkpt lat="45.84389" lon="5.74106">
        <ele>229.62017872717</ele>
        <time>2015-10-11T15:48:29Z</time>
      </trkpt>
      <trkpt lat="45.84383" lon="5.74104">
        <ele>229.62017872717</ele>
        <time>2015-10-11T15:48:34Z</time>
      </trkpt>
      <trkpt lat="45.84369" lon="5.74106">
        <ele>230.93980791779</ele>
        <time>2015-10-11T15:48:44Z</time>
      </trkpt>
      <trkpt lat="45.84362" lon="5.7411">
        <ele>230.93980791779</ele>
        <time>2015-10-11T15:48:49Z</time>
      </trkpt>
      <trkpt lat="45.84347" lon="5.74114">
        <ele>231.65165412011</ele>
        <time>2015-10-11T15:48:59Z</time>
      </trkpt>
      <trkpt lat="45.8434" lon="5.74115">
        <ele>231.65165412011</ele>
        <time>2015-10-11T15:49:04Z</time>
      </trkpt>
      <trkpt lat="45.84327" lon="5.74118">
        <ele>231.65420472423</ele>
        <time>2015-10-11T15:49:14Z</time>
      </trkpt>
      <trkpt lat="45.84323" lon="5.7412">
        <ele>231.65420472423</ele>
        <time>2015-10-11T15:49:19Z</time>
      </trkpt>
      <trkpt lat="45.84302" lon="5.74128">
        <ele>231.56160764504</ele>
        <time>2015-10-11T15:49:29Z</time>
      </trkpt>
      <trkpt lat="45.84294" lon="5.74145">
        <ele>231.15061739011</ele>
        <time>2015-10-11T15:49:34Z</time>
      </trkpt>
      <trkpt lat="45.84272" lon="5.74164">
        <ele>231.3249984009</ele>
        <time>2015-10-11T15:49:49Z</time>
      </trkpt>
      <trkpt lat="45.84266" lon="5.74172">
        <ele>231.3249984009</ele>
        <time>2015-10-11T15:49:54Z</time>
      </trkpt>
      <trkpt lat="45.8426" lon="5.74189">
        <ele>231.50824924168</ele>
        <time>2015-10-11T15:50:04Z</time>
      </trkpt>
      <trkpt lat="45.84257" lon="5.74196">
        <ele>231.50824924168</ele>
        <time>2015-10-11T15:50:09Z</time>
      </trkpt>
      <trkpt lat="45.84247" lon="5.7421">
        <ele>231.18065410294</ele>
        <time>2015-10-11T15:50:19Z</time>
      </trkpt>
      <trkpt lat="45.84246" lon="5.74215">
        <ele>231.18065410294</ele>
        <time>2015-10-11T15:50:24Z</time>
      </trkpt>
      <trkpt lat="45.8425" lon="5.74227">
        <ele>230.43859674042</ele>
        <time>2015-10-11T15:50:34Z</time>
      </trkpt>
      <trkpt lat="45.84248" lon="5.74238">
        <ele>230.43859674042</ele>
        <time>2015-10-11T15:50:39Z</time>
      </trkpt>
      <trkpt lat="45.84242" lon="5.74261">
        <ele>229.9202033467</ele>
        <time>2015-10-11T15:50:49Z</time>
      </trkpt>
      <trkpt lat="45.84239" lon="5.74271">
        <ele>229.9202033467</ele>
        <time>2015-10-11T15:50:54Z</time>
      </trkpt>
      <trkpt lat="45.84226" lon="5.7428">
        <ele>229.97113851368</ele>
        <time>2015-10-11T15:51:04Z</time>
      </trkpt>
      <trkpt lat="45.8422" lon="5.74282">
        <ele>229.97113851368</ele>
        <time>2015-10-11T15:51:09Z</time>
      </trkpt>
      <trkpt lat="45.84203" lon="5.74288">
        <ele>230.20395787172</ele>
        <time>2015-10-11T15:51:24Z</time>
      </trkpt>
      <trkpt lat="45.84196" lon="5.74288">
        <ele>230.20395787172</ele>
        <time>2015-10-11T15:51:29Z</time>
      </trkpt>
      <trkpt lat="45.84189" lon="5.74286">
        <ele>230.73475650695</ele>
        <time>2015-10-11T15:51:39Z</time>
      </trkpt>
      <trkpt lat="45.84187" lon="5.74285">
        <ele>230.73475650695</ele>
        <time>2015-10-11T15:51:44Z</time>
      </trkpt>
      <trkpt lat="45.84178" lon="5.7429">
        <ele>231.31000751969</ele>
        <time>2015-10-11T15:51:54Z</time>
      </trkpt>
      <trkpt lat="45.84171" lon="5.74289">
        <ele>231.31000751969</ele>
        <time>2015-10-11T15:51:59Z</time>
      </trkpt>
      <trkpt lat="45.84158" lon="5.74292">
        <ele>231.9252818713</ele>
        <time>2015-10-11T15:52:09Z</time>
      </trkpt>
      <trkpt lat="45.84152" lon="5.74294">
        <ele>231.9252818713</ele>
        <time>2015-10-11T15:52:14Z</time>
      </trkpt>
      <trkpt lat="45.84141" lon="5.74292">
        <ele>231.85582884476</ele>
        <time>2015-10-11T15:52:24Z</time>
      </trkpt>
      <trkpt lat="45.84136" lon="5.74294">
        <ele>231.85582884476</ele>
        <time>2015-10-11T15:52:29Z</time>
      </trkpt>
      <trkpt lat="45.84113" lon="5.74295">
        <ele>230.79235549818</ele>
        <time>2015-10-11T15:52:39Z</time>
      </trkpt>
      <trkpt lat="45.84108" lon="5.74298">
        <ele>230.79235549818</ele>
        <time>2015-10-11T15:52:44Z</time>
      </trkpt>
      <trkpt lat="45.84096" lon="5.74306">
        <ele>229.3013478998</ele>
        <time>2015-10-11T15:52:54Z</time>
      </trkpt>
      <trkpt lat="45.84083" lon="5.74317">
        <ele>228.38445103376</ele>
        <time>2015-10-11T15:52:59Z</time>
      </trkpt>
      <trkpt lat="45.84059" lon="5.74338">
        <ele>227.82963779341</ele>
        <time>2015-10-11T15:53:09Z</time>
      </trkpt>
      <trkpt lat="45.84042" lon="5.74348">
        <ele>227.2232614793</ele>
        <time>2015-10-11T15:53:14Z</time>
      </trkpt>
      <trkpt lat="45.83979" lon="5.74397">
        <ele>227.37831040246</ele>
        <time>2015-10-11T15:53:24Z</time>
      </trkpt>
      <trkpt lat="45.83944" lon="5.74431">
        <ele>228.41180588923</ele>
        <time>2015-10-11T15:53:29Z</time>
      </trkpt>
      <trkpt lat="45.83868" lon="5.74497">
        <ele>229.30562281567</ele>
        <time>2015-10-11T15:53:44Z</time>
      </trkpt>
      <trkpt lat="45.83837" lon="5.74506">
        <ele>230.37057195246</ele>
        <time>2015-10-11T15:53:49Z</time>
      </trkpt>
      <trkpt lat="45.83788" lon="5.74527">
        <ele>231.96620172842</ele>
        <time>2015-10-11T15:53:59Z</time>
      </trkpt>
      <trkpt lat="45.83771" lon="5.7454">
        <ele>233.66037423087</ele>
        <time>2015-10-11T15:54:04Z</time>
      </trkpt>
      <trkpt lat="45.83738" lon="5.74548">
        <ele>234.56245440595</ele>
        <time>2015-10-11T15:54:14Z</time>
      </trkpt>
      <trkpt lat="45.83711" lon="5.74544">
        <ele>235.23294285521</ele>
        <time>2015-10-11T15:54:19Z</time>
      </trkpt>
      <trkpt lat="45.83673" lon="5.74546">
        <ele>236.03332113354</ele>
        <time>2015-10-11T15:54:29Z</time>
      </trkpt>
      <trkpt lat="45.83667" lon="5.74544">
        <ele>236.03332113354</ele>
        <time>2015-10-11T15:54:34Z</time>
      </trkpt>
      <trkpt lat="45.83655" lon="5.74543">
        <ele>236.69291702591</ele>
        <time>2015-10-11T15:54:44Z</time>
      </trkpt>
      <trkpt lat="45.83647" lon="5.74541">
        <ele>236.69291702591</ele>
        <time>2015-10-11T15:54:49Z</time>
      </trkpt>
      <trkpt lat="45.83633" lon="5.74535">
        <ele>237.75398278304</ele>
        <time>2015-10-11T15:54:59Z</time>
      </trkpt>
      <trkpt lat="45.83625" lon="5.74534">
        <ele>237.75398278304</ele>
        <time>2015-10-11T15:55:04Z</time>
      </trkpt>
      <trkpt lat="45.83599" lon="5.74529">
        <ele>239.18463772453</ele>
        <time>2015-10-11T15:55:19Z</time>
      </trkpt>
      <trkpt lat="45.83591" lon="5.74529">
        <ele>239.18463772453</ele>
        <time>2015-10-11T15:55:24Z</time>
      </trkpt>
      <trkpt lat="45.83576" lon="5.74526">
        <ele>240.66612651635</ele>
        <time>2015-10-11T15:55:34Z</time>
      </trkpt>
      <trkpt lat="45.83569" lon="5.74523">
        <ele>240.66612651635</ele>
        <time>2015-10-11T15:55:39Z</time>
      </trkpt>
      <trkpt lat="45.83556" lon="5.74515">
        <ele>242.37858196712</ele>
        <time>2015-10-11T15:55:49Z</time>
      </trkpt>
      <trkpt lat="45.83549" lon="5.74512">
        <ele>242.37858196712</ele>
        <time>2015-10-11T15:55:54Z</time>
      </trkpt>
      <trkpt lat="45.83534" lon="5.74511">
        <ele>243.62364388968</ele>
        <time>2015-10-11T15:56:04Z</time>
      </trkpt>
      <trkpt lat="45.83527" lon="5.74512">
        <ele>243.62364388968</ele>
        <time>2015-10-11T15:56:09Z</time>
      </trkpt>
      <trkpt lat="45.83514" lon="5.74515">
        <ele>244.77881380135</ele>
        <time>2015-10-11T15:56:19Z</time>
      </trkpt>
      <trkpt lat="45.83507" lon="5.74519">
        <ele>244.77881380135</ele>
        <time>2015-10-11T15:56:24Z</time>
      </trkpt>
      <trkpt lat="45.83472" lon="5.74516">
        <ele>245.51685582405</ele>
        <time>2015-10-11T15:56:34Z</time>
      </trkpt>
      <trkpt lat="45.83455" lon="5.74507">
        <ele>246.28518686136</ele>
        <time>2015-10-11T15:56:39Z</time>
      </trkpt>
      <trkpt lat="45.83426" lon="5.7449">
        <ele>247.09482671747</ele>
        <time>2015-10-11T15:56:49Z</time>
      </trkpt>
      <trkpt lat="45.83417" lon="5.74485">
        <ele>247.48036741715</ele>
        <time>2015-10-11T15:56:54Z</time>
      </trkpt>
      <trkpt lat="45.83396" lon="5.74474">
        <ele>248.496187161</ele>
        <time>2015-10-11T15:57:09Z</time>
      </trkpt>
      <trkpt lat="45.83388" lon="5.7447">
        <ele>248.496187161</ele>
        <time>2015-10-11T15:57:14Z</time>
      </trkpt>
      <trkpt lat="45.83375" lon="5.74468">
        <ele>248.81172339725</ele>
        <time>2015-10-11T15:57:24Z</time>
      </trkpt>
      <trkpt lat="45.83369" lon="5.74465">
        <ele>248.81172339725</ele>
        <time>2015-10-11T15:57:29Z</time>
      </trkpt>
      <trkpt lat="45.83362" lon="5.74462">
        <ele>249.05521116699</ele>
        <time>2015-10-11T15:57:39Z</time>
      </trkpt>
      <trkpt lat="45.83362" lon="5.74461">
        <ele>249.05521116699</ele>
        <time>2015-10-11T15:57:44Z</time>
      </trkpt>
      <trkpt lat="45.8336" lon="5.74461">
        <ele>249.05521116699</ele>
        <time>2015-10-11T15:57:54Z</time>
      </trkpt>
      <trkpt lat="45.83352" lon="5.74461">
        <ele>249.29019023014</ele>
        <time>2015-10-11T15:57:59Z</time>
      </trkpt>
      <trkpt lat="45.83332" lon="5.7446">
        <ele>249.47472662986</ele>
        <time>2015-10-11T15:58:09Z</time>
      </trkpt>
      <trkpt lat="45.83325" lon="5.74459">
        <ele>249.47472662986</ele>
        <time>2015-10-11T15:58:14Z</time>
      </trkpt>
      <trkpt lat="45.83311" lon="5.74453">
        <ele>249.67102830396</ele>
        <time>2015-10-11T15:58:24Z</time>
      </trkpt>
      <trkpt lat="45.83305" lon="5.74447">
        <ele>249.67102830396</ele>
        <time>2015-10-11T15:58:29Z</time>
      </trkpt>
      <trkpt lat="45.83295" lon="5.74439">
        <ele>249.79262566609</ele>
        <time>2015-10-11T15:58:39Z</time>
      </trkpt>
      <trkpt lat="45.83289" lon="5.74436">
        <ele>249.79262566609</ele>
        <time>2015-10-11T15:58:44Z</time>
      </trkpt>
      <trkpt lat="45.83279" lon="5.74432">
        <ele>249.50024070508</ele>
        <time>2015-10-11T15:58:54Z</time>
      </trkpt>
      <trkpt lat="45.83273" lon="5.74428">
        <ele>249.50024070508</ele>
        <time>2015-10-11T15:58:59Z</time>
      </trkpt>
      <trkpt lat="45.83263" lon="5.74417">
        <ele>248.82656948642</ele>
        <time>2015-10-11T15:59:09Z</time>
      </trkpt>
      <trkpt lat="45.83258" lon="5.74412">
        <ele>248.82656948642</ele>
        <time>2015-10-11T15:59:14Z</time>
      </trkpt>
      <trkpt lat="45.83253" lon="5.74408">
        <ele>248.50913563161</ele>
        <time>2015-10-11T15:59:24Z</time>
      </trkpt>
      <trkpt lat="45.83251" lon="5.74407">
        <ele>248.50913563161</ele>
        <time>2015-10-11T15:59:29Z</time>
      </trkpt>
      <trkpt lat="45.8325" lon="5.74406">
        <ele>248.50913563161</ele>
        <time>2015-10-11T15:59:39Z</time>
      </trkpt>
      <trkpt lat="45.8325" lon="5.74406">
        <ele>248.50913563161</ele>
        <time>2015-10-11T15:59:44Z</time>
      </trkpt>
      <trkpt lat="45.8325" lon="5.74405">
        <ele>248.50913563161</ele>
        <time>2015-10-11T15:59:54Z</time>
      </trkpt>
      <trkpt lat="45.8325" lon="5.74405">
        <ele>248.50913563161</ele>
        <time>2015-10-11T15:59:59Z</time>
      </trkpt>
      <trkpt lat="45.83249" lon="5.74403">
        <ele>248.50913563161</ele>
        <time>2015-10-11T16:00:09Z</time>
      </trkpt>
      <trkpt lat="45.83249" lon="5.74403">
        <ele>248.50913563161</ele>
        <time>2015-10-11T16:00:14Z</time>
      </trkpt>
      <trkpt lat="45.83249" lon="5.74403">
        <ele>248.50913563161</ele>
        <time>2015-10-11T16:00:29Z</time>
      </trkpt>
      <trkpt lat="45.83249" lon="5.74403">
        <ele>248.50913563161</ele>
        <time>2015-10-11T16:00:34Z</time>
      </trkpt>
      <trkpt lat="45.83249" lon="5.74402">
        <ele>248.50913563161</ele>
        <time>2015-10-11T16:00:44Z</time>
      </trkpt>
      <trkpt lat="45.83249" lon="5.74402">
        <ele>248.50913563161</ele>
        <time>2015-10-11T16:00:49Z</time>
      </trkpt>
      <trkpt lat="45.83249" lon="5.74402">
        <ele>248.50913563161</ele>
        <time>2015-10-11T16:00:59Z</time>
      </trkpt>
      <trkpt lat="45.83249" lon="5.74402">
        <ele>248.50913563161</ele>
        <time>2015-10-11T16:01:04Z</time>
      </trkpt>
      <trkpt lat="45.83242" lon="5.74405">
        <ele>248.09181361592</ele>
        <time>2015-10-11T16:01:14Z</time>
      </trkpt>
      <trkpt lat="45.83238" lon="5.74413">
        <ele>248.09181361592</ele>
        <time>2015-10-11T16:01:19Z</time>
      </trkpt>
      <trkpt lat="45.83232" lon="5.74431">
        <ele>247.91605224718</ele>
        <time>2015-10-11T16:01:29Z</time>
      </trkpt>
      <trkpt lat="45.83231" lon="5.7444">
        <ele>247.91605224718</ele>
        <time>2015-10-11T16:01:34Z</time>
      </trkpt>
      <trkpt lat="45.8323" lon="5.74457">
        <ele>247.72108627247</ele>
        <time>2015-10-11T16:01:44Z</time>
      </trkpt>
      <trkpt lat="45.8323" lon="5.74467">
        <ele>247.72108627247</ele>
        <time>2015-10-11T16:01:49Z</time>
      </trkpt>
      <trkpt lat="45.83228" lon="5.74489">
        <ele>247.51033381874</ele>
        <time>2015-10-11T16:01:59Z</time>
      </trkpt>
      <trkpt lat="45.83228" lon="5.74499">
        <ele>247.51033381874</ele>
        <time>2015-10-11T16:02:04Z</time>
      </trkpt>
      <trkpt lat="45.83227" lon="5.74526">
        <ele>247.22934124382</ele>
        <time>2015-10-11T16:02:19Z</time>
      </trkpt>
      <trkpt lat="45.83228" lon="5.74534">
        <ele>247.22934124382</ele>
        <time>2015-10-11T16:02:24Z</time>
      </trkpt>
      <trkpt lat="45.83234" lon="5.74544">
        <ele>246.51078153933</ele>
        <time>2015-10-11T16:02:34Z</time>
      </trkpt>
      <trkpt lat="45.83238" lon="5.74549">
        <ele>246.51078153933</ele>
        <time>2015-10-11T16:02:39Z</time>
      </trkpt>
      <trkpt lat="45.83244" lon="5.7456">
        <ele>245.07315029308</ele>
        <time>2015-10-11T16:02:49Z</time>
      </trkpt>
      <trkpt lat="45.83248" lon="5.74564">
        <ele>245.07315029308</ele>
        <time>2015-10-11T16:02:54Z</time>
      </trkpt>
      <trkpt lat="45.83255" lon="5.74574">
        <ele>242.52789605661</ele>
        <time>2015-10-11T16:03:04Z</time>
      </trkpt>
      <trkpt lat="45.8326" lon="5.74581">
        <ele>242.52789605661</ele>
        <time>2015-10-11T16:03:09Z</time>
      </trkpt>
      <trkpt lat="45.83271" lon="5.74597">
        <ele>240.83825192278</ele>
        <time>2015-10-11T16:03:19Z</time>
      </trkpt>
      <trkpt lat="45.83277" lon="5.74605">
        <ele>240.83825192278</ele>
        <time>2015-10-11T16:03:24Z</time>
      </trkpt>
      <trkpt lat="45.83287" lon="5.7464">
        <ele>239.55821903143</ele>
        <time>2015-10-11T16:03:39Z</time>
      </trkpt>
      <trkpt lat="45.83288" lon="5.74648">
        <ele>239.55821903143</ele>
        <time>2015-10-11T16:03:44Z</time>
      </trkpt>
      <trkpt lat="45.8329" lon="5.74663">
        <ele>238.64802058147</ele>
        <time>2015-10-11T16:03:54Z</time>
      </trkpt>
      <trkpt lat="45.83291" lon="5.74669">
        <ele>238.64802058147</ele>
        <time>2015-10-11T16:03:59Z</time>
      </trkpt>
      <trkpt lat="45.83292" lon="5.74678">
        <ele>237.59410691281</ele>
        <time>2015-10-11T16:04:09Z</time>
      </trkpt>
      <trkpt lat="45.83293" lon="5.74682">
        <ele>237.59410691281</ele>
        <time>2015-10-11T16:04:14Z</time>
      </trkpt>
      <trkpt lat="45.83292" lon="5.74689">
        <ele>237.59410691281</ele>
        <time>2015-10-11T16:04:24Z</time>
      </trkpt>
      <trkpt lat="45.83292" lon="5.7469">
        <ele>237.59410691281</ele>
        <time>2015-10-11T16:04:29Z</time>
      </trkpt>
      <trkpt lat="45.83292" lon="5.7469">
        <ele>237.54941780551</ele>
        <time>2015-10-11T16:04:39Z</time>
      </trkpt>
      <trkpt lat="45.83292" lon="5.7469">
        <ele>237.54941780551</ele>
        <time>2015-10-11T16:04:44Z</time>
      </trkpt>
      <trkpt lat="45.83292" lon="5.7469">
        <ele>237.54941780551</ele>
        <time>2015-10-11T16:04:54Z</time>
      </trkpt>
      <trkpt lat="45.83292" lon="5.7469">
        <ele>237.54941780551</ele>
        <time>2015-10-11T16:04:59Z</time>
      </trkpt>
      <trkpt lat="45.83292" lon="5.74691">
        <ele>237.54941780551</ele>
        <time>2015-10-11T16:05:14Z</time>
      </trkpt>
      <trkpt lat="45.83292" lon="5.74685">
        <ele>237.54941780551</ele>
        <time>2015-10-11T16:05:19Z</time>
      </trkpt>
      <trkpt lat="45.83291" lon="5.74673">
        <ele>237.54730376753</ele>
        <time>2015-10-11T16:05:29Z</time>
      </trkpt>
      <trkpt lat="45.83292" lon="5.74666">
        <ele>237.54730376753</ele>
        <time>2015-10-11T16:05:34Z</time>
      </trkpt>
      <trkpt lat="45.83299" lon="5.74673">
        <ele>236.57661972077</ele>
        <time>2015-10-11T16:05:44Z</time>
      </trkpt>
      <trkpt lat="45.83302" lon="5.74679">
        <ele>236.57661972077</ele>
        <time>2015-10-11T16:05:49Z</time>
      </trkpt>
      <trkpt lat="45.83309" lon="5.74689">
        <ele>235.59097594577</ele>
        <time>2015-10-11T16:05:59Z</time>
      </trkpt>
      <trkpt lat="45.83311" lon="5.74698">
        <ele>235.59097594577</ele>
        <time>2015-10-11T16:06:04Z</time>
      </trkpt>
      <trkpt lat="45.83314" lon="5.74714">
        <ele>235.05595551177</ele>
        <time>2015-10-11T16:06:14Z</time>
      </trkpt>
      <trkpt lat="45.83314" lon="5.74716">
        <ele>235.05595551177</ele>
        <time>2015-10-11T16:06:19Z</time>
      </trkpt>
      <trkpt lat="45.83299" lon="5.74735">
        <ele>234.30633545188</ele>
        <time>2015-10-11T16:06:29Z</time>
      </trkpt>
      <trkpt lat="45.8329" lon="5.74737">
        <ele>234.30633545188</ele>
        <time>2015-10-11T16:06:34Z</time>
      </trkpt>
      <trkpt lat="45.83275" lon="5.74743">
        <ele>234.49883428761</ele>
        <time>2015-10-11T16:06:44Z</time>
      </trkpt>
      <trkpt lat="45.83269" lon="5.74746">
        <ele>234.49883428761</ele>
        <time>2015-10-11T16:06:49Z</time>
      </trkpt>
      <trkpt lat="45.83257" lon="5.74738">
        <ele>234.1949285756</ele>
        <time>2015-10-11T16:06:59Z</time>
      </trkpt>
      <trkpt lat="45.83252" lon="5.74735">
        <ele>234.1949285756</ele>
        <time>2015-10-11T16:07:04Z</time>
      </trkpt>
      <trkpt lat="45.83234" lon="5.74725">
        <ele>233.96533863755</ele>
        <time>2015-10-11T16:07:19Z</time>
      </trkpt>
      <trkpt lat="45.83228" lon="5.74722">
        <ele>233.96533863755</ele>
        <time>2015-10-11T16:07:24Z</time>
      </trkpt>
      <trkpt lat="45.83215" lon="5.74717">
        <ele>233.4306656415</ele>
        <time>2015-10-11T16:07:34Z</time>
      </trkpt>
      <trkpt lat="45.83208" lon="5.74713">
        <ele>233.4306656415</ele>
        <time>2015-10-11T16:07:39Z</time>
      </trkpt>
      <trkpt lat="45.8319" lon="5.74706">
        <ele>232.80218859826</ele>
        <time>2015-10-11T16:07:49Z</time>
      </trkpt>
      <trkpt lat="45.83184" lon="5.74704">
        <ele>232.80218859826</ele>
        <time>2015-10-11T16:07:54Z</time>
      </trkpt>
      <trkpt lat="45.83171" lon="5.74708">
        <ele>232.98199565972</ele>
        <time>2015-10-11T16:08:04Z</time>
      </trkpt>
      <trkpt lat="45.83165" lon="5.74708">
        <ele>232.98199565972</ele>
        <time>2015-10-11T16:08:09Z</time>
      </trkpt>
      <trkpt lat="45.83153" lon="5.74713">
        <ele>231.80605174493</ele>
        <time>2015-10-11T16:08:19Z</time>
      </trkpt>
      <trkpt lat="45.83148" lon="5.74716">
        <ele>231.80605174493</ele>
        <time>2015-10-11T16:08:24Z</time>
      </trkpt>
      <trkpt lat="45.83132" lon="5.74727">
        <ele>231.09196489605</ele>
        <time>2015-10-11T16:08:34Z</time>
      </trkpt>
      <trkpt lat="45.83126" lon="5.7473">
        <ele>231.09196489605</ele>
        <time>2015-10-11T16:08:39Z</time>
      </trkpt>
      <trkpt lat="45.83099" lon="5.7474">
        <ele>229.88521828752</ele>
        <time>2015-10-11T16:08:54Z</time>
      </trkpt>
      <trkpt lat="45.83091" lon="5.74738">
        <ele>229.88521828752</ele>
        <time>2015-10-11T16:08:59Z</time>
      </trkpt>
      <trkpt lat="45.83066" lon="5.74732">
        <ele>228.75824309954</ele>
        <time>2015-10-11T16:09:09Z</time>
      </trkpt>
      <trkpt lat="45.83047" lon="5.74734">
        <ele>228.64463205036</ele>
        <time>2015-10-11T16:09:14Z</time>
      </trkpt>
      <trkpt lat="45.83022" lon="5.74752">
        <ele>228.11511115988</ele>
        <time>2015-10-11T16:09:24Z</time>
      </trkpt>
      <trkpt lat="45.83017" lon="5.74737">
        <ele>227.44612685298</ele>
        <time>2015-10-11T16:09:29Z</time>
      </trkpt>
      <trkpt lat="45.8299" lon="5.74692">
        <ele>225.9862360411</ele>
        <time>2015-10-11T16:09:39Z</time>
      </trkpt>
      <trkpt lat="45.82949" lon="5.74678">
        <ele>224.63275294214</ele>
        <time>2015-10-11T16:09:44Z</time>
      </trkpt>
      <trkpt lat="45.82901" lon="5.74646">
        <ele>224.38963872077</ele>
        <time>2015-10-11T16:09:54Z</time>
      </trkpt>
      <trkpt lat="45.82882" lon="5.74629">
        <ele>224.59869594736</ele>
        <time>2015-10-11T16:09:59Z</time>
      </trkpt>
      <trkpt lat="45.82863" lon="5.74559">
        <ele>224.34610826935</ele>
        <time>2015-10-11T16:10:09Z</time>
      </trkpt>
      <trkpt lat="45.82853" lon="5.7454">
        <ele>223.49256400177</ele>
        <time>2015-10-11T16:10:14Z</time>
      </trkpt>
      <trkpt lat="45.82805" lon="5.7453">
        <ele>223.17879157179</ele>
        <time>2015-10-11T16:10:24Z</time>
      </trkpt>
      <trkpt lat="45.82778" lon="5.74512">
        <ele>223.73960052866</ele>
        <time>2015-10-11T16:10:29Z</time>
      </trkpt>
      <trkpt lat="45.82766" lon="5.74497">
        <ele>224.22893951605</ele>
        <time>2015-10-11T16:10:44Z</time>
      </trkpt>
      <trkpt lat="45.82762" lon="5.74494">
        <ele>224.22893951605</ele>
        <time>2015-10-11T16:10:49Z</time>
      </trkpt>
      <trkpt lat="45.82749" lon="5.74484">
        <ele>224.49097192877</ele>
        <time>2015-10-11T16:10:59Z</time>
      </trkpt>
      <trkpt lat="45.8274" lon="5.74478">
        <ele>224.58367288142</ele>
        <time>2015-10-11T16:11:04Z</time>
      </trkpt>
      <trkpt lat="45.82701" lon="5.74453">
        <ele>223.73977766353</ele>
        <time>2015-10-11T16:11:14Z</time>
      </trkpt>
      <trkpt lat="45.82639" lon="5.74414">
        <ele>224.147630296</ele>
        <time>2015-10-11T16:11:19Z</time>
      </trkpt>
      <trkpt lat="45.82608" lon="5.74402">
        <ele>225.23729813067</ele>
        <time>2015-10-11T16:11:29Z</time>
      </trkpt>
      <trkpt lat="45.82593" lon="5.74415">
        <ele>224.3171292852</ele>
        <time>2015-10-11T16:11:34Z</time>
      </trkpt>
      <trkpt lat="45.82537" lon="5.74452">
        <ele>223.13570249395</ele>
        <time>2015-10-11T16:11:44Z</time>
      </trkpt>
      <trkpt lat="45.82504" lon="5.74463">
        <ele>223.18418018338</ele>
        <time>2015-10-11T16:11:49Z</time>
      </trkpt>
      <trkpt lat="45.82452" lon="5.7447">
        <ele>223.89523662644</ele>
        <time>2015-10-11T16:11:59Z</time>
      </trkpt>
      <trkpt lat="45.82428" lon="5.74488">
        <ele>224.38108956116</ele>
        <time>2015-10-11T16:12:04Z</time>
      </trkpt>
      <trkpt lat="45.82362" lon="5.74455">
        <ele>225.30415985875</ele>
        <time>2015-10-11T16:12:14Z</time>
      </trkpt>
      <trkpt lat="45.82349" lon="5.74455">
        <ele>226.67173343103</ele>
        <time>2015-10-11T16:12:19Z</time>
      </trkpt>
      <trkpt lat="45.82294" lon="5.74487">
        <ele>228.38846662141</ele>
        <time>2015-10-11T16:12:34Z</time>
      </trkpt>
      <trkpt lat="45.82276" lon="5.74518">
        <ele>229.83187074717</ele>
        <time>2015-10-11T16:12:39Z</time>
      </trkpt>
      <trkpt lat="45.82228" lon="5.74557">
        <ele>230.28189284735</ele>
        <time>2015-10-11T16:12:49Z</time>
      </trkpt>
      <trkpt lat="45.82202" lon="5.74567">
        <ele>230.0109441637</ele>
        <time>2015-10-11T16:12:54Z</time>
      </trkpt>
      <trkpt lat="45.82155" lon="5.74597">
        <ele>230.78668049728</ele>
        <time>2015-10-11T16:13:04Z</time>
      </trkpt>
      <trkpt lat="45.8215" lon="5.74601">
        <ele>230.78668049728</ele>
        <time>2015-10-11T16:13:09Z</time>
      </trkpt>
      <trkpt lat="45.82143" lon="5.74609">
        <ele>231.26093736179</ele>
        <time>2015-10-11T16:13:19Z</time>
      </trkpt>
      <trkpt lat="45.82139" lon="5.74614">
        <ele>231.26093736179</ele>
        <time>2015-10-11T16:13:24Z</time>
      </trkpt>
      <trkpt lat="45.82128" lon="5.74632">
        <ele>231.62661165704</ele>
        <time>2015-10-11T16:13:34Z</time>
      </trkpt>
      <trkpt lat="45.82113" lon="5.74646">
        <ele>231.96192616678</ele>
        <time>2015-10-11T16:13:39Z</time>
      </trkpt>
      <trkpt lat="45.82076" lon="5.74666">
        <ele>232.16657908264</ele>
        <time>2015-10-11T16:13:49Z</time>
      </trkpt>
      <trkpt lat="45.82062" lon="5.74667">
        <ele>231.75897140477</ele>
        <time>2015-10-11T16:13:54Z</time>
      </trkpt>
      <trkpt lat="45.81957" lon="5.74649">
        <ele>232.96072443983</ele>
        <time>2015-10-11T16:14:09Z</time>
      </trkpt>
      <trkpt lat="45.81943" lon="5.74645">
        <ele>233.4592446492</ele>
        <time>2015-10-11T16:14:14Z</time>
      </trkpt>
      <trkpt lat="45.81929" lon="5.74643">
        <ele>234.99045232302</ele>
        <time>2015-10-11T16:14:24Z</time>
      </trkpt>
      <trkpt lat="45.81922" lon="5.74646">
        <ele>234.99045232302</ele>
        <time>2015-10-11T16:14:29Z</time>
      </trkpt>
      <trkpt lat="45.81905" lon="5.74654">
        <ele>236.09035505364</ele>
        <time>2015-10-11T16:14:39Z</time>
      </trkpt>
      <trkpt lat="45.81896" lon="5.7466">
        <ele>236.80166866239</ele>
        <time>2015-10-11T16:14:44Z</time>
      </trkpt>
      <trkpt lat="45.81886" lon="5.74664">
        <ele>236.84809470942</ele>
        <time>2015-10-11T16:14:54Z</time>
      </trkpt>
      <trkpt lat="45.81882" lon="5.74665">
        <ele>236.84809470942</ele>
        <time>2015-10-11T16:14:59Z</time>
      </trkpt>
      <trkpt lat="45.81873" lon="5.7467">
        <ele>236.10527401243</ele>
        <time>2015-10-11T16:15:09Z</time>
      </trkpt>
      <trkpt lat="45.81863" lon="5.74679">
        <ele>235.46904768686</ele>
        <time>2015-10-11T16:15:14Z</time>
      </trkpt>
      <trkpt lat="45.81782" lon="5.74736">
        <ele>234.40015795681</ele>
        <time>2015-10-11T16:15:29Z</time>
      </trkpt>
      <trkpt lat="45.81751" lon="5.7475">
        <ele>233.25048336657</ele>
        <time>2015-10-11T16:15:34Z</time>
      </trkpt>
      <trkpt lat="45.81703" lon="5.7476">
        <ele>231.85634280669</ele>
        <time>2015-10-11T16:15:44Z</time>
      </trkpt>
      <trkpt lat="45.81678" lon="5.74742">
        <ele>231.49349468287</ele>
        <time>2015-10-11T16:15:49Z</time>
      </trkpt>
      <trkpt lat="45.81631" lon="5.74766">
        <ele>231.98646330211</ele>
        <time>2015-10-11T16:15:59Z</time>
      </trkpt>
      <trkpt lat="45.81602" lon="5.7478">
        <ele>232.79558886371</ele>
        <time>2015-10-11T16:16:04Z</time>
      </trkpt>
      <trkpt lat="45.81588" lon="5.74786">
        <ele>232.85794753734</ele>
        <time>2015-10-11T16:16:14Z</time>
      </trkpt>
      <trkpt lat="45.81585" lon="5.74786">
        <ele>232.85794753734</ele>
        <time>2015-10-11T16:16:19Z</time>
      </trkpt>
      <trkpt lat="45.81574" lon="5.74788">
        <ele>232.08429408544</ele>
        <time>2015-10-11T16:16:29Z</time>
      </trkpt>
      <trkpt lat="45.81566" lon="5.7479">
        <ele>232.08429408544</ele>
        <time>2015-10-11T16:16:34Z</time>
      </trkpt>
      <trkpt lat="45.81554" lon="5.74787">
        <ele>231.02838427808</ele>
        <time>2015-10-11T16:16:44Z</time>
      </trkpt>
      <trkpt lat="45.8155" lon="5.74785">
        <ele>231.02838427808</ele>
        <time>2015-10-11T16:16:49Z</time>
      </trkpt>
      <trkpt lat="45.8154" lon="5.74784">
        <ele>229.84381466987</ele>
        <time>2015-10-11T16:16:59Z</time>
      </trkpt>
      <trkpt lat="45.81532" lon="5.74779">
        <ele>229.84381466987</ele>
        <time>2015-10-11T16:17:04Z</time>
      </trkpt>
      <trkpt lat="45.8151" lon="5.74779">
        <ele>228.75972366764</ele>
        <time>2015-10-11T16:17:19Z</time>
      </trkpt>
      <trkpt lat="45.81495" lon="5.74778">
        <ele>228.29075796281</ele>
        <time>2015-10-11T16:17:24Z</time>
      </trkpt>
      <trkpt lat="45.81481" lon="5.74779">
        <ele>227.57178059013</ele>
        <time>2015-10-11T16:17:34Z</time>
      </trkpt>
      <trkpt lat="45.81473" lon="5.74782">
        <ele>227.57178059013</ele>
        <time>2015-10-11T16:17:39Z</time>
      </trkpt>
      <trkpt lat="45.81455" lon="5.74785">
        <ele>227.89149751483</ele>
        <time>2015-10-11T16:17:49Z</time>
      </trkpt>
      <trkpt lat="45.81444" lon="5.74788">
        <ele>228.25051921704</ele>
        <time>2015-10-11T16:17:54Z</time>
      </trkpt>
      <trkpt lat="45.81431" lon="5.74792">
        <ele>228.55858201477</ele>
        <time>2015-10-11T16:18:04Z</time>
      </trkpt>
      <trkpt lat="45.81423" lon="5.74792">
        <ele>228.55858201477</ele>
        <time>2015-10-11T16:18:09Z</time>
      </trkpt>
      <trkpt lat="45.8141" lon="5.74794">
        <ele>228.67453068894</ele>
        <time>2015-10-11T16:18:19Z</time>
      </trkpt>
      <trkpt lat="45.81406" lon="5.74795">
        <ele>228.67453068894</ele>
        <time>2015-10-11T16:18:24Z</time>
      </trkpt>
      <trkpt lat="45.81395" lon="5.74794">
        <ele>227.21433099563</ele>
        <time>2015-10-11T16:18:34Z</time>
      </trkpt>
      <trkpt lat="45.81389" lon="5.74796">
        <ele>227.21433099563</ele>
        <time>2015-10-11T16:18:39Z</time>
      </trkpt>
      <trkpt lat="45.81365" lon="5.74785">
        <ele>226.32986556084</ele>
        <time>2015-10-11T16:18:49Z</time>
      </trkpt>
      <trkpt lat="45.81356" lon="5.7478">
        <ele>225.8804569675</ele>
        <time>2015-10-11T16:18:54Z</time>
      </trkpt>
      <trkpt lat="45.81341" lon="5.74781">
        <ele>225.90744781106</ele>
        <time>2015-10-11T16:19:04Z</time>
      </trkpt>
      <trkpt lat="45.81334" lon="5.74784">
        <ele>225.90744781106</ele>
        <time>2015-10-11T16:19:09Z</time>
      </trkpt>
      <trkpt lat="45.81312" lon="5.74798">
        <ele>225.33812073508</ele>
        <time>2015-10-11T16:19:24Z</time>
      </trkpt>
      <trkpt lat="45.81304" lon="5.74798">
        <ele>225.33812073508</ele>
        <time>2015-10-11T16:19:29Z</time>
      </trkpt>
      <trkpt lat="45.81293" lon="5.74805">
        <ele>225.05364622018</ele>
        <time>2015-10-11T16:19:39Z</time>
      </trkpt>
      <trkpt lat="45.81286" lon="5.7481">
        <ele>225.05364622018</ele>
        <time>2015-10-11T16:19:44Z</time>
      </trkpt>
      <trkpt lat="45.81246" lon="5.74859">
        <ele>225.91286938183</ele>
        <time>2015-10-11T16:19:54Z</time>
      </trkpt>
      <trkpt lat="45.81226" lon="5.7487">
        <ele>226.69075436425</ele>
        <time>2015-10-11T16:19:59Z</time>
      </trkpt>
      <trkpt lat="45.81185" lon="5.74893">
        <ele>226.55509499402</ele>
        <time>2015-10-11T16:20:09Z</time>
      </trkpt>
      <trkpt lat="45.81165" lon="5.74906">
        <ele>226.32258622044</ele>
        <time>2015-10-11T16:20:14Z</time>
      </trkpt>
      <trkpt lat="45.81101" lon="5.74934">
        <ele>226.82224336704</ele>
        <time>2015-10-11T16:20:24Z</time>
      </trkpt>
      <trkpt lat="45.81074" lon="5.7495">
        <ele>227.03314029751</ele>
        <time>2015-10-11T16:20:29Z</time>
      </trkpt>
      <trkpt lat="45.81016" lon="5.74974">
        <ele>227.0333387962</ele>
        <time>2015-10-11T16:20:39Z</time>
      </trkpt>
      <trkpt lat="45.80984" lon="5.74976">
        <ele>226.80928454671</ele>
        <time>2015-10-11T16:20:44Z</time>
      </trkpt>
      <trkpt lat="45.80931" lon="5.74979">
        <ele>226.5652101435</ele>
        <time>2015-10-11T16:20:54Z</time>
      </trkpt>
      <trkpt lat="45.80907" lon="5.74986">
        <ele>226.4327527127</ele>
        <time>2015-10-11T16:20:59Z</time>
      </trkpt>
      <trkpt lat="45.80821" lon="5.75041">
        <ele>226.96589621138</ele>
        <time>2015-10-11T16:21:14Z</time>
      </trkpt>
      <trkpt lat="45.80794" lon="5.75047">
        <ele>227.50875957987</ele>
        <time>2015-10-11T16:21:19Z</time>
      </trkpt>
      <trkpt lat="45.80739" lon="5.7506">
        <ele>228.03006073715</ele>
        <time>2015-10-11T16:21:29Z</time>
      </trkpt>
      <trkpt lat="45.80709" lon="5.75065">
        <ele>228.35676969982</ele>
        <time>2015-10-11T16:21:34Z</time>
      </trkpt>
      <trkpt lat="45.80653" lon="5.7508">
        <ele>228.66057768778</ele>
        <time>2015-10-11T16:21:44Z</time>
      </trkpt>
      <trkpt lat="45.80626" lon="5.7507">
        <ele>228.61066153362</ele>
        <time>2015-10-11T16:21:49Z</time>
      </trkpt>
      <trkpt lat="45.80569" lon="5.75058">
        <ele>228.34824990192</ele>
        <time>2015-10-11T16:21:59Z</time>
      </trkpt>
      <trkpt lat="45.8054" lon="5.75059">
        <ele>228.20656139611</ele>
        <time>2015-10-11T16:22:04Z</time>
      </trkpt>
      <trkpt lat="45.80479" lon="5.75055">
        <ele>228.7822331446</ele>
        <time>2015-10-11T16:22:14Z</time>
      </trkpt>
      <trkpt lat="45.80454" lon="5.75058">
        <ele>228.95438430991</ele>
        <time>2015-10-11T16:22:19Z</time>
      </trkpt>
      <trkpt lat="45.80416" lon="5.75102">
        <ele>228.9826186892</ele>
        <time>2015-10-11T16:22:29Z</time>
      </trkpt>
      <trkpt lat="45.804" lon="5.75132">
        <ele>229.00700935447</ele>
        <time>2015-10-11T16:22:34Z</time>
      </trkpt>
      <trkpt lat="45.80368" lon="5.75186">
        <ele>229.33029867504</ele>
        <time>2015-10-11T16:22:44Z</time>
      </trkpt>
      <trkpt lat="45.80362" lon="5.75194">
        <ele>229.33029867504</ele>
        <time>2015-10-11T16:22:49Z</time>
      </trkpt>
      <trkpt lat="45.80355" lon="5.75216">
        <ele>229.36749907399</ele>
        <time>2015-10-11T16:23:04Z</time>
      </trkpt>
      <trkpt lat="45.80355" lon="5.75225">
        <ele>229.36749907399</ele>
        <time>2015-10-11T16:23:09Z</time>
      </trkpt>
      <trkpt lat="45.80353" lon="5.75244">
        <ele>229.0529794568</ele>
        <time>2015-10-11T16:23:19Z</time>
      </trkpt>
      <trkpt lat="45.80352" lon="5.75253">
        <ele>229.0529794568</ele>
        <time>2015-10-11T16:23:24Z</time>
      </trkpt>
      <trkpt lat="45.8035" lon="5.75273">
        <ele>228.67279647036</ele>
        <time>2015-10-11T16:23:34Z</time>
      </trkpt>
      <trkpt lat="45.80348" lon="5.75284">
        <ele>228.67279647036</ele>
        <time>2015-10-11T16:23:39Z</time>
      </trkpt>
      <trkpt lat="45.80345" lon="5.75304">
        <ele>229.12627892862</ele>
        <time>2015-10-11T16:23:49Z</time>
      </trkpt>
      <trkpt lat="45.80343" lon="5.75316">
        <ele>229.12627892862</ele>
        <time>2015-10-11T16:23:54Z</time>
      </trkpt>
      <trkpt lat="45.80339" lon="5.7534">
        <ele>229.73119744638</ele>
        <time>2015-10-11T16:24:04Z</time>
      </trkpt>
      <trkpt lat="45.80336" lon="5.75352">
        <ele>230.33059353904</ele>
        <time>2015-10-11T16:24:09Z</time>
      </trkpt>
      <trkpt lat="45.80328" lon="5.75383">
        <ele>231.16817014818</ele>
        <time>2015-10-11T16:24:24Z</time>
      </trkpt>
      <trkpt lat="45.80326" lon="5.75391">
        <ele>231.16817014818</ele>
        <time>2015-10-11T16:24:29Z</time>
      </trkpt>
      <trkpt lat="45.8032" lon="5.75408">
        <ele>231.44588969305</ele>
        <time>2015-10-11T16:24:39Z</time>
      </trkpt>
      <trkpt lat="45.80315" lon="5.75415">
        <ele>231.44588969305</ele>
        <time>2015-10-11T16:24:44Z</time>
      </trkpt>
      <trkpt lat="45.80303" lon="5.75432">
        <ele>231.42029735543</ele>
        <time>2015-10-11T16:24:54Z</time>
      </trkpt>
      <trkpt lat="45.80298" lon="5.75441">
        <ele>231.42029735543</ele>
        <time>2015-10-11T16:24:59Z</time>
      </trkpt>
      <trkpt lat="45.8029" lon="5.75459">
        <ele>231.54613355163</ele>
        <time>2015-10-11T16:25:09Z</time>
      </trkpt>
      <trkpt lat="45.80283" lon="5.75462">
        <ele>231.54613355163</ele>
        <time>2015-10-11T16:25:14Z</time>
      </trkpt>
      <trkpt lat="45.80249" lon="5.75476">
        <ele>230.99056395191</ele>
        <time>2015-10-11T16:25:24Z</time>
      </trkpt>
      <trkpt lat="45.80234" lon="5.7548">
        <ele>230.98701058612</ele>
        <time>2015-10-11T16:25:29Z</time>
      </trkpt>
      <trkpt lat="45.80221" lon="5.75482">
        <ele>230.90419029289</ele>
        <time>2015-10-11T16:25:39Z</time>
      </trkpt>
      <trkpt lat="45.80214" lon="5.75484">
        <ele>230.90419029289</ele>
        <time>2015-10-11T16:25:44Z</time>
      </trkpt>
      <trkpt lat="45.802" lon="5.75489">
        <ele>230.90680851221</ele>
        <time>2015-10-11T16:25:54Z</time>
      </trkpt>
      <trkpt lat="45.80194" lon="5.75492">
        <ele>230.90680851221</ele>
        <time>2015-10-11T16:25:59Z</time>
      </trkpt>
      <trkpt lat="45.80171" lon="5.75495">
        <ele>230.94548833194</ele>
        <time>2015-10-11T16:26:14Z</time>
      </trkpt>
      <trkpt lat="45.80154" lon="5.75499">
        <ele>231.21937899961</ele>
        <time>2015-10-11T16:26:19Z</time>
      </trkpt>
      <trkpt lat="45.80136" lon="5.75499">
        <ele>231.27826168377</ele>
        <time>2015-10-11T16:26:29Z</time>
      </trkpt>
      <trkpt lat="45.80129" lon="5.75498">
        <ele>231.27826168377</ele>
        <time>2015-10-11T16:26:34Z</time>
      </trkpt>
      <trkpt lat="45.80088" lon="5.7549">
        <ele>231.1235253654</ele>
        <time>2015-10-11T16:26:44Z</time>
      </trkpt>
      <trkpt lat="45.80062" lon="5.755">
        <ele>230.91558690933</ele>
        <time>2015-10-11T16:26:49Z</time>
      </trkpt>
      <trkpt lat="45.80015" lon="5.75535">
        <ele>230.76000176041</ele>
        <time>2015-10-11T16:26:59Z</time>
      </trkpt>
      <trkpt lat="45.79988" lon="5.75526">
        <ele>230.71119588467</ele>
        <time>2015-10-11T16:27:04Z</time>
      </trkpt>
      <trkpt lat="45.79958" lon="5.75518">
        <ele>230.76165604864</ele>
        <time>2015-10-11T16:27:14Z</time>
      </trkpt>
      <trkpt lat="45.79951" lon="5.75518">
        <ele>230.76165604864</ele>
        <time>2015-10-11T16:27:19Z</time>
      </trkpt>
      <trkpt lat="45.79938" lon="5.75524">
        <ele>230.61592135965</ele>
        <time>2015-10-11T16:27:29Z</time>
      </trkpt>
      <trkpt lat="45.7993" lon="5.75524">
        <ele>230.61592135965</ele>
        <time>2015-10-11T16:27:34Z</time>
      </trkpt>
      <trkpt lat="45.79905" lon="5.75526">
        <ele>230.54840815088</ele>
        <time>2015-10-11T16:27:44Z</time>
      </trkpt>
      <trkpt lat="45.79894" lon="5.75527">
        <ele>230.53934270346</ele>
        <time>2015-10-11T16:27:49Z</time>
      </trkpt>
      <trkpt lat="45.79872" lon="5.7553">
        <ele>230.57023812708</ele>
        <time>2015-10-11T16:28:04Z</time>
      </trkpt>
      <trkpt lat="45.79865" lon="5.7553">
        <ele>230.57023812708</ele>
        <time>2015-10-11T16:28:09Z</time>
      </trkpt>
      <trkpt lat="45.79853" lon="5.75528">
        <ele>230.3356281941</ele>
        <time>2015-10-11T16:28:19Z</time>
      </trkpt>
      <trkpt lat="45.79841" lon="5.75532">
        <ele>230.12967152677</ele>
        <time>2015-10-11T16:28:24Z</time>
      </trkpt>
      <trkpt lat="45.79809" lon="5.75547">
        <ele>229.97984343166</ele>
        <time>2015-10-11T16:28:34Z</time>
      </trkpt>
      <trkpt lat="45.79783" lon="5.75551">
        <ele>229.94025917392</ele>
        <time>2015-10-11T16:28:39Z</time>
      </trkpt>
      <trkpt lat="45.79747" lon="5.75574">
        <ele>229.98868635923</ele>
        <time>2015-10-11T16:28:49Z</time>
      </trkpt>
      <trkpt lat="45.79735" lon="5.75575">
        <ele>229.93133731708</ele>
        <time>2015-10-11T16:28:54Z</time>
      </trkpt>
      <trkpt lat="45.79723" lon="5.75569">
        <ele>229.79070375467</ele>
        <time>2015-10-11T16:29:04Z</time>
      </trkpt>
      <trkpt lat="45.79716" lon="5.75568">
        <ele>229.79070375467</ele>
        <time>2015-10-11T16:29:09Z</time>
      </trkpt>
      <trkpt lat="45.79702" lon="5.75565">
        <ele>230.32281807973</ele>
        <time>2015-10-11T16:29:19Z</time>
      </trkpt>
      <trkpt lat="45.79688" lon="5.75553">
        <ele>230.82840318355</ele>
        <time>2015-10-11T16:29:24Z</time>
      </trkpt>
      <trkpt lat="45.79647" lon="5.75511">
        <ele>230.67403094559</ele>
        <time>2015-10-11T16:29:34Z</time>
      </trkpt>
      <trkpt lat="45.79624" lon="5.75492">
        <ele>230.85987568817</ele>
        <time>2015-10-11T16:29:39Z</time>
      </trkpt>
      <trkpt lat="45.79577" lon="5.7548">
        <ele>231.33172848076</ele>
        <time>2015-10-11T16:29:49Z</time>
      </trkpt>
      <trkpt lat="45.79548" lon="5.75491">
        <ele>231.85121696864</ele>
        <time>2015-10-11T16:29:54Z</time>
      </trkpt>
      <trkpt lat="45.79506" lon="5.75534">
        <ele>232.15411565157</ele>
        <time>2015-10-11T16:30:04Z</time>
      </trkpt>
      <trkpt lat="45.79496" lon="5.75561">
        <ele>231.85210996077</ele>
        <time>2015-10-11T16:30:09Z</time>
      </trkpt>
      <trkpt lat="45.79477" lon="5.75579">
        <ele>231.35090171228</ele>
        <time>2015-10-11T16:30:19Z</time>
      </trkpt>
      <trkpt lat="45.7946" lon="5.75582">
        <ele>230.52256252683</ele>
        <time>2015-10-11T16:30:24Z</time>
      </trkpt>
      <trkpt lat="45.79396" lon="5.7558">
        <ele>229.79710014973</ele>
        <time>2015-10-11T16:30:39Z</time>
      </trkpt>
      <trkpt lat="45.79389" lon="5.75578">
        <ele>229.79710014973</ele>
        <time>2015-10-11T16:30:44Z</time>
      </trkpt>
      <trkpt lat="45.79381" lon="5.75566">
        <ele>230.00497352279</ele>
        <time>2015-10-11T16:30:54Z</time>
      </trkpt>
      <trkpt lat="45.79379" lon="5.75557">
        <ele>230.00497352279</ele>
        <time>2015-10-11T16:30:59Z</time>
      </trkpt>
      <trkpt lat="45.79368" lon="5.7554">
        <ele>230.6304208665</ele>
        <time>2015-10-11T16:31:09Z</time>
      </trkpt>
      <trkpt lat="45.79362" lon="5.75534">
        <ele>230.6304208665</ele>
        <time>2015-10-11T16:31:14Z</time>
      </trkpt>
      <trkpt lat="45.79352" lon="5.75521">
        <ele>231.7996563606</ele>
        <time>2015-10-11T16:31:24Z</time>
      </trkpt>
      <trkpt lat="45.79344" lon="5.75508">
        <ele>233.06606111001</ele>
        <time>2015-10-11T16:31:29Z</time>
      </trkpt>
      <trkpt lat="45.79339" lon="5.75499">
        <ele>233.06606111001</ele>
        <time>2015-10-11T16:31:39Z</time>
      </trkpt>
      <trkpt lat="45.79337" lon="5.75499">
        <ele>234.4623020753</ele>
        <time>2015-10-11T16:31:44Z</time>
      </trkpt>
      <trkpt lat="45.79337" lon="5.75498">
        <ele>234.4623020753</ele>
        <time>2015-10-11T16:31:54Z</time>
      </trkpt>
      <trkpt lat="45.79336" lon="5.75495">
        <ele>234.4623020753</ele>
        <time>2015-10-11T16:31:59Z</time>
      </trkpt>
      <trkpt lat="45.79336" lon="5.75495">
        <ele>234.4623020753</ele>
        <time>2015-10-11T16:32:09Z</time>
      </trkpt>
      <trkpt lat="45.79337" lon="5.75495">
        <ele>234.4623020753</ele>
        <time>2015-10-11T16:32:14Z</time>
      </trkpt>
      <trkpt lat="45.79337" lon="5.75494">
        <ele>234.4623020753</ele>
        <time>2015-10-11T16:32:24Z</time>
      </trkpt>
      <trkpt lat="45.79337" lon="5.75494">
        <ele>234.4623020753</ele>
        <time>2015-10-11T16:32:29Z</time>
      </trkpt>
      <trkpt lat="45.79335" lon="5.75494">
        <ele>234.4623020753</ele>
        <time>2015-10-11T16:32:39Z</time>
      </trkpt>
      <trkpt lat="45.79335" lon="5.75494">
        <ele>234.4623020753</ele>
        <time>2015-10-11T16:32:44Z</time>
      </trkpt>
      <trkpt lat="45.79335" lon="5.75494">
        <ele>234.4623020753</ele>
        <time>2015-10-11T16:32:54Z</time>
      </trkpt>
      <trkpt lat="45.79335" lon="5.75494">
        <ele>234.4623020753</ele>
        <time>2015-10-11T16:32:59Z</time>
      </trkpt>
      <trkpt lat="45.79367" lon="5.7545">
        <ele>234.67806115153</ele>
        <time>2015-10-11T16:33:14Z</time>
      </trkpt>
      <trkpt lat="45.79386" lon="5.75418">
        <ele>235.39924133097</ele>
        <time>2015-10-11T16:33:19Z</time>
      </trkpt>
      <trkpt lat="45.79414" lon="5.7537">
        <ele>236.06807310234</ele>
        <time>2015-10-11T16:33:29Z</time>
      </trkpt>
      <trkpt lat="45.79398" lon="5.75354">
        <ele>236.87408054269</ele>
        <time>2015-10-11T16:33:34Z</time>
      </trkpt>
      <trkpt lat="45.79365" lon="5.75322">
        <ele>237.92045678963</ele>
        <time>2015-10-11T16:33:44Z</time>
      </trkpt>
      <trkpt lat="45.79368" lon="5.75312">
        <ele>237.92045678963</ele>
        <time>2015-10-11T16:33:49Z</time>
      </trkpt>
      <trkpt lat="45.79378" lon="5.75296">
        <ele>238.81219775981</ele>
        <time>2015-10-11T16:33:59Z</time>
      </trkpt>
      <trkpt lat="45.79382" lon="5.75289">
        <ele>238.81219775981</ele>
        <time>2015-10-11T16:34:04Z</time>
      </trkpt>
      <trkpt lat="45.79389" lon="5.75271">
        <ele>239.96199010381</ele>
        <time>2015-10-11T16:34:14Z</time>
      </trkpt>
      <trkpt lat="45.79385" lon="5.75262">
        <ele>239.96199010381</ele>
        <time>2015-10-11T16:34:19Z</time>
      </trkpt>
      <trkpt lat="45.79372" lon="5.75243">
        <ele>241.59300382199</ele>
        <time>2015-10-11T16:34:29Z</time>
      </trkpt>
      <trkpt lat="45.79368" lon="5.75236">
        <ele>241.59300382199</ele>
        <time>2015-10-11T16:34:34Z</time>
      </trkpt>
      <trkpt lat="45.7936" lon="5.75226">
        <ele>243.50720553682</ele>
        <time>2015-10-11T16:34:44Z</time>
      </trkpt>
      <trkpt lat="45.79355" lon="5.75219">
        <ele>243.50720553682</ele>
        <time>2015-10-11T16:34:49Z</time>
      </trkpt>
      <trkpt lat="45.79343" lon="5.75204">
        <ele>245.0880401255</ele>
        <time>2015-10-11T16:34:59Z</time>
      </trkpt>
      <trkpt lat="45.79339" lon="5.75198">
        <ele>245.0880401255</ele>
        <time>2015-10-11T16:35:04Z</time>
      </trkpt>
      <trkpt lat="45.79329" lon="5.75186">
        <ele>246.48580142107</ele>
        <time>2015-10-11T16:35:14Z</time>
      </trkpt>
      <trkpt lat="45.79324" lon="5.75182">
        <ele>246.48580142107</ele>
        <time>2015-10-11T16:35:19Z</time>
      </trkpt>
      <trkpt lat="45.79315" lon="5.75162">
        <ele>248.28707471746</ele>
        <time>2015-10-11T16:35:34Z</time>
      </trkpt>
      <trkpt lat="45.79312" lon="5.75155">
        <ele>248.28707471746</ele>
        <time>2015-10-11T16:35:39Z</time>
      </trkpt>
      <trkpt lat="45.7931" lon="5.75152">
        <ele>248.28707471746</ele>
        <time>2015-10-11T16:35:49Z</time>
      </trkpt>
      <trkpt lat="45.79309" lon="5.75149">
        <ele>250.63079326569</ele>
        <time>2015-10-11T16:35:54Z</time>
      </trkpt>
      <trkpt lat="45.79303" lon="5.75129">
        <ele>253.52896362711</ele>
        <time>2015-10-11T16:36:04Z</time>
      </trkpt>
      <trkpt lat="45.793" lon="5.75118">
        <ele>253.52896362711</ele>
        <time>2015-10-11T16:36:09Z</time>
      </trkpt>
      <trkpt lat="45.79295" lon="5.75099">
        <ele>256.60215504665</ele>
        <time>2015-10-11T16:36:19Z</time>
      </trkpt>
      <trkpt lat="45.79291" lon="5.75091">
        <ele>256.60215504665</ele>
        <time>2015-10-11T16:36:24Z</time>
      </trkpt>
      <trkpt lat="45.79283" lon="5.75081">
        <ele>259.97399836837</ele>
        <time>2015-10-11T16:36:34Z</time>
      </trkpt>
      <trkpt lat="45.79277" lon="5.75076">
        <ele>259.97399836837</ele>
        <time>2015-10-11T16:36:39Z</time>
      </trkpt>
      <trkpt lat="45.79268" lon="5.75067">
        <ele>263.38364282354</ele>
        <time>2015-10-11T16:36:49Z</time>
      </trkpt>
      <trkpt lat="45.79263" lon="5.7506">
        <ele>263.38364282354</ele>
        <time>2015-10-11T16:36:54Z</time>
      </trkpt>
      <trkpt lat="45.7926" lon="5.75054">
        <ele>266.51737896543</ele>
        <time>2015-10-11T16:37:04Z</time>
      </trkpt>
      <trkpt lat="45.7926" lon="5.75053">
        <ele>266.51737896543</ele>
        <time>2015-10-11T16:37:09Z</time>
      </trkpt>
      <trkpt lat="45.79253" lon="5.75041">
        <ele>269.46015894882</ele>
        <time>2015-10-11T16:37:19Z</time>
      </trkpt>
      <trkpt lat="45.79247" lon="5.7503">
        <ele>272.39227240847</ele>
        <time>2015-10-11T16:37:24Z</time>
      </trkpt>
      <trkpt lat="45.79234" lon="5.75001">
        <ele>275.65390204048</ele>
        <time>2015-10-11T16:37:39Z</time>
      </trkpt>
      <trkpt lat="45.79229" lon="5.74997">
        <ele>275.65390204048</ele>
        <time>2015-10-11T16:37:44Z</time>
      </trkpt>
      <trkpt lat="45.79216" lon="5.74977">
        <ele>279.09834246088</ele>
        <time>2015-10-11T16:37:54Z</time>
      </trkpt>
      <trkpt lat="45.79213" lon="5.74963">
        <ele>282.58934152401</ele>
        <time>2015-10-11T16:37:59Z</time>
      </trkpt>
      <trkpt lat="45.79214" lon="5.74952">
        <ele>282.58934152401</ele>
        <time>2015-10-11T16:38:09Z</time>
      </trkpt>
      <trkpt lat="45.79214" lon="5.74949">
        <ele>286.46187851386</ele>
        <time>2015-10-11T16:38:14Z</time>
      </trkpt>
      <trkpt lat="45.79214" lon="5.74933">
        <ele>289.41141396513</ele>
        <time>2015-10-11T16:38:24Z</time>
      </trkpt>
      <trkpt lat="45.79216" lon="5.74924">
        <ele>289.41141396513</ele>
        <time>2015-10-11T16:38:29Z</time>
      </trkpt>
      <trkpt lat="45.79218" lon="5.74908">
        <ele>291.50021467492</ele>
        <time>2015-10-11T16:38:39Z</time>
      </trkpt>
      <trkpt lat="45.79219" lon="5.749">
        <ele>291.50021467492</ele>
        <time>2015-10-11T16:38:44Z</time>
      </trkpt>
      <trkpt lat="45.79228" lon="5.74891">
        <ele>293.26416307794</ele>
        <time>2015-10-11T16:38:54Z</time>
      </trkpt>
      <trkpt lat="45.79234" lon="5.74888">
        <ele>293.26416307794</ele>
        <time>2015-10-11T16:38:59Z</time>
      </trkpt>
      <trkpt lat="45.79245" lon="5.74884">
        <ele>294.69650197762</ele>
        <time>2015-10-11T16:39:09Z</time>
      </trkpt>
      <trkpt lat="45.79251" lon="5.74881">
        <ele>294.69650197762</ele>
        <time>2015-10-11T16:39:14Z</time>
      </trkpt>
      <trkpt lat="45.79261" lon="5.74869">
        <ele>296.31089623116</ele>
        <time>2015-10-11T16:39:24Z</time>
      </trkpt>
      <trkpt lat="45.79267" lon="5.74862">
        <ele>296.31089623116</ele>
        <time>2015-10-11T16:39:29Z</time>
      </trkpt>
      <trkpt lat="45.79276" lon="5.74848">
        <ele>298.17944011051</ele>
        <time>2015-10-11T16:39:39Z</time>
      </trkpt>
      <trkpt lat="45.79279" lon="5.74847">
        <ele>298.17944011051</ele>
        <time>2015-10-11T16:39:44Z</time>
      </trkpt>
      <trkpt lat="45.79282" lon="5.74846">
        <ele>298.17944011051</ele>
        <time>2015-10-11T16:39:54Z</time>
      </trkpt>
      <trkpt lat="45.79286" lon="5.74846">
        <ele>299.6622479967</ele>
        <time>2015-10-11T16:39:59Z</time>
      </trkpt>
      <trkpt lat="45.79289" lon="5.74845">
        <ele>299.6622479967</ele>
        <time>2015-10-11T16:40:14Z</time>
      </trkpt>
      <trkpt lat="45.79284" lon="5.74845">
        <ele>299.6622479967</ele>
        <time>2015-10-11T16:40:19Z</time>
      </trkpt>
      <trkpt lat="45.79269" lon="5.74841">
        <ele>300.9602959969</ele>
        <time>2015-10-11T16:40:29Z</time>
      </trkpt>
      <trkpt lat="45.79264" lon="5.74836">
        <ele>300.9602959969</ele>
        <time>2015-10-11T16:40:34Z</time>
      </trkpt>
      <trkpt lat="45.79258" lon="5.74837">
        <ele>302.31811096189</ele>
        <time>2015-10-11T16:40:44Z</time>
      </trkpt>
      <trkpt lat="45.79253" lon="5.74842">
        <ele>302.31811096189</ele>
        <time>2015-10-11T16:40:49Z</time>
      </trkpt>
      <trkpt lat="45.79242" lon="5.74853">
        <ele>302.96786118825</ele>
        <time>2015-10-11T16:40:59Z</time>
      </trkpt>
      <trkpt lat="45.79235" lon="5.74848">
        <ele>302.96786118825</ele>
        <time>2015-10-11T16:41:04Z</time>
      </trkpt>
      <trkpt lat="45.79233" lon="5.74833">
        <ele>304.36189973841</ele>
        <time>2015-10-11T16:41:14Z</time>
      </trkpt>
      <trkpt lat="45.79237" lon="5.74825">
        <ele>304.36189973841</ele>
        <time>2015-10-11T16:41:19Z</time>
      </trkpt>
      <trkpt lat="45.79244" lon="5.74812">
        <ele>305.24991481362</ele>
        <time>2015-10-11T16:41:29Z</time>
      </trkpt>
      <trkpt lat="45.79248" lon="5.74806">
        <ele>305.24991481362</ele>
        <time>2015-10-11T16:41:34Z</time>
      </trkpt>
      <trkpt lat="45.79257" lon="5.74782">
        <ele>306.08900621118</ele>
        <time>2015-10-11T16:41:49Z</time>
      </trkpt>
      <trkpt lat="45.79261" lon="5.74776">
        <ele>306.08900621118</ele>
        <time>2015-10-11T16:41:54Z</time>
      </trkpt>
      <trkpt lat="45.79267" lon="5.74761">
        <ele>306.19326210261</ele>
        <time>2015-10-11T16:42:04Z</time>
      </trkpt>
      <trkpt lat="45.7927" lon="5.74753">
        <ele>306.19326210261</ele>
        <time>2015-10-11T16:42:09Z</time>
      </trkpt>
      <trkpt lat="45.79276" lon="5.74734">
        <ele>307.22065864988</ele>
        <time>2015-10-11T16:42:19Z</time>
      </trkpt>
      <trkpt lat="45.79278" lon="5.74724">
        <ele>307.22065864988</ele>
        <time>2015-10-11T16:42:24Z</time>
      </trkpt>
      <trkpt lat="45.79287" lon="5.74692">
        <ele>307.82262330008</ele>
        <time>2015-10-11T16:42:34Z</time>
      </trkpt>
      <trkpt lat="45.79292" lon="5.74679">
        <ele>308.42257670184</ele>
        <time>2015-10-11T16:42:39Z</time>
      </trkpt>
      <trkpt lat="45.79301" lon="5.74661">
        <ele>309.22552907061</ele>
        <time>2015-10-11T16:42:49Z</time>
      </trkpt>
      <trkpt lat="45.79304" lon="5.74651">
        <ele>309.22552907061</ele>
        <time>2015-10-11T16:42:54Z</time>
      </trkpt>
      <trkpt lat="45.79309" lon="5.74633">
        <ele>309.87326050701</ele>
        <time>2015-10-11T16:43:04Z</time>
      </trkpt>
      <trkpt lat="45.79309" lon="5.74623">
        <ele>309.87326050701</ele>
        <time>2015-10-11T16:43:09Z</time>
      </trkpt>
      <trkpt lat="45.79306" lon="5.74605">
        <ele>310.40900117716</ele>
        <time>2015-10-11T16:43:19Z</time>
      </trkpt>
      <trkpt lat="45.79302" lon="5.74596">
        <ele>310.40900117716</ele>
        <time>2015-10-11T16:43:24Z</time>
      </trkpt>
      <trkpt lat="45.79291" lon="5.7458">
        <ele>310.64254229664</ele>
        <time>2015-10-11T16:43:34Z</time>
      </trkpt>
      <trkpt lat="45.79285" lon="5.74574">
        <ele>310.64254229664</ele>
        <time>2015-10-11T16:43:39Z</time>
      </trkpt>
      <trkpt lat="45.79275" lon="5.74561">
        <ele>310.75876316589</ele>
        <time>2015-10-11T16:43:49Z</time>
      </trkpt>
      <trkpt lat="45.7927" lon="5.74555">
        <ele>310.75876316589</ele>
        <time>2015-10-11T16:43:54Z</time>
      </trkpt>
      <trkpt lat="45.79262" lon="5.7454">
        <ele>310.91485881631</ele>
        <time>2015-10-11T16:44:04Z</time>
      </trkpt>
      <trkpt lat="45.7926" lon="5.74531">
        <ele>310.91485881631</ele>
        <time>2015-10-11T16:44:09Z</time>
      </trkpt>
      <trkpt lat="45.79257" lon="5.74505">
        <ele>311.29956659141</ele>
        <time>2015-10-11T16:44:24Z</time>
      </trkpt>
      <trkpt lat="45.79258" lon="5.74495">
        <ele>311.29956659141</ele>
        <time>2015-10-11T16:44:29Z</time>
      </trkpt>
      <trkpt lat="45.79256" lon="5.74474">
        <ele>311.56827592172</ele>
        <time>2015-10-11T16:44:39Z</time>
      </trkpt>
      <trkpt lat="45.79255" lon="5.74462">
        <ele>311.56827592172</ele>
        <time>2015-10-11T16:44:44Z</time>
      </trkpt>
      <trkpt lat="45.79254" lon="5.74439">
        <ele>311.87753260483</ele>
        <time>2015-10-11T16:44:54Z</time>
      </trkpt>
      <trkpt lat="45.79253" lon="5.74428">
        <ele>311.87753260483</ele>
        <time>2015-10-11T16:44:59Z</time>
      </trkpt>
      <trkpt lat="45.79252" lon="5.74407">
        <ele>311.72370932479</ele>
        <time>2015-10-11T16:45:09Z</time>
      </trkpt>
      <trkpt lat="45.79251" lon="5.74397">
        <ele>311.72370932479</ele>
        <time>2015-10-11T16:45:14Z</time>
      </trkpt>
      <trkpt lat="45.79248" lon="5.74377">
        <ele>311.28990621822</ele>
        <time>2015-10-11T16:45:24Z</time>
      </trkpt>
      <trkpt lat="45.79245" lon="5.74368">
        <ele>311.28990621822</ele>
        <time>2015-10-11T16:45:29Z</time>
      </trkpt>
      <trkpt lat="45.79237" lon="5.7435">
        <ele>310.18444644149</ele>
        <time>2015-10-11T16:45:44Z</time>
      </trkpt>
      <trkpt lat="45.79238" lon="5.74351">
        <ele>310.18444644149</ele>
        <time>2015-10-11T16:45:49Z</time>
      </trkpt>
      <trkpt lat="45.79236" lon="5.74347">
        <ele>310.18444644149</ele>
        <time>2015-10-11T16:45:59Z</time>
      </trkpt>
      <trkpt lat="45.79234" lon="5.74346">
        <ele>310.18444644149</ele>
        <time>2015-10-11T16:46:04Z</time>
      </trkpt>
      <trkpt lat="45.79231" lon="5.74343">
        <ele>309.37204280487</ele>
        <time>2015-10-11T16:46:14Z</time>
      </trkpt>
      <trkpt lat="45.7923" lon="5.74342">
        <ele>309.37204280487</ele>
        <time>2015-10-11T16:46:19Z</time>
      </trkpt>
      <trkpt lat="45.7923" lon="5.74342">
        <ele>309.37204280487</ele>
        <time>2015-10-11T16:46:29Z</time>
      </trkpt>
      <trkpt lat="45.7923" lon="5.74342">
        <ele>309.37204280487</ele>
        <time>2015-10-11T16:46:34Z</time>
      </trkpt>
      <trkpt lat="45.79231" lon="5.74341">
        <ele>309.37204280487</ele>
        <time>2015-10-11T16:46:44Z</time>
      </trkpt>
      <trkpt lat="45.79232" lon="5.7434">
        <ele>309.37204280487</ele>
        <time>2015-10-11T16:46:49Z</time>
      </trkpt>
      <trkpt lat="45.79232" lon="5.74334">
        <ele>309.37204280487</ele>
        <time>2015-10-11T16:46:59Z</time>
      </trkpt>
      <trkpt lat="45.7923" lon="5.74325">
        <ele>308.03069310278</ele>
        <time>2015-10-11T16:47:04Z</time>
      </trkpt>
      <trkpt lat="45.79227" lon="5.74312">
        <ele>307.27359249231</ele>
        <time>2015-10-11T16:47:14Z</time>
      </trkpt>
      <trkpt lat="45.79225" lon="5.74298">
        <ele>306.58840569191</ele>
        <time>2015-10-11T16:47:19Z</time>
      </trkpt>
      <trkpt lat="45.79222" lon="5.74275">
        <ele>305.71626072742</ele>
        <time>2015-10-11T16:47:29Z</time>
      </trkpt>
      <trkpt lat="45.79222" lon="5.74264">
        <ele>305.71626072742</ele>
        <time>2015-10-11T16:47:34Z</time>
      </trkpt>
      <trkpt lat="45.79223" lon="5.74234">
        <ele>304.85001393225</ele>
        <time>2015-10-11T16:47:49Z</time>
      </trkpt>
      <trkpt lat="45.79223" lon="5.74225">
        <ele>304.85001393225</ele>
        <time>2015-10-11T16:47:54Z</time>
      </trkpt>
      <trkpt lat="45.79226" lon="5.74207">
        <ele>304.05289588973</ele>
        <time>2015-10-11T16:48:04Z</time>
      </trkpt>
      <trkpt lat="45.7923" lon="5.742">
        <ele>304.05289588973</ele>
        <time>2015-10-11T16:48:09Z</time>
      </trkpt>
      <trkpt lat="45.79233" lon="5.74182">
        <ele>303.8010624584</ele>
        <time>2015-10-11T16:48:19Z</time>
      </trkpt>
      <trkpt lat="45.79235" lon="5.74175">
        <ele>303.8010624584</ele>
        <time>2015-10-11T16:48:24Z</time>
      </trkpt>
      <trkpt lat="45.7924" lon="5.74162">
        <ele>302.6029084679</ele>
        <time>2015-10-11T16:48:34Z</time>
      </trkpt>
      <trkpt lat="45.79243" lon="5.74157">
        <ele>302.6029084679</ele>
        <time>2015-10-11T16:48:39Z</time>
      </trkpt>
      <trkpt lat="45.7924" lon="5.74148">
        <ele>302.00434564541</ele>
        <time>2015-10-11T16:48:49Z</time>
      </trkpt>
      <trkpt lat="45.79238" lon="5.74145">
        <ele>302.00434564541</ele>
        <time>2015-10-11T16:48:54Z</time>
      </trkpt>
      <trkpt lat="45.79234" lon="5.74133">
        <ele>301.57683869367</ele>
        <time>2015-10-11T16:49:04Z</time>
      </trkpt>
      <trkpt lat="45.79232" lon="5.74128">
        <ele>301.57683869367</ele>
        <time>2015-10-11T16:49:09Z</time>
      </trkpt>
      <trkpt lat="45.79232" lon="5.74119">
        <ele>300.82180358973</ele>
        <time>2015-10-11T16:49:19Z</time>
      </trkpt>
      <trkpt lat="45.79232" lon="5.74106">
        <ele>299.79682820506</ele>
        <time>2015-10-11T16:49:24Z</time>
      </trkpt>
      <trkpt lat="45.79236" lon="5.74087">
        <ele>297.86411828833</ele>
        <time>2015-10-11T16:49:34Z</time>
      </trkpt>
      <trkpt lat="45.79238" lon="5.74075">
        <ele>297.86411828833</ele>
        <time>2015-10-11T16:49:39Z</time>
      </trkpt>
      <trkpt lat="45.79244" lon="5.74054">
        <ele>296.45265579384</ele>
        <time>2015-10-11T16:49:49Z</time>
      </trkpt>
      <trkpt lat="45.79249" lon="5.74044">
        <ele>296.45265579384</ele>
        <time>2015-10-11T16:49:54Z</time>
      </trkpt>
      <trkpt lat="45.79257" lon="5.74027">
        <ele>296.19307353852</ele>
        <time>2015-10-11T16:50:04Z</time>
      </trkpt>
      <trkpt lat="45.79262" lon="5.74021">
        <ele>296.19307353852</ele>
        <time>2015-10-11T16:50:09Z</time>
      </trkpt>
      <trkpt lat="45.79274" lon="5.74005">
        <ele>296.06663088272</ele>
        <time>2015-10-11T16:50:24Z</time>
      </trkpt>
      <trkpt lat="45.79277" lon="5.73999">
        <ele>296.06663088272</ele>
        <time>2015-10-11T16:50:29Z</time>
      </trkpt>
      <trkpt lat="45.79284" lon="5.73989">
        <ele>295.84942509939</ele>
        <time>2015-10-11T16:50:39Z</time>
      </trkpt>
      <trkpt lat="45.79286" lon="5.73982">
        <ele>295.84942509939</ele>
        <time>2015-10-11T16:50:44Z</time>
      </trkpt>
      <trkpt lat="45.79296" lon="5.73968">
        <ele>295.78082549102</ele>
        <time>2015-10-11T16:50:54Z</time>
      </trkpt>
      <trkpt lat="45.79301" lon="5.73963">
        <ele>295.78082549102</ele>
        <time>2015-10-11T16:50:59Z</time>
      </trkpt>
      <trkpt lat="45.79309" lon="5.73952">
        <ele>295.40471005893</ele>
        <time>2015-10-11T16:51:09Z</time>
      </trkpt>
      <trkpt lat="45.79313" lon="5.73943">
        <ele>295.40471005893</ele>
        <time>2015-10-11T16:51:14Z</time>
      </trkpt>
      <trkpt lat="45.79325" lon="5.73928">
        <ele>295.94203364261</ele>
        <time>2015-10-11T16:51:24Z</time>
      </trkpt>
      <trkpt lat="45.79328" lon="5.73922">
        <ele>295.94203364261</ele>
        <time>2015-10-11T16:51:29Z</time>
      </trkpt>
      <trkpt lat="45.79333" lon="5.73906">
        <ele>296.64790255884</ele>
        <time>2015-10-11T16:51:39Z</time>
      </trkpt>
      <trkpt lat="45.79337" lon="5.73897">
        <ele>296.64790255884</ele>
        <time>2015-10-11T16:51:44Z</time>
      </trkpt>
      <trkpt lat="45.7935" lon="5.73873">
        <ele>297.09092989001</ele>
        <time>2015-10-11T16:51:59Z</time>
      </trkpt>
      <trkpt lat="45.79355" lon="5.73866">
        <ele>297.09092989001</ele>
        <time>2015-10-11T16:52:04Z</time>
      </trkpt>
      <trkpt lat="45.79363" lon="5.73851">
        <ele>297.65022736643</ele>
        <time>2015-10-11T16:52:14Z</time>
      </trkpt>
      <trkpt lat="45.7937" lon="5.73845">
        <ele>297.65022736643</ele>
        <time>2015-10-11T16:52:19Z</time>
      </trkpt>
      <trkpt lat="45.79379" lon="5.73843">
        <ele>298.11458131713</ele>
        <time>2015-10-11T16:52:29Z</time>
      </trkpt>
      <trkpt lat="45.79379" lon="5.73843">
        <ele>298.11458131713</ele>
        <time>2015-10-11T16:52:34Z</time>
      </trkpt>
      <trkpt lat="45.79381" lon="5.73844">
        <ele>298.11458131713</ele>
        <time>2015-10-11T16:52:44Z</time>
      </trkpt>
      <trkpt lat="45.79381" lon="5.73844">
        <ele>298.11458131713</ele>
        <time>2015-10-11T16:52:49Z</time>
      </trkpt>
      <trkpt lat="45.79384" lon="5.73843">
        <ele>298.11458131713</ele>
        <time>2015-10-11T16:52:59Z</time>
      </trkpt>
      <trkpt lat="45.79385" lon="5.73842">
        <ele>298.11458131713</ele>
        <time>2015-10-11T16:53:04Z</time>
      </trkpt>
      <trkpt lat="45.79387" lon="5.73842">
        <ele>298.11458131713</ele>
        <time>2015-10-11T16:53:14Z</time>
      </trkpt>
      <trkpt lat="45.79387" lon="5.73842">
        <ele>298.11458131713</ele>
        <time>2015-10-11T16:53:19Z</time>
      </trkpt>
      <trkpt lat="45.79387" lon="5.73842">
        <ele>299.57104612188</ele>
        <time>2015-10-11T16:53:34Z</time>
      </trkpt>
      <trkpt lat="45.79388" lon="5.73842">
        <ele>299.57104612188</ele>
        <time>2015-10-11T16:53:39Z</time>
      </trkpt>
      <trkpt lat="45.79388" lon="5.7384">
        <ele>299.57104612188</ele>
        <time>2015-10-11T16:53:49Z</time>
      </trkpt>
      <trkpt lat="45.7939" lon="5.7384">
        <ele>299.57104612188</ele>
        <time>2015-10-11T16:53:54Z</time>
      </trkpt>
      <trkpt lat="45.79391" lon="5.73841">
        <ele>299.57104612188</ele>
        <time>2015-10-11T16:54:04Z</time>
      </trkpt>
      <trkpt lat="45.79391" lon="5.73841">
        <ele>299.57104612188</ele>
        <time>2015-10-11T16:54:09Z</time>
      </trkpt>
      <trkpt lat="45.79392" lon="5.73842">
        <ele>299.57104612188</ele>
        <time>2015-10-11T16:54:19Z</time>
      </trkpt>
      <trkpt lat="45.79392" lon="5.73842">
        <ele>299.57104612188</ele>
        <time>2015-10-11T16:54:24Z</time>
      </trkpt>
      <trkpt lat="45.79392" lon="5.73841">
        <ele>299.57104612188</ele>
        <time>2015-10-11T16:54:34Z</time>
      </trkpt>
      <trkpt lat="45.79393" lon="5.7384">
        <ele>299.57104612188</ele>
        <time>2015-10-11T16:54:39Z</time>
      </trkpt>
      <trkpt lat="45.79391" lon="5.73838">
        <ele>302.24575050743</ele>
        <time>2015-10-11T16:54:49Z</time>
      </trkpt>
      <trkpt lat="45.79391" lon="5.73838">
        <ele>302.24575050743</ele>
        <time>2015-10-11T16:54:54Z</time>
      </trkpt>
      <trkpt lat="45.79391" lon="5.73838">
        <ele>302.24575050743</ele>
        <time>2015-10-11T16:55:04Z</time>
      </trkpt>
      <trkpt lat="45.79391" lon="5.73838">
        <ele>302.24575050743</ele>
        <time>2015-10-11T16:55:09Z</time>
      </trkpt>
      <trkpt lat="45.79391" lon="5.73838">
        <ele>302.24575050743</ele>
        <time>2015-10-11T16:55:24Z</time>
      </trkpt>
      <trkpt lat="45.79392" lon="5.73836">
        <ele>302.24575050743</ele>
        <time>2015-10-11T16:55:29Z</time>
      </trkpt>
      <trkpt lat="45.79393" lon="5.73834">
        <ele>302.24575050743</ele>
        <time>2015-10-11T16:55:39Z</time>
      </trkpt>
      <trkpt lat="45.79392" lon="5.73834">
        <ele>302.24575050743</ele>
        <time>2015-10-11T16:55:44Z</time>
      </trkpt>
      <trkpt lat="45.79393" lon="5.73835">
        <ele>302.24575050743</ele>
        <time>2015-10-11T16:55:54Z</time>
      </trkpt>
      <trkpt lat="45.7939" lon="5.73835">
        <ele>302.24575050743</ele>
        <time>2015-10-11T16:55:59Z</time>
      </trkpt>
      <trkpt lat="45.79389" lon="5.73834">
        <ele>302.24575050743</ele>
        <time>2015-10-11T16:56:09Z</time>
      </trkpt>
      <trkpt lat="45.79389" lon="5.73834">
        <ele>302.24575050743</ele>
        <time>2015-10-11T16:56:14Z</time>
      </trkpt>
      <trkpt lat="45.7939" lon="5.73834">
        <ele>302.24575050743</ele>
        <time>2015-10-11T16:56:24Z</time>
      </trkpt>
      <trkpt lat="45.7939" lon="5.73833">
        <ele>304.68744598302</ele>
        <time>2015-10-11T16:56:29Z</time>
      </trkpt>
      <trkpt lat="45.79395" lon="5.73824">
        <ele>304.68744598302</ele>
        <time>2015-10-11T16:56:39Z</time>
      </trkpt>
      <trkpt lat="45.79396" lon="5.73817">
        <ele>306.15736150173</ele>
        <time>2015-10-11T16:56:44Z</time>
      </trkpt>
      <trkpt lat="45.794" lon="5.73804">
        <ele>307.68861356506</ele>
        <time>2015-10-11T16:56:54Z</time>
      </trkpt>
      <trkpt lat="45.79404" lon="5.73799">
        <ele>307.68861356506</ele>
        <time>2015-10-11T16:56:59Z</time>
      </trkpt>
      <trkpt lat="45.79408" lon="5.73787">
        <ele>308.9988845929</ele>
        <time>2015-10-11T16:57:09Z</time>
      </trkpt>
      <trkpt lat="45.79411" lon="5.7378">
        <ele>308.9988845929</ele>
        <time>2015-10-11T16:57:14Z</time>
      </trkpt>
      <trkpt lat="45.79417" lon="5.73767">
        <ele>310.00014841314</ele>
        <time>2015-10-11T16:57:24Z</time>
      </trkpt>
      <trkpt lat="45.79419" lon="5.73757">
        <ele>310.00014841314</ele>
        <time>2015-10-11T16:57:29Z</time>
      </trkpt>
      <trkpt lat="45.79424" lon="5.73739">
        <ele>311.21698854172</ele>
        <time>2015-10-11T16:57:39Z</time>
      </trkpt>
      <trkpt lat="45.79428" lon="5.73731">
        <ele>311.21698854172</ele>
        <time>2015-10-11T16:57:44Z</time>
      </trkpt>
      <trkpt lat="45.79434" lon="5.73706">
        <ele>312.50077755811</ele>
        <time>2015-10-11T16:57:59Z</time>
      </trkpt>
      <trkpt lat="45.79437" lon="5.73698">
        <ele>312.50077755811</ele>
        <time>2015-10-11T16:58:04Z</time>
      </trkpt>
      <trkpt lat="45.79444" lon="5.73687">
        <ele>313.07955434661</ele>
        <time>2015-10-11T16:58:14Z</time>
      </trkpt>
      <trkpt lat="45.79447" lon="5.73684">
        <ele>313.07955434661</ele>
        <time>2015-10-11T16:58:19Z</time>
      </trkpt>
      <trkpt lat="45.79451" lon="5.73678">
        <ele>313.73883004528</ele>
        <time>2015-10-11T16:58:29Z</time>
      </trkpt>
      <trkpt lat="45.79453" lon="5.73676">
        <ele>313.73883004528</ele>
        <time>2015-10-11T16:58:34Z</time>
      </trkpt>
      <trkpt lat="45.7946" lon="5.73663">
        <ele>313.73628623868</ele>
        <time>2015-10-11T16:58:44Z</time>
      </trkpt>
      <trkpt lat="45.79464" lon="5.73655">
        <ele>313.73628623868</ele>
        <time>2015-10-11T16:58:49Z</time>
      </trkpt>
      <trkpt lat="45.79469" lon="5.7364">
        <ele>313.23628021452</ele>
        <time>2015-10-11T16:58:59Z</time>
      </trkpt>
      <trkpt lat="45.79472" lon="5.7363">
        <ele>313.23628021452</ele>
        <time>2015-10-11T16:59:04Z</time>
      </trkpt>
      <trkpt lat="45.79474" lon="5.73609">
        <ele>313.2571887491</ele>
        <time>2015-10-11T16:59:14Z</time>
      </trkpt>
      <trkpt lat="45.79479" lon="5.73593">
        <ele>313.93412325909</ele>
        <time>2015-10-11T16:59:19Z</time>
      </trkpt>
      <trkpt lat="45.79485" lon="5.73569">
        <ele>315.46251200718</ele>
        <time>2015-10-11T16:59:29Z</time>
      </trkpt>
      <trkpt lat="45.79491" lon="5.73555">
        <ele>317.05552255732</ele>
        <time>2015-10-11T16:59:34Z</time>
      </trkpt>
      <trkpt lat="45.79503" lon="5.73533">
        <ele>319.10804362651</ele>
        <time>2015-10-11T16:59:44Z</time>
      </trkpt>
      <trkpt lat="45.79507" lon="5.73525">
        <ele>319.10804362651</ele>
        <time>2015-10-11T16:59:49Z</time>
      </trkpt>
      <trkpt lat="45.79522" lon="5.73503">
        <ele>321.58120022493</ele>
        <time>2015-10-11T17:00:04Z</time>
      </trkpt>
      <trkpt lat="45.79526" lon="5.73496">
        <ele>321.58120022493</ele>
        <time>2015-10-11T17:00:09Z</time>
      </trkpt>
      <trkpt lat="45.79532" lon="5.73485">
        <ele>323.86140473913</ele>
        <time>2015-10-11T17:00:19Z</time>
      </trkpt>
      <trkpt lat="45.79535" lon="5.73477">
        <ele>323.86140473913</ele>
        <time>2015-10-11T17:00:24Z</time>
      </trkpt>
      <trkpt lat="45.79543" lon="5.7347">
        <ele>324.29991596352</ele>
        <time>2015-10-11T17:00:34Z</time>
      </trkpt>
      <trkpt lat="45.79546" lon="5.73459">
        <ele>324.29991596352</ele>
        <time>2015-10-11T17:00:39Z</time>
      </trkpt>
      <trkpt lat="45.79552" lon="5.73441">
        <ele>323.0027994908</ele>
        <time>2015-10-11T17:00:49Z</time>
      </trkpt>
      <trkpt lat="45.79557" lon="5.73435">
        <ele>323.0027994908</ele>
        <time>2015-10-11T17:00:54Z</time>
      </trkpt>
      <trkpt lat="45.79567" lon="5.73406">
        <ele>321.38467504316</ele>
        <time>2015-10-11T17:01:04Z</time>
      </trkpt>
      <trkpt lat="45.7957" lon="5.7339">
        <ele>320.46897835497</ele>
        <time>2015-10-11T17:01:09Z</time>
      </trkpt>
      <trkpt lat="45.79581" lon="5.73373">
        <ele>320.23648978486</ele>
        <time>2015-10-11T17:01:19Z</time>
      </trkpt>
      <trkpt lat="45.79586" lon="5.73366">
        <ele>320.23648978486</ele>
        <time>2015-10-11T17:01:24Z</time>
      </trkpt>
      <trkpt lat="45.79598" lon="5.73341">
        <ele>320.66751334938</ele>
        <time>2015-10-11T17:01:34Z</time>
      </trkpt>
      <trkpt lat="45.796" lon="5.73332">
        <ele>320.66751334938</ele>
        <time>2015-10-11T17:01:39Z</time>
      </trkpt>
      <trkpt lat="45.79603" lon="5.7332">
        <ele>322.23193848581</ele>
        <time>2015-10-11T17:01:49Z</time>
      </trkpt>
      <trkpt lat="45.79604" lon="5.73317">
        <ele>322.23193848581</ele>
        <time>2015-10-11T17:01:54Z</time>
      </trkpt>
      <trkpt lat="45.79606" lon="5.7331">
        <ele>322.23193848581</ele>
        <time>2015-10-11T17:02:04Z</time>
      </trkpt>
      <trkpt lat="45.79611" lon="5.73302">
        <ele>324.39643465685</ele>
        <time>2015-10-11T17:02:09Z</time>
      </trkpt>
      <trkpt lat="45.79616" lon="5.73285">
        <ele>325.41142464362</ele>
        <time>2015-10-11T17:02:19Z</time>
      </trkpt>
      <trkpt lat="45.79618" lon="5.73278">
        <ele>325.41142464362</ele>
        <time>2015-10-11T17:02:24Z</time>
      </trkpt>
      <trkpt lat="45.79627" lon="5.73256">
        <ele>326.13782213613</ele>
        <time>2015-10-11T17:02:39Z</time>
      </trkpt>
      <trkpt lat="45.79628" lon="5.73246">
        <ele>326.13782213613</ele>
        <time>2015-10-11T17:02:44Z</time>
      </trkpt>
      <trkpt lat="45.79636" lon="5.73233">
        <ele>327.10033361793</ele>
        <time>2015-10-11T17:02:54Z</time>
      </trkpt>
      <trkpt lat="45.79634" lon="5.73221">
        <ele>327.10033361793</ele>
        <time>2015-10-11T17:02:59Z</time>
      </trkpt>
      <trkpt lat="45.79637" lon="5.73209">
        <ele>329.05831128972</ele>
        <time>2015-10-11T17:03:09Z</time>
      </trkpt>
      <trkpt lat="45.79639" lon="5.73192">
        <ele>330.7094330133</ele>
        <time>2015-10-11T17:03:14Z</time>
      </trkpt>
      <trkpt lat="45.79639" lon="5.73169">
        <ele>333.11050175553</ele>
        <time>2015-10-11T17:03:24Z</time>
      </trkpt>
      <trkpt lat="45.79638" lon="5.73163">
        <ele>333.11050175553</ele>
        <time>2015-10-11T17:03:29Z</time>
      </trkpt>
      <trkpt lat="45.79646" lon="5.73155">
        <ele>335.56695444141</ele>
        <time>2015-10-11T17:03:39Z</time>
      </trkpt>
      <trkpt lat="45.79649" lon="5.73151">
        <ele>335.56695444141</ele>
        <time>2015-10-11T17:03:44Z</time>
      </trkpt>
      <trkpt lat="45.79652" lon="5.73137">
        <ele>337.92514188735</ele>
        <time>2015-10-11T17:03:54Z</time>
      </trkpt>
      <trkpt lat="45.79657" lon="5.73124">
        <ele>341.10948049428</ele>
        <time>2015-10-11T17:03:59Z</time>
      </trkpt>
      <trkpt lat="45.79666" lon="5.73105">
        <ele>344.28815378216</ele>
        <time>2015-10-11T17:04:09Z</time>
      </trkpt>
      <trkpt lat="45.79667" lon="5.73102">
        <ele>344.28815378216</ele>
        <time>2015-10-11T17:04:14Z</time>
      </trkpt>
      <trkpt lat="45.79673" lon="5.7307">
        <ele>346.57528038608</ele>
        <time>2015-10-11T17:04:29Z</time>
      </trkpt>
      <trkpt lat="45.79674" lon="5.73061">
        <ele>346.57528038608</ele>
        <time>2015-10-11T17:04:34Z</time>
      </trkpt>
      <trkpt lat="45.79678" lon="5.73039">
        <ele>349.2278712686</ele>
        <time>2015-10-11T17:04:44Z</time>
      </trkpt>
      <trkpt lat="45.79676" lon="5.73027">
        <ele>349.2278712686</ele>
        <time>2015-10-11T17:04:49Z</time>
      </trkpt>
      <trkpt lat="45.79676" lon="5.73014">
        <ele>351.04627179384</ele>
        <time>2015-10-11T17:04:59Z</time>
      </trkpt>
      <trkpt lat="45.79675" lon="5.73004">
        <ele>351.04627179384</ele>
        <time>2015-10-11T17:05:04Z</time>
      </trkpt>
      <trkpt lat="45.79674" lon="5.7299">
        <ele>352.52105358086</ele>
        <time>2015-10-11T17:05:14Z</time>
      </trkpt>
      <trkpt lat="45.79672" lon="5.72984">
        <ele>352.52105358086</ele>
        <time>2015-10-11T17:05:19Z</time>
      </trkpt>
      <trkpt lat="45.79667" lon="5.72967">
        <ele>354.19430919325</ele>
        <time>2015-10-11T17:05:29Z</time>
      </trkpt>
      <trkpt lat="45.79663" lon="5.72961">
        <ele>354.19430919325</ele>
        <time>2015-10-11T17:05:34Z</time>
      </trkpt>
      <trkpt lat="45.79662" lon="5.72956">
        <ele>354.19430919325</ele>
        <time>2015-10-11T17:05:44Z</time>
      </trkpt>
      <trkpt lat="45.79657" lon="5.72936">
        <ele>355.83291208391</ele>
        <time>2015-10-11T17:05:49Z</time>
      </trkpt>
      <trkpt lat="45.79646" lon="5.72899">
        <ele>357.8119383051</ele>
        <time>2015-10-11T17:05:59Z</time>
      </trkpt>
      <trkpt lat="45.79644" lon="5.72887">
        <ele>357.8119383051</ele>
        <time>2015-10-11T17:06:04Z</time>
      </trkpt>
      <trkpt lat="45.79639" lon="5.72867">
        <ele>359.32518813101</ele>
        <time>2015-10-11T17:06:14Z</time>
      </trkpt>
      <trkpt lat="45.79642" lon="5.72856">
        <ele>359.32518813101</ele>
        <time>2015-10-11T17:06:19Z</time>
      </trkpt>
      <trkpt lat="45.79649" lon="5.72843">
        <ele>360.77999934079</ele>
        <time>2015-10-11T17:06:29Z</time>
      </trkpt>
      <trkpt lat="45.79654" lon="5.72837">
        <ele>360.77999934079</ele>
        <time>2015-10-11T17:06:34Z</time>
      </trkpt>
      <trkpt lat="45.79666" lon="5.72825">
        <ele>362.43877747234</ele>
        <time>2015-10-11T17:06:44Z</time>
      </trkpt>
      <trkpt lat="45.79672" lon="5.72818">
        <ele>362.43877747234</ele>
        <time>2015-10-11T17:06:49Z</time>
      </trkpt>
      <trkpt lat="45.79687" lon="5.72802">
        <ele>363.99656920136</ele>
        <time>2015-10-11T17:07:04Z</time>
      </trkpt>
      <trkpt lat="45.79693" lon="5.72796">
        <ele>363.99656920136</ele>
        <time>2015-10-11T17:07:09Z</time>
      </trkpt>
      <trkpt lat="45.79703" lon="5.72784">
        <ele>365.47384725591</ele>
        <time>2015-10-11T17:07:19Z</time>
      </trkpt>
      <trkpt lat="45.79707" lon="5.72777">
        <ele>365.47384725591</ele>
        <time>2015-10-11T17:07:24Z</time>
      </trkpt>
      <trkpt lat="45.79714" lon="5.72764">
        <ele>366.38551957534</ele>
        <time>2015-10-11T17:07:34Z</time>
      </trkpt>
      <trkpt lat="45.79718" lon="5.72756">
        <ele>366.38551957534</ele>
        <time>2015-10-11T17:07:39Z</time>
      </trkpt>
      <trkpt lat="45.79725" lon="5.7274">
        <ele>366.61526618231</ele>
        <time>2015-10-11T17:07:49Z</time>
      </trkpt>
      <trkpt lat="45.79728" lon="5.72732">
        <ele>366.61526618231</ele>
        <time>2015-10-11T17:07:54Z</time>
      </trkpt>
      <trkpt lat="45.79733" lon="5.72715">
        <ele>366.61934386183</ele>
        <time>2015-10-11T17:08:04Z</time>
      </trkpt>
      <trkpt lat="45.79733" lon="5.72705">
        <ele>366.61934386183</ele>
        <time>2015-10-11T17:08:09Z</time>
      </trkpt>
      <trkpt lat="45.7973" lon="5.72666">
        <ele>366.46092114722</ele>
        <time>2015-10-11T17:08:19Z</time>
      </trkpt>
      <trkpt lat="45.79728" lon="5.72655">
        <ele>366.46092114722</ele>
        <time>2015-10-11T17:08:24Z</time>
      </trkpt>
      <trkpt lat="45.79727" lon="5.72635">
        <ele>366.41520746603</ele>
        <time>2015-10-11T17:08:34Z</time>
      </trkpt>
      <trkpt lat="45.79727" lon="5.72633">
        <ele>366.41520746603</ele>
        <time>2015-10-11T17:08:39Z</time>
      </trkpt>
      <trkpt lat="45.79727" lon="5.72633">
        <ele>366.41520746603</ele>
        <time>2015-10-11T17:08:54Z</time>
      </trkpt>
      <trkpt lat="45.79726" lon="5.72631">
        <ele>366.41520746603</ele>
        <time>2015-10-11T17:08:59Z</time>
      </trkpt>
      <trkpt lat="45.79725" lon="5.72631">
        <ele>366.41520746603</ele>
        <time>2015-10-11T17:09:09Z</time>
      </trkpt>
      <trkpt lat="45.79724" lon="5.7263">
        <ele>366.41520746603</ele>
        <time>2015-10-11T17:09:14Z</time>
      </trkpt>
      <trkpt lat="45.79724" lon="5.72629">
        <ele>366.41520746603</ele>
        <time>2015-10-11T17:09:24Z</time>
      </trkpt>
      <trkpt lat="45.79724" lon="5.72629">
        <ele>366.41520746603</ele>
        <time>2015-10-11T17:09:29Z</time>
      </trkpt>
      <trkpt lat="45.79733" lon="5.72619">
        <ele>366.14606678761</ele>
        <time>2015-10-11T17:09:39Z</time>
      </trkpt>
      <trkpt lat="45.79739" lon="5.72612">
        <ele>366.14606678761</ele>
        <time>2015-10-11T17:09:44Z</time>
      </trkpt>
      <trkpt lat="45.79749" lon="5.72597">
        <ele>365.90474400882</ele>
        <time>2015-10-11T17:09:54Z</time>
      </trkpt>
      <trkpt lat="45.79754" lon="5.72591">
        <ele>365.90474400882</ele>
        <time>2015-10-11T17:09:59Z</time>
      </trkpt>
      <trkpt lat="45.7976" lon="5.72585">
        <ele>365.75103033716</ele>
        <time>2015-10-11T17:10:04Z</time>
      </trkpt>
      <trkpt lat="45.79764" lon="5.72578">
        <ele>365.75103033716</ele>
        <time>2015-10-11T17:10:09Z</time>
      </trkpt>
      <trkpt lat="45.7977" lon="5.72573">
        <ele>365.63920201867</ele>
        <time>2015-10-11T17:10:14Z</time>
      </trkpt>
      <trkpt lat="45.79775" lon="5.72568">
        <ele>365.63920201867</ele>
        <time>2015-10-11T17:10:19Z</time>
      </trkpt>
      <trkpt lat="45.79779" lon="5.72561">
        <ele>365.4979429991</ele>
        <time>2015-10-11T17:10:24Z</time>
      </trkpt>
      <trkpt lat="45.79784" lon="5.72554">
        <ele>365.4979429991</ele>
        <time>2015-10-11T17:10:29Z</time>
      </trkpt>
      <trkpt lat="45.79788" lon="5.72546">
        <ele>365.14594688608</ele>
        <time>2015-10-11T17:10:34Z</time>
      </trkpt>
      <trkpt lat="45.79792" lon="5.72537">
        <ele>365.14594688608</ele>
        <time>2015-10-11T17:10:39Z</time>
      </trkpt>
      <trkpt lat="45.79795" lon="5.72528">
        <ele>364.66077247871</ele>
        <time>2015-10-11T17:10:44Z</time>
      </trkpt>
      <trkpt lat="45.79797" lon="5.72519">
        <ele>364.66077247871</ele>
        <time>2015-10-11T17:10:49Z</time>
      </trkpt>
      <trkpt lat="45.79799" lon="5.72509">
        <ele>363.98491022646</ele>
        <time>2015-10-11T17:10:54Z</time>
      </trkpt>
      <trkpt lat="45.79803" lon="5.725">
        <ele>363.98491022646</ele>
        <time>2015-10-11T17:10:59Z</time>
      </trkpt>
      <trkpt lat="45.79805" lon="5.7249">
        <ele>363.36818832818</ele>
        <time>2015-10-11T17:11:04Z</time>
      </trkpt>
      <trkpt lat="45.79807" lon="5.7248">
        <ele>363.36818832818</ele>
        <time>2015-10-11T17:11:09Z</time>
      </trkpt>
      <trkpt lat="45.7981" lon="5.7247">
        <ele>362.63833947802</ele>
        <time>2015-10-11T17:11:14Z</time>
      </trkpt>
      <trkpt lat="45.79813" lon="5.7246">
        <ele>362.63833947802</ele>
        <time>2015-10-11T17:11:19Z</time>
      </trkpt>
      <trkpt lat="45.79814" lon="5.72453">
        <ele>362.0683256473</ele>
        <time>2015-10-11T17:11:24Z</time>
      </trkpt>
      <trkpt lat="45.79816" lon="5.72448">
        <ele>362.0683256473</ele>
        <time>2015-10-11T17:11:29Z</time>
      </trkpt>
      <trkpt lat="45.79819" lon="5.72444">
        <ele>362.0683256473</ele>
        <time>2015-10-11T17:11:34Z</time>
      </trkpt>
    </trkseg>
  </trk>
</gpx>